<?xml version="1.0" encoding="UTF-8" standalone="no" ?>
<gpx xmlns="http://www.topografix.com/GPX/1/1" xmlns:xsi="http://www.w3.org/2001/XMLSchema-instance" xsi:schemaLocation="http://www.topografix.com/GPX/1/1 http://www.topografix.com/GPX/1/1/gpx.xsd" version="1.1" creator="VisuGPX - https://www.visugpx.com">
  <metadata>
    <name>Availles sur Chize Noire</name>
  </metadata>
  <trk>
    <name><![CDATA[Availles sur Chize Noire_1]]></name>
    <trkseg>
      <trkpt lat="46.09975" lon="-0.34232">
        <ele>44.8</ele>
        <time>2021-03-26T15:55:27Z</time>
      </trkpt>
      <trkpt lat="46.09973" lon="-0.34242">
        <ele>44.8</ele>
        <time>2021-03-26T15:55:28Z</time>
      </trkpt>
      <trkpt lat="46.09971" lon="-0.34279">
        <ele>43.8</ele>
        <time>2021-03-26T15:55:32Z</time>
      </trkpt>
      <trkpt lat="46.09971" lon="-0.34308">
        <ele>42.6</ele>
        <time>2021-03-26T15:55:35Z</time>
      </trkpt>
      <trkpt lat="46.09971" lon="-0.34343">
        <ele>41.6</ele>
        <time>2021-03-26T15:55:38Z</time>
      </trkpt>
      <trkpt lat="46.09971" lon="-0.34355">
        <ele>41.6</ele>
        <time>2021-03-26T15:55:39Z</time>
      </trkpt>
      <trkpt lat="46.09967" lon="-0.34403">
        <ele>40.4</ele>
        <time>2021-03-26T15:55:43Z</time>
      </trkpt>
      <trkpt lat="46.09965" lon="-0.34416">
        <ele>39.6</ele>
        <time>2021-03-26T15:55:44Z</time>
      </trkpt>
      <trkpt lat="46.09964" lon="-0.34428">
        <ele>39</ele>
        <time>2021-03-26T15:55:45Z</time>
      </trkpt>
      <trkpt lat="46.09956" lon="-0.34473">
        <ele>38</ele>
        <time>2021-03-26T15:55:49Z</time>
      </trkpt>
      <trkpt lat="46.09954" lon="-0.34484">
        <ele>37.8</ele>
        <time>2021-03-26T15:55:50Z</time>
      </trkpt>
      <trkpt lat="46.09951" lon="-0.34507">
        <ele>37.8</ele>
        <time>2021-03-26T15:55:52Z</time>
      </trkpt>
      <trkpt lat="46.09953" lon="-0.34531">
        <ele>37.8</ele>
        <time>2021-03-26T15:55:54Z</time>
      </trkpt>
      <trkpt lat="46.0996" lon="-0.34553">
        <ele>37.6</ele>
        <time>2021-03-26T15:55:56Z</time>
      </trkpt>
      <trkpt lat="46.09965" lon="-0.34564">
        <ele>37.6</ele>
        <time>2021-03-26T15:55:57Z</time>
      </trkpt>
      <trkpt lat="46.0997" lon="-0.34574">
        <ele>37.8</ele>
        <time>2021-03-26T15:55:58Z</time>
      </trkpt>
      <trkpt lat="46.09974" lon="-0.34584">
        <ele>37.8</ele>
        <time>2021-03-26T15:55:59Z</time>
      </trkpt>
      <trkpt lat="46.0999" lon="-0.34628">
        <ele>37.6</ele>
        <time>2021-03-26T15:56:03Z</time>
      </trkpt>
      <trkpt lat="46.09996" lon="-0.34651">
        <ele>37.6</ele>
        <time>2021-03-26T15:56:05Z</time>
      </trkpt>
      <trkpt lat="46.10003" lon="-0.34686">
        <ele>37.4</ele>
        <time>2021-03-26T15:56:08Z</time>
      </trkpt>
      <trkpt lat="46.1001" lon="-0.3473">
        <ele>36.8</ele>
        <time>2021-03-26T15:56:12Z</time>
      </trkpt>
      <trkpt lat="46.1001" lon="-0.3474">
        <ele>36.8</ele>
        <time>2021-03-26T15:56:13Z</time>
      </trkpt>
      <trkpt lat="46.10011" lon="-0.34751">
        <ele>36.6</ele>
        <time>2021-03-26T15:56:14Z</time>
      </trkpt>
      <trkpt lat="46.10011" lon="-0.34762">
        <ele>36.4</ele>
        <time>2021-03-26T15:56:15Z</time>
      </trkpt>
      <trkpt lat="46.1001" lon="-0.34773">
        <ele>36.4</ele>
        <time>2021-03-26T15:56:16Z</time>
      </trkpt>
      <trkpt lat="46.10006" lon="-0.34796">
        <ele>36.2</ele>
        <time>2021-03-26T15:56:18Z</time>
      </trkpt>
      <trkpt lat="46.09994" lon="-0.3485">
        <ele>36.2</ele>
        <time>2021-03-26T15:56:23Z</time>
      </trkpt>
      <trkpt lat="46.09994" lon="-0.3486">
        <ele>36.2</ele>
        <time>2021-03-26T15:56:24Z</time>
      </trkpt>
      <trkpt lat="46.09995" lon="-0.3487">
        <ele>36.2</ele>
        <time>2021-03-26T15:56:25Z</time>
      </trkpt>
      <trkpt lat="46.09998" lon="-0.3488">
        <ele>36.2</ele>
        <time>2021-03-26T15:56:26Z</time>
      </trkpt>
      <trkpt lat="46.10002" lon="-0.34891">
        <ele>36.2</ele>
        <time>2021-03-26T15:56:27Z</time>
      </trkpt>
      <trkpt lat="46.10006" lon="-0.34903">
        <ele>36.2</ele>
        <time>2021-03-26T15:56:28Z</time>
      </trkpt>
      <trkpt lat="46.10009" lon="-0.34915">
        <ele>36.2</ele>
        <time>2021-03-26T15:56:29Z</time>
      </trkpt>
      <trkpt lat="46.10015" lon="-0.3494">
        <ele>36</ele>
        <time>2021-03-26T15:56:31Z</time>
      </trkpt>
      <trkpt lat="46.10022" lon="-0.34976">
        <ele>35.8</ele>
        <time>2021-03-26T15:56:34Z</time>
      </trkpt>
      <trkpt lat="46.10024" lon="-0.34986">
        <ele>35.8</ele>
        <time>2021-03-26T15:56:35Z</time>
      </trkpt>
      <trkpt lat="46.10026" lon="-0.34997">
        <ele>35.8</ele>
        <time>2021-03-26T15:56:36Z</time>
      </trkpt>
      <trkpt lat="46.10028" lon="-0.35006">
        <ele>36</ele>
        <time>2021-03-26T15:56:37Z</time>
      </trkpt>
      <trkpt lat="46.10031" lon="-0.35016">
        <ele>36</ele>
        <time>2021-03-26T15:56:38Z</time>
      </trkpt>
      <trkpt lat="46.10033" lon="-0.35025">
        <ele>36</ele>
        <time>2021-03-26T15:56:39Z</time>
      </trkpt>
      <trkpt lat="46.10036" lon="-0.35035">
        <ele>36</ele>
        <time>2021-03-26T15:56:40Z</time>
      </trkpt>
      <trkpt lat="46.10041" lon="-0.35054">
        <ele>36</ele>
        <time>2021-03-26T15:56:42Z</time>
      </trkpt>
      <trkpt lat="46.10052" lon="-0.3513">
        <ele>35.8</ele>
        <time>2021-03-26T15:56:49Z</time>
      </trkpt>
      <trkpt lat="46.10061" lon="-0.35199">
        <ele>35.2</ele>
        <time>2021-03-26T15:56:55Z</time>
      </trkpt>
      <trkpt lat="46.10063" lon="-0.35223">
        <ele>34.8</ele>
        <time>2021-03-26T15:56:57Z</time>
      </trkpt>
      <trkpt lat="46.10066" lon="-0.35258">
        <ele>34.4</ele>
        <time>2021-03-26T15:57:00Z</time>
      </trkpt>
      <trkpt lat="46.10065" lon="-0.35271">
        <ele>34.2</ele>
        <time>2021-03-26T15:57:01Z</time>
      </trkpt>
      <trkpt lat="46.10062" lon="-0.35344">
        <ele>34.2</ele>
        <time>2021-03-26T15:57:07Z</time>
      </trkpt>
      <trkpt lat="46.10062" lon="-0.3538">
        <ele>34</ele>
        <time>2021-03-26T15:57:10Z</time>
      </trkpt>
      <trkpt lat="46.10061" lon="-0.35461">
        <ele>33.8</ele>
        <time>2021-03-26T15:57:17Z</time>
      </trkpt>
      <trkpt lat="46.10061" lon="-0.35473">
        <ele>33.8</ele>
        <time>2021-03-26T15:57:18Z</time>
      </trkpt>
      <trkpt lat="46.10059" lon="-0.35484">
        <ele>33.8</ele>
        <time>2021-03-26T15:57:19Z</time>
      </trkpt>
      <trkpt lat="46.10058" lon="-0.35496">
        <ele>33.8</ele>
        <time>2021-03-26T15:57:20Z</time>
      </trkpt>
      <trkpt lat="46.10056" lon="-0.35507">
        <ele>33.4</ele>
        <time>2021-03-26T15:57:21Z</time>
      </trkpt>
      <trkpt lat="46.10051" lon="-0.35542">
        <ele>33</ele>
        <time>2021-03-26T15:57:24Z</time>
      </trkpt>
      <trkpt lat="46.10042" lon="-0.356">
        <ele>32.4</ele>
        <time>2021-03-26T15:57:29Z</time>
      </trkpt>
      <trkpt lat="46.10037" lon="-0.35636">
        <ele>32.2</ele>
        <time>2021-03-26T15:57:32Z</time>
      </trkpt>
      <trkpt lat="46.10035" lon="-0.35702">
        <ele>32.2</ele>
        <time>2021-03-26T15:57:38Z</time>
      </trkpt>
      <trkpt lat="46.10035" lon="-0.35713">
        <ele>32.4</ele>
        <time>2021-03-26T15:57:39Z</time>
      </trkpt>
      <trkpt lat="46.10036" lon="-0.35735">
        <ele>32.6</ele>
        <time>2021-03-26T15:57:41Z</time>
      </trkpt>
      <trkpt lat="46.10037" lon="-0.35757">
        <ele>32.2</ele>
        <time>2021-03-26T15:57:43Z</time>
      </trkpt>
      <trkpt lat="46.10038" lon="-0.35779">
        <ele>32.2</ele>
        <time>2021-03-26T15:57:45Z</time>
      </trkpt>
      <trkpt lat="46.10036" lon="-0.35848">
        <ele>32.2</ele>
        <time>2021-03-26T15:57:51Z</time>
      </trkpt>
      <trkpt lat="46.10029" lon="-0.35916">
        <ele>32.2</ele>
        <time>2021-03-26T15:57:57Z</time>
      </trkpt>
      <trkpt lat="46.10029" lon="-0.35939">
        <ele>32</ele>
        <time>2021-03-26T15:57:59Z</time>
      </trkpt>
      <trkpt lat="46.1003" lon="-0.35949">
        <ele>32</ele>
        <time>2021-03-26T15:58:00Z</time>
      </trkpt>
      <trkpt lat="46.10031" lon="-0.3596">
        <ele>31.6</ele>
        <time>2021-03-26T15:58:01Z</time>
      </trkpt>
      <trkpt lat="46.10031" lon="-0.35971">
        <ele>31.4</ele>
        <time>2021-03-26T15:58:02Z</time>
      </trkpt>
      <trkpt lat="46.1003" lon="-0.35982">
        <ele>31.2</ele>
        <time>2021-03-26T15:58:03Z</time>
      </trkpt>
      <trkpt lat="46.1003" lon="-0.35993">
        <ele>31.2</ele>
        <time>2021-03-26T15:58:04Z</time>
      </trkpt>
      <trkpt lat="46.1003" lon="-0.36004">
        <ele>31</ele>
        <time>2021-03-26T15:58:05Z</time>
      </trkpt>
      <trkpt lat="46.1003" lon="-0.36015">
        <ele>30.8</ele>
        <time>2021-03-26T15:58:06Z</time>
      </trkpt>
      <trkpt lat="46.10028" lon="-0.36055">
        <ele>30.8</ele>
        <time>2021-03-26T15:58:10Z</time>
      </trkpt>
      <trkpt lat="46.10028" lon="-0.36076">
        <ele>30.8</ele>
        <time>2021-03-26T15:58:12Z</time>
      </trkpt>
      <trkpt lat="46.10028" lon="-0.36086">
        <ele>30.8</ele>
        <time>2021-03-26T15:58:13Z</time>
      </trkpt>
      <trkpt lat="46.10028" lon="-0.36107">
        <ele>30.8</ele>
        <time>2021-03-26T15:58:15Z</time>
      </trkpt>
      <trkpt lat="46.10029" lon="-0.36128">
        <ele>31</ele>
        <time>2021-03-26T15:58:17Z</time>
      </trkpt>
      <trkpt lat="46.10034" lon="-0.36212">
        <ele>32.4</ele>
        <time>2021-03-26T15:58:25Z</time>
      </trkpt>
      <trkpt lat="46.10037" lon="-0.36232">
        <ele>33</ele>
        <time>2021-03-26T15:58:27Z</time>
      </trkpt>
      <trkpt lat="46.10043" lon="-0.36277">
        <ele>33.6</ele>
        <time>2021-03-26T15:58:31Z</time>
      </trkpt>
      <trkpt lat="46.10047" lon="-0.36297">
        <ele>34</ele>
        <time>2021-03-26T15:58:33Z</time>
      </trkpt>
      <trkpt lat="46.10049" lon="-0.36306">
        <ele>34</ele>
        <time>2021-03-26T15:58:34Z</time>
      </trkpt>
      <trkpt lat="46.1005" lon="-0.36314">
        <ele>34</ele>
        <time>2021-03-26T15:58:35Z</time>
      </trkpt>
      <trkpt lat="46.10052" lon="-0.36323">
        <ele>34</ele>
        <time>2021-03-26T15:58:36Z</time>
      </trkpt>
      <trkpt lat="46.10055" lon="-0.36331">
        <ele>34</ele>
        <time>2021-03-26T15:58:37Z</time>
      </trkpt>
      <trkpt lat="46.10057" lon="-0.36341">
        <ele>34.2</ele>
        <time>2021-03-26T15:58:38Z</time>
      </trkpt>
      <trkpt lat="46.10059" lon="-0.3635">
        <ele>34.4</ele>
        <time>2021-03-26T15:58:39Z</time>
      </trkpt>
      <trkpt lat="46.10061" lon="-0.3636">
        <ele>34.4</ele>
        <time>2021-03-26T15:58:40Z</time>
      </trkpt>
      <trkpt lat="46.10064" lon="-0.3637">
        <ele>34.4</ele>
        <time>2021-03-26T15:58:41Z</time>
      </trkpt>
      <trkpt lat="46.10066" lon="-0.3638">
        <ele>34.4</ele>
        <time>2021-03-26T15:58:42Z</time>
      </trkpt>
      <trkpt lat="46.10068" lon="-0.3639">
        <ele>34</ele>
        <time>2021-03-26T15:58:43Z</time>
      </trkpt>
      <trkpt lat="46.1007" lon="-0.364">
        <ele>33.8</ele>
        <time>2021-03-26T15:58:44Z</time>
      </trkpt>
      <trkpt lat="46.10073" lon="-0.3641">
        <ele>33.8</ele>
        <time>2021-03-26T15:58:45Z</time>
      </trkpt>
      <trkpt lat="46.10075" lon="-0.36421">
        <ele>33.6</ele>
        <time>2021-03-26T15:58:46Z</time>
      </trkpt>
      <trkpt lat="46.1008" lon="-0.36442">
        <ele>33.6</ele>
        <time>2021-03-26T15:58:48Z</time>
      </trkpt>
      <trkpt lat="46.10083" lon="-0.36464">
        <ele>33.6</ele>
        <time>2021-03-26T15:58:50Z</time>
      </trkpt>
      <trkpt lat="46.10096" lon="-0.36527">
        <ele>33.4</ele>
        <time>2021-03-26T15:58:56Z</time>
      </trkpt>
      <trkpt lat="46.10103" lon="-0.36566">
        <ele>33.2</ele>
        <time>2021-03-26T15:59:00Z</time>
      </trkpt>
      <trkpt lat="46.10105" lon="-0.36575">
        <ele>33.2</ele>
        <time>2021-03-26T15:59:01Z</time>
      </trkpt>
      <trkpt lat="46.10107" lon="-0.36584">
        <ele>33.2</ele>
        <time>2021-03-26T15:59:02Z</time>
      </trkpt>
      <trkpt lat="46.10108" lon="-0.36593">
        <ele>33.2</ele>
        <time>2021-03-26T15:59:03Z</time>
      </trkpt>
      <trkpt lat="46.1011" lon="-0.36601">
        <ele>33.2</ele>
        <time>2021-03-26T15:59:04Z</time>
      </trkpt>
      <trkpt lat="46.1011" lon="-0.36608">
        <ele>33.2</ele>
        <time>2021-03-26T15:59:05Z</time>
      </trkpt>
      <trkpt lat="46.10108" lon="-0.36615">
        <ele>33.2</ele>
        <time>2021-03-26T15:59:06Z</time>
      </trkpt>
      <trkpt lat="46.10105" lon="-0.3662">
        <ele>33.2</ele>
        <time>2021-03-26T15:59:07Z</time>
      </trkpt>
      <trkpt lat="46.10101" lon="-0.36624">
        <ele>33.2</ele>
        <time>2021-03-26T15:59:08Z</time>
      </trkpt>
      <trkpt lat="46.10097" lon="-0.36625">
        <ele>33.2</ele>
        <time>2021-03-26T15:59:09Z</time>
      </trkpt>
      <trkpt lat="46.10092" lon="-0.36625">
        <ele>33.2</ele>
        <time>2021-03-26T15:59:10Z</time>
      </trkpt>
      <trkpt lat="46.10086" lon="-0.36627">
        <ele>33.2</ele>
        <time>2021-03-26T15:59:11Z</time>
      </trkpt>
      <trkpt lat="46.10079" lon="-0.36628">
        <ele>33.4</ele>
        <time>2021-03-26T15:59:12Z</time>
      </trkpt>
      <trkpt lat="46.10072" lon="-0.3663">
        <ele>33.6</ele>
        <time>2021-03-26T15:59:13Z</time>
      </trkpt>
      <trkpt lat="46.10036" lon="-0.36638">
        <ele>34.4</ele>
        <time>2021-03-26T15:59:18Z</time>
      </trkpt>
      <trkpt lat="46.10029" lon="-0.36639">
        <ele>34.4</ele>
        <time>2021-03-26T15:59:19Z</time>
      </trkpt>
      <trkpt lat="46.09978" lon="-0.36649">
        <ele>34</ele>
        <time>2021-03-26T15:59:26Z</time>
      </trkpt>
      <trkpt lat="46.09926" lon="-0.36662">
        <ele>32.6</ele>
        <time>2021-03-26T15:59:33Z</time>
      </trkpt>
      <trkpt lat="46.09918" lon="-0.36664">
        <ele>32.4</ele>
        <time>2021-03-26T15:59:34Z</time>
      </trkpt>
      <trkpt lat="46.09894" lon="-0.36668">
        <ele>31.4</ele>
        <time>2021-03-26T15:59:37Z</time>
      </trkpt>
      <trkpt lat="46.09849" lon="-0.36678">
        <ele>31</ele>
        <time>2021-03-26T15:59:43Z</time>
      </trkpt>
      <trkpt lat="46.09794" lon="-0.36692">
        <ele>31</ele>
        <time>2021-03-26T15:59:50Z</time>
      </trkpt>
      <trkpt lat="46.09787" lon="-0.36693">
        <ele>31</ele>
        <time>2021-03-26T15:59:51Z</time>
      </trkpt>
      <trkpt lat="46.0978" lon="-0.36695">
        <ele>31.2</ele>
        <time>2021-03-26T15:59:52Z</time>
      </trkpt>
      <trkpt lat="46.09773" lon="-0.36696">
        <ele>31.2</ele>
        <time>2021-03-26T15:59:53Z</time>
      </trkpt>
      <trkpt lat="46.09767" lon="-0.36699">
        <ele>31.4</ele>
        <time>2021-03-26T15:59:54Z</time>
      </trkpt>
      <trkpt lat="46.0976" lon="-0.367">
        <ele>31.8</ele>
        <time>2021-03-26T15:59:55Z</time>
      </trkpt>
      <trkpt lat="46.09753" lon="-0.36702">
        <ele>32</ele>
        <time>2021-03-26T15:59:56Z</time>
      </trkpt>
      <trkpt lat="46.09716" lon="-0.3671">
        <ele>32.6</ele>
        <time>2021-03-26T16:00:01Z</time>
      </trkpt>
      <trkpt lat="46.09709" lon="-0.36712">
        <ele>32.8</ele>
        <time>2021-03-26T16:00:02Z</time>
      </trkpt>
      <trkpt lat="46.09702" lon="-0.36714">
        <ele>32.8</ele>
        <time>2021-03-26T16:00:03Z</time>
      </trkpt>
      <trkpt lat="46.09663" lon="-0.36723">
        <ele>33</ele>
        <time>2021-03-26T16:00:08Z</time>
      </trkpt>
      <trkpt lat="46.09641" lon="-0.36727">
        <ele>33.2</ele>
        <time>2021-03-26T16:00:11Z</time>
      </trkpt>
      <trkpt lat="46.09588" lon="-0.36742">
        <ele>32.8</ele>
        <time>2021-03-26T16:00:18Z</time>
      </trkpt>
      <trkpt lat="46.09572" lon="-0.36746">
        <ele>32.6</ele>
        <time>2021-03-26T16:00:20Z</time>
      </trkpt>
      <trkpt lat="46.09532" lon="-0.36757">
        <ele>32.2</ele>
        <time>2021-03-26T16:00:25Z</time>
      </trkpt>
      <trkpt lat="46.09524" lon="-0.36762">
        <ele>31.8</ele>
        <time>2021-03-26T16:00:26Z</time>
      </trkpt>
      <trkpt lat="46.09494" lon="-0.3678">
        <ele>31.6</ele>
        <time>2021-03-26T16:00:30Z</time>
      </trkpt>
      <trkpt lat="46.09464" lon="-0.36799">
        <ele>31.4</ele>
        <time>2021-03-26T16:00:34Z</time>
      </trkpt>
      <trkpt lat="46.09427" lon="-0.36822">
        <ele>31.6</ele>
        <time>2021-03-26T16:00:39Z</time>
      </trkpt>
      <trkpt lat="46.0942" lon="-0.36827">
        <ele>31.6</ele>
        <time>2021-03-26T16:00:40Z</time>
      </trkpt>
      <trkpt lat="46.0939" lon="-0.36844">
        <ele>32</ele>
        <time>2021-03-26T16:00:44Z</time>
      </trkpt>
      <trkpt lat="46.09383" lon="-0.36848">
        <ele>32</ele>
        <time>2021-03-26T16:00:45Z</time>
      </trkpt>
      <trkpt lat="46.09369" lon="-0.36857">
        <ele>32</ele>
        <time>2021-03-26T16:00:47Z</time>
      </trkpt>
      <trkpt lat="46.09319" lon="-0.36889">
        <ele>32.8</ele>
        <time>2021-03-26T16:00:54Z</time>
      </trkpt>
      <trkpt lat="46.09312" lon="-0.36894">
        <ele>33</ele>
        <time>2021-03-26T16:00:55Z</time>
      </trkpt>
      <trkpt lat="46.0928" lon="-0.36929">
        <ele>32.4</ele>
        <time>2021-03-26T16:01:00Z</time>
      </trkpt>
      <trkpt lat="46.09256" lon="-0.36952">
        <ele>32.6</ele>
        <time>2021-03-26T16:01:04Z</time>
      </trkpt>
      <trkpt lat="46.09251" lon="-0.36957">
        <ele>32.8</ele>
        <time>2021-03-26T16:01:05Z</time>
      </trkpt>
      <trkpt lat="46.09246" lon="-0.36961">
        <ele>33</ele>
        <time>2021-03-26T16:01:06Z</time>
      </trkpt>
      <trkpt lat="46.09241" lon="-0.36964">
        <ele>33.4</ele>
        <time>2021-03-26T16:01:07Z</time>
      </trkpt>
      <trkpt lat="46.09236" lon="-0.36966">
        <ele>33.4</ele>
        <time>2021-03-26T16:01:08Z</time>
      </trkpt>
      <trkpt lat="46.09232" lon="-0.36966">
        <ele>33.8</ele>
        <time>2021-03-26T16:01:09Z</time>
      </trkpt>
      <trkpt lat="46.09228" lon="-0.36965">
        <ele>34</ele>
        <time>2021-03-26T16:01:10Z</time>
      </trkpt>
      <trkpt lat="46.09225" lon="-0.36962">
        <ele>34</ele>
        <time>2021-03-26T16:01:11Z</time>
      </trkpt>
      <trkpt lat="46.09223" lon="-0.36957">
        <ele>34.2</ele>
        <time>2021-03-26T16:01:12Z</time>
      </trkpt>
      <trkpt lat="46.09221" lon="-0.36952">
        <ele>34.6</ele>
        <time>2021-03-26T16:01:13Z</time>
      </trkpt>
      <trkpt lat="46.09218" lon="-0.36941">
        <ele>35.2</ele>
        <time>2021-03-26T16:01:15Z</time>
      </trkpt>
      <trkpt lat="46.09216" lon="-0.36935">
        <ele>35.4</ele>
        <time>2021-03-26T16:01:16Z</time>
      </trkpt>
      <trkpt lat="46.09213" lon="-0.36931">
        <ele>35.6</ele>
        <time>2021-03-26T16:01:17Z</time>
      </trkpt>
      <trkpt lat="46.0921" lon="-0.36929">
        <ele>35.8</ele>
        <time>2021-03-26T16:01:18Z</time>
      </trkpt>
      <trkpt lat="46.09206" lon="-0.36927">
        <ele>35.8</ele>
        <time>2021-03-26T16:01:19Z</time>
      </trkpt>
      <trkpt lat="46.09202" lon="-0.36924">
        <ele>36.4</ele>
        <time>2021-03-26T16:01:20Z</time>
      </trkpt>
      <trkpt lat="46.09199" lon="-0.36922">
        <ele>36.8</ele>
        <time>2021-03-26T16:01:21Z</time>
      </trkpt>
      <trkpt lat="46.09195" lon="-0.36921">
        <ele>37.4</ele>
        <time>2021-03-26T16:01:22Z</time>
      </trkpt>
      <trkpt lat="46.09189" lon="-0.36918">
        <ele>37.6</ele>
        <time>2021-03-26T16:01:23Z</time>
      </trkpt>
      <trkpt lat="46.09183" lon="-0.36916">
        <ele>38</ele>
        <time>2021-03-26T16:01:24Z</time>
      </trkpt>
      <trkpt lat="46.09177" lon="-0.36913">
        <ele>38.2</ele>
        <time>2021-03-26T16:01:25Z</time>
      </trkpt>
      <trkpt lat="46.0917" lon="-0.36909">
        <ele>38.4</ele>
        <time>2021-03-26T16:01:26Z</time>
      </trkpt>
      <trkpt lat="46.09163" lon="-0.36904">
        <ele>38.6</ele>
        <time>2021-03-26T16:01:27Z</time>
      </trkpt>
      <trkpt lat="46.09156" lon="-0.369">
        <ele>38.8</ele>
        <time>2021-03-26T16:01:28Z</time>
      </trkpt>
      <trkpt lat="46.09149" lon="-0.36897">
        <ele>39</ele>
        <time>2021-03-26T16:01:29Z</time>
      </trkpt>
      <trkpt lat="46.09143" lon="-0.36896">
        <ele>39.2</ele>
        <time>2021-03-26T16:01:30Z</time>
      </trkpt>
      <trkpt lat="46.09138" lon="-0.36894">
        <ele>39.4</ele>
        <time>2021-03-26T16:01:31Z</time>
      </trkpt>
      <trkpt lat="46.09132" lon="-0.36892">
        <ele>39.4</ele>
        <time>2021-03-26T16:01:32Z</time>
      </trkpt>
      <trkpt lat="46.09126" lon="-0.36888">
        <ele>39.6</ele>
        <time>2021-03-26T16:01:33Z</time>
      </trkpt>
      <trkpt lat="46.09119" lon="-0.36884">
        <ele>39.8</ele>
        <time>2021-03-26T16:01:34Z</time>
      </trkpt>
      <trkpt lat="46.09114" lon="-0.3688">
        <ele>40</ele>
        <time>2021-03-26T16:01:35Z</time>
      </trkpt>
      <trkpt lat="46.09108" lon="-0.36875">
        <ele>40.4</ele>
        <time>2021-03-26T16:01:36Z</time>
      </trkpt>
      <trkpt lat="46.09103" lon="-0.3687">
        <ele>40.6</ele>
        <time>2021-03-26T16:01:37Z</time>
      </trkpt>
      <trkpt lat="46.09097" lon="-0.36865">
        <ele>41</ele>
        <time>2021-03-26T16:01:38Z</time>
      </trkpt>
      <trkpt lat="46.0909" lon="-0.36858">
        <ele>41.2</ele>
        <time>2021-03-26T16:01:39Z</time>
      </trkpt>
      <trkpt lat="46.09083" lon="-0.36852">
        <ele>41.2</ele>
        <time>2021-03-26T16:01:40Z</time>
      </trkpt>
      <trkpt lat="46.09077" lon="-0.36846">
        <ele>41.2</ele>
        <time>2021-03-26T16:01:41Z</time>
      </trkpt>
      <trkpt lat="46.0907" lon="-0.36839">
        <ele>41.2</ele>
        <time>2021-03-26T16:01:42Z</time>
      </trkpt>
      <trkpt lat="46.09063" lon="-0.36833">
        <ele>41.2</ele>
        <time>2021-03-26T16:01:43Z</time>
      </trkpt>
      <trkpt lat="46.09056" lon="-0.36826">
        <ele>41.2</ele>
        <time>2021-03-26T16:01:44Z</time>
      </trkpt>
      <trkpt lat="46.09049" lon="-0.36819">
        <ele>41.2</ele>
        <time>2021-03-26T16:01:45Z</time>
      </trkpt>
      <trkpt lat="46.09042" lon="-0.36812">
        <ele>41.2</ele>
        <time>2021-03-26T16:01:46Z</time>
      </trkpt>
      <trkpt lat="46.09035" lon="-0.36804">
        <ele>41.2</ele>
        <time>2021-03-26T16:01:47Z</time>
      </trkpt>
      <trkpt lat="46.09028" lon="-0.36796">
        <ele>40.4</ele>
        <time>2021-03-26T16:01:48Z</time>
      </trkpt>
      <trkpt lat="46.09022" lon="-0.36788">
        <ele>39.6</ele>
        <time>2021-03-26T16:01:49Z</time>
      </trkpt>
      <trkpt lat="46.09016" lon="-0.3678">
        <ele>39.2</ele>
        <time>2021-03-26T16:01:50Z</time>
      </trkpt>
      <trkpt lat="46.0901" lon="-0.36771">
        <ele>39</ele>
        <time>2021-03-26T16:01:51Z</time>
      </trkpt>
      <trkpt lat="46.09004" lon="-0.36763">
        <ele>39</ele>
        <time>2021-03-26T16:01:52Z</time>
      </trkpt>
      <trkpt lat="46.08998" lon="-0.36754">
        <ele>38.8</ele>
        <time>2021-03-26T16:01:53Z</time>
      </trkpt>
      <trkpt lat="46.08992" lon="-0.36745">
        <ele>38.6</ele>
        <time>2021-03-26T16:01:54Z</time>
      </trkpt>
      <trkpt lat="46.08975" lon="-0.3672">
        <ele>38.4</ele>
        <time>2021-03-26T16:01:57Z</time>
      </trkpt>
      <trkpt lat="46.0897" lon="-0.36713">
        <ele>38.4</ele>
        <time>2021-03-26T16:01:58Z</time>
      </trkpt>
      <trkpt lat="46.08965" lon="-0.36706">
        <ele>38.4</ele>
        <time>2021-03-26T16:01:59Z</time>
      </trkpt>
      <trkpt lat="46.0896" lon="-0.367">
        <ele>38.4</ele>
        <time>2021-03-26T16:02:00Z</time>
      </trkpt>
      <trkpt lat="46.08957" lon="-0.36695">
        <ele>38.4</ele>
        <time>2021-03-26T16:02:01Z</time>
      </trkpt>
      <trkpt lat="46.08955" lon="-0.36689">
        <ele>38.4</ele>
        <time>2021-03-26T16:02:02Z</time>
      </trkpt>
      <trkpt lat="46.08953" lon="-0.36683">
        <ele>38.4</ele>
        <time>2021-03-26T16:02:03Z</time>
      </trkpt>
      <trkpt lat="46.08951" lon="-0.36675">
        <ele>38.4</ele>
        <time>2021-03-26T16:02:04Z</time>
      </trkpt>
      <trkpt lat="46.0895" lon="-0.36665">
        <ele>38.4</ele>
        <time>2021-03-26T16:02:05Z</time>
      </trkpt>
      <trkpt lat="46.08947" lon="-0.36656">
        <ele>38.6</ele>
        <time>2021-03-26T16:02:06Z</time>
      </trkpt>
      <trkpt lat="46.08932" lon="-0.36616">
        <ele>39.6</ele>
        <time>2021-03-26T16:02:10Z</time>
      </trkpt>
      <trkpt lat="46.08928" lon="-0.36605">
        <ele>39.8</ele>
        <time>2021-03-26T16:02:11Z</time>
      </trkpt>
      <trkpt lat="46.08916" lon="-0.36574">
        <ele>40.2</ele>
        <time>2021-03-26T16:02:14Z</time>
      </trkpt>
      <trkpt lat="46.08894" lon="-0.36526">
        <ele>40.4</ele>
        <time>2021-03-26T16:02:19Z</time>
      </trkpt>
      <trkpt lat="46.0886" lon="-0.36473">
        <ele>40.2</ele>
        <time>2021-03-26T16:02:25Z</time>
      </trkpt>
      <trkpt lat="46.08825" lon="-0.36425">
        <ele>40.4</ele>
        <time>2021-03-26T16:02:31Z</time>
      </trkpt>
      <trkpt lat="46.08818" lon="-0.3642">
        <ele>40.4</ele>
        <time>2021-03-26T16:02:32Z</time>
      </trkpt>
      <trkpt lat="46.08812" lon="-0.36416">
        <ele>40.4</ele>
        <time>2021-03-26T16:02:33Z</time>
      </trkpt>
      <trkpt lat="46.08805" lon="-0.36415">
        <ele>40.6</ele>
        <time>2021-03-26T16:02:34Z</time>
      </trkpt>
      <trkpt lat="46.08799" lon="-0.36414">
        <ele>40.6</ele>
        <time>2021-03-26T16:02:35Z</time>
      </trkpt>
      <trkpt lat="46.08792" lon="-0.36413">
        <ele>40.6</ele>
        <time>2021-03-26T16:02:36Z</time>
      </trkpt>
      <trkpt lat="46.08785" lon="-0.3641">
        <ele>40.8</ele>
        <time>2021-03-26T16:02:37Z</time>
      </trkpt>
      <trkpt lat="46.08778" lon="-0.36405">
        <ele>40.8</ele>
        <time>2021-03-26T16:02:38Z</time>
      </trkpt>
      <trkpt lat="46.08772" lon="-0.364">
        <ele>41</ele>
        <time>2021-03-26T16:02:39Z</time>
      </trkpt>
      <trkpt lat="46.08747" lon="-0.36374">
        <ele>41.8</ele>
        <time>2021-03-26T16:02:43Z</time>
      </trkpt>
      <trkpt lat="46.08726" lon="-0.36347">
        <ele>42.6</ele>
        <time>2021-03-26T16:02:47Z</time>
      </trkpt>
      <trkpt lat="46.08721" lon="-0.36339">
        <ele>42.8</ele>
        <time>2021-03-26T16:02:48Z</time>
      </trkpt>
      <trkpt lat="46.08712" lon="-0.36322">
        <ele>44.2</ele>
        <time>2021-03-26T16:02:50Z</time>
      </trkpt>
      <trkpt lat="46.08702" lon="-0.36306">
        <ele>45.4</ele>
        <time>2021-03-26T16:02:52Z</time>
      </trkpt>
      <trkpt lat="46.08697" lon="-0.36298">
        <ele>45.6</ele>
        <time>2021-03-26T16:02:53Z</time>
      </trkpt>
      <trkpt lat="46.08691" lon="-0.3629">
        <ele>46</ele>
        <time>2021-03-26T16:02:54Z</time>
      </trkpt>
      <trkpt lat="46.08686" lon="-0.36282">
        <ele>46</ele>
        <time>2021-03-26T16:02:55Z</time>
      </trkpt>
      <trkpt lat="46.08681" lon="-0.36273">
        <ele>46.2</ele>
        <time>2021-03-26T16:02:56Z</time>
      </trkpt>
      <trkpt lat="46.08676" lon="-0.36265">
        <ele>46.4</ele>
        <time>2021-03-26T16:02:57Z</time>
      </trkpt>
      <trkpt lat="46.08672" lon="-0.36256">
        <ele>46.4</ele>
        <time>2021-03-26T16:02:58Z</time>
      </trkpt>
      <trkpt lat="46.08667" lon="-0.36247">
        <ele>46.4</ele>
        <time>2021-03-26T16:02:59Z</time>
      </trkpt>
      <trkpt lat="46.08662" lon="-0.36238">
        <ele>46.6</ele>
        <time>2021-03-26T16:03:00Z</time>
      </trkpt>
      <trkpt lat="46.08657" lon="-0.36229">
        <ele>46.6</ele>
        <time>2021-03-26T16:03:01Z</time>
      </trkpt>
      <trkpt lat="46.08652" lon="-0.36221">
        <ele>47</ele>
        <time>2021-03-26T16:03:02Z</time>
      </trkpt>
      <trkpt lat="46.08648" lon="-0.36212">
        <ele>47.2</ele>
        <time>2021-03-26T16:03:03Z</time>
      </trkpt>
      <trkpt lat="46.08643" lon="-0.36203">
        <ele>47.2</ele>
        <time>2021-03-26T16:03:04Z</time>
      </trkpt>
      <trkpt lat="46.08638" lon="-0.36195">
        <ele>47.4</ele>
        <time>2021-03-26T16:03:05Z</time>
      </trkpt>
      <trkpt lat="46.08633" lon="-0.36186">
        <ele>47.6</ele>
        <time>2021-03-26T16:03:06Z</time>
      </trkpt>
      <trkpt lat="46.08628" lon="-0.36177">
        <ele>47.8</ele>
        <time>2021-03-26T16:03:07Z</time>
      </trkpt>
      <trkpt lat="46.08623" lon="-0.36168">
        <ele>48.2</ele>
        <time>2021-03-26T16:03:08Z</time>
      </trkpt>
      <trkpt lat="46.08618" lon="-0.36159">
        <ele>48.6</ele>
        <time>2021-03-26T16:03:09Z</time>
      </trkpt>
      <trkpt lat="46.08613" lon="-0.36149">
        <ele>48.8</ele>
        <time>2021-03-26T16:03:10Z</time>
      </trkpt>
      <trkpt lat="46.08608" lon="-0.36141">
        <ele>49</ele>
        <time>2021-03-26T16:03:11Z</time>
      </trkpt>
      <trkpt lat="46.08603" lon="-0.36132">
        <ele>49.2</ele>
        <time>2021-03-26T16:03:12Z</time>
      </trkpt>
      <trkpt lat="46.08599" lon="-0.36123">
        <ele>49.2</ele>
        <time>2021-03-26T16:03:13Z</time>
      </trkpt>
      <trkpt lat="46.08595" lon="-0.36115">
        <ele>49.4</ele>
        <time>2021-03-26T16:03:14Z</time>
      </trkpt>
      <trkpt lat="46.08592" lon="-0.36107">
        <ele>49.4</ele>
        <time>2021-03-26T16:03:15Z</time>
      </trkpt>
      <trkpt lat="46.08588" lon="-0.361">
        <ele>49.8</ele>
        <time>2021-03-26T16:03:16Z</time>
      </trkpt>
      <trkpt lat="46.08583" lon="-0.36094">
        <ele>50</ele>
        <time>2021-03-26T16:03:17Z</time>
      </trkpt>
      <trkpt lat="46.08578" lon="-0.36088">
        <ele>50.4</ele>
        <time>2021-03-26T16:03:18Z</time>
      </trkpt>
      <trkpt lat="46.08572" lon="-0.36083">
        <ele>51</ele>
        <time>2021-03-26T16:03:19Z</time>
      </trkpt>
      <trkpt lat="46.08565" lon="-0.3608">
        <ele>51.8</ele>
        <time>2021-03-26T16:03:20Z</time>
      </trkpt>
      <trkpt lat="46.08558" lon="-0.36079">
        <ele>52.4</ele>
        <time>2021-03-26T16:03:21Z</time>
      </trkpt>
      <trkpt lat="46.08551" lon="-0.36078">
        <ele>53</ele>
        <time>2021-03-26T16:03:22Z</time>
      </trkpt>
      <trkpt lat="46.08544" lon="-0.36077">
        <ele>53</ele>
        <time>2021-03-26T16:03:23Z</time>
      </trkpt>
      <trkpt lat="46.08537" lon="-0.36076">
        <ele>53.2</ele>
        <time>2021-03-26T16:03:24Z</time>
      </trkpt>
      <trkpt lat="46.0853" lon="-0.36074">
        <ele>53.4</ele>
        <time>2021-03-26T16:03:25Z</time>
      </trkpt>
      <trkpt lat="46.08523" lon="-0.36073">
        <ele>53.6</ele>
        <time>2021-03-26T16:03:26Z</time>
      </trkpt>
      <trkpt lat="46.08515" lon="-0.36072">
        <ele>54</ele>
        <time>2021-03-26T16:03:27Z</time>
      </trkpt>
      <trkpt lat="46.08509" lon="-0.3607">
        <ele>54.4</ele>
        <time>2021-03-26T16:03:28Z</time>
      </trkpt>
      <trkpt lat="46.08502" lon="-0.36068">
        <ele>54.8</ele>
        <time>2021-03-26T16:03:29Z</time>
      </trkpt>
      <trkpt lat="46.08495" lon="-0.36065">
        <ele>55</ele>
        <time>2021-03-26T16:03:30Z</time>
      </trkpt>
      <trkpt lat="46.08488" lon="-0.36061">
        <ele>55</ele>
        <time>2021-03-26T16:03:31Z</time>
      </trkpt>
      <trkpt lat="46.08481" lon="-0.36057">
        <ele>55.2</ele>
        <time>2021-03-26T16:03:32Z</time>
      </trkpt>
      <trkpt lat="46.08474" lon="-0.36052">
        <ele>55.4</ele>
        <time>2021-03-26T16:03:33Z</time>
      </trkpt>
      <trkpt lat="46.08467" lon="-0.36048">
        <ele>55.4</ele>
        <time>2021-03-26T16:03:34Z</time>
      </trkpt>
      <trkpt lat="46.0846" lon="-0.36044">
        <ele>55.4</ele>
        <time>2021-03-26T16:03:35Z</time>
      </trkpt>
      <trkpt lat="46.08454" lon="-0.3604">
        <ele>55.6</ele>
        <time>2021-03-26T16:03:36Z</time>
      </trkpt>
      <trkpt lat="46.08447" lon="-0.36036">
        <ele>55.6</ele>
        <time>2021-03-26T16:03:37Z</time>
      </trkpt>
      <trkpt lat="46.08441" lon="-0.36033">
        <ele>56</ele>
        <time>2021-03-26T16:03:38Z</time>
      </trkpt>
      <trkpt lat="46.08435" lon="-0.36031">
        <ele>56.2</ele>
        <time>2021-03-26T16:03:39Z</time>
      </trkpt>
      <trkpt lat="46.08429" lon="-0.36029">
        <ele>56.2</ele>
        <time>2021-03-26T16:03:40Z</time>
      </trkpt>
      <trkpt lat="46.08423" lon="-0.36028">
        <ele>56.4</ele>
        <time>2021-03-26T16:03:41Z</time>
      </trkpt>
      <trkpt lat="46.08417" lon="-0.36028">
        <ele>56.6</ele>
        <time>2021-03-26T16:03:42Z</time>
      </trkpt>
      <trkpt lat="46.08412" lon="-0.36027">
        <ele>56.8</ele>
        <time>2021-03-26T16:03:43Z</time>
      </trkpt>
      <trkpt lat="46.08406" lon="-0.36025">
        <ele>57</ele>
        <time>2021-03-26T16:03:44Z</time>
      </trkpt>
      <trkpt lat="46.084" lon="-0.36023">
        <ele>57.2</ele>
        <time>2021-03-26T16:03:45Z</time>
      </trkpt>
      <trkpt lat="46.08394" lon="-0.36019">
        <ele>57.2</ele>
        <time>2021-03-26T16:03:46Z</time>
      </trkpt>
      <trkpt lat="46.08389" lon="-0.36014">
        <ele>57.4</ele>
        <time>2021-03-26T16:03:47Z</time>
      </trkpt>
      <trkpt lat="46.08383" lon="-0.36008">
        <ele>57.4</ele>
        <time>2021-03-26T16:03:48Z</time>
      </trkpt>
      <trkpt lat="46.08378" lon="-0.36001">
        <ele>57.4</ele>
        <time>2021-03-26T16:03:49Z</time>
      </trkpt>
      <trkpt lat="46.08374" lon="-0.35994">
        <ele>57.4</ele>
        <time>2021-03-26T16:03:50Z</time>
      </trkpt>
      <trkpt lat="46.0837" lon="-0.35986">
        <ele>57.4</ele>
        <time>2021-03-26T16:03:51Z</time>
      </trkpt>
      <trkpt lat="46.08365" lon="-0.35978">
        <ele>57.4</ele>
        <time>2021-03-26T16:03:52Z</time>
      </trkpt>
      <trkpt lat="46.08361" lon="-0.35969">
        <ele>57.4</ele>
        <time>2021-03-26T16:03:53Z</time>
      </trkpt>
      <trkpt lat="46.08357" lon="-0.3596">
        <ele>57.4</ele>
        <time>2021-03-26T16:03:54Z</time>
      </trkpt>
      <trkpt lat="46.08353" lon="-0.35951">
        <ele>57.4</ele>
        <time>2021-03-26T16:03:55Z</time>
      </trkpt>
      <trkpt lat="46.08349" lon="-0.35942">
        <ele>57.4</ele>
        <time>2021-03-26T16:03:56Z</time>
      </trkpt>
      <trkpt lat="46.08345" lon="-0.35933">
        <ele>57.4</ele>
        <time>2021-03-26T16:03:57Z</time>
      </trkpt>
      <trkpt lat="46.08341" lon="-0.35923">
        <ele>57.4</ele>
        <time>2021-03-26T16:03:58Z</time>
      </trkpt>
      <trkpt lat="46.08337" lon="-0.35914">
        <ele>57.4</ele>
        <time>2021-03-26T16:03:59Z</time>
      </trkpt>
      <trkpt lat="46.08333" lon="-0.35906">
        <ele>57.4</ele>
        <time>2021-03-26T16:04:00Z</time>
      </trkpt>
      <trkpt lat="46.08329" lon="-0.35899">
        <ele>57.4</ele>
        <time>2021-03-26T16:04:01Z</time>
      </trkpt>
      <trkpt lat="46.08326" lon="-0.35892">
        <ele>57.4</ele>
        <time>2021-03-26T16:04:02Z</time>
      </trkpt>
      <trkpt lat="46.08322" lon="-0.35887">
        <ele>57.4</ele>
        <time>2021-03-26T16:04:03Z</time>
      </trkpt>
      <trkpt lat="46.08318" lon="-0.35882">
        <ele>57.4</ele>
        <time>2021-03-26T16:04:04Z</time>
      </trkpt>
      <trkpt lat="46.08315" lon="-0.35877">
        <ele>57.4</ele>
        <time>2021-03-26T16:04:05Z</time>
      </trkpt>
      <trkpt lat="46.08311" lon="-0.35873">
        <ele>57.4</ele>
        <time>2021-03-26T16:04:06Z</time>
      </trkpt>
      <trkpt lat="46.08308" lon="-0.35871">
        <ele>57.4</ele>
        <time>2021-03-26T16:04:07Z</time>
      </trkpt>
      <trkpt lat="46.08306" lon="-0.3587">
        <ele>57.6</ele>
        <time>2021-03-26T16:04:08Z</time>
      </trkpt>
      <trkpt lat="46.08306" lon="-0.3587">
        <ele>58</ele>
        <time>2021-03-26T16:04:09Z</time>
      </trkpt>
      <trkpt lat="46.08306" lon="-0.3587">
        <ele>58.4</ele>
        <time>2021-03-26T16:04:10Z</time>
      </trkpt>
      <trkpt lat="46.08306" lon="-0.3587">
        <ele>58.6</ele>
        <time>2021-03-26T16:04:11Z</time>
      </trkpt>
      <trkpt lat="46.08302" lon="-0.35871">
        <ele>62</ele>
        <time>2021-03-26T16:06:12Z</time>
      </trkpt>
      <trkpt lat="46.08299" lon="-0.35879">
        <ele>62</ele>
        <time>2021-03-26T16:06:14Z</time>
      </trkpt>
      <trkpt lat="46.08292" lon="-0.35906">
        <ele>61.8</ele>
        <time>2021-03-26T16:06:18Z</time>
      </trkpt>
      <trkpt lat="46.08287" lon="-0.35917">
        <ele>61.8</ele>
        <time>2021-03-26T16:06:20Z</time>
      </trkpt>
      <trkpt lat="46.08286" lon="-0.35922">
        <ele>61.8</ele>
        <time>2021-03-26T16:06:21Z</time>
      </trkpt>
      <trkpt lat="46.08285" lon="-0.35927">
        <ele>61.8</ele>
        <time>2021-03-26T16:06:22Z</time>
      </trkpt>
      <trkpt lat="46.08284" lon="-0.35932">
        <ele>61.8</ele>
        <time>2021-03-26T16:06:23Z</time>
      </trkpt>
      <trkpt lat="46.08283" lon="-0.35938">
        <ele>61.8</ele>
        <time>2021-03-26T16:06:24Z</time>
      </trkpt>
      <trkpt lat="46.08282" lon="-0.35946">
        <ele>61.8</ele>
        <time>2021-03-26T16:06:25Z</time>
      </trkpt>
      <trkpt lat="46.08278" lon="-0.35959">
        <ele>62</ele>
        <time>2021-03-26T16:06:27Z</time>
      </trkpt>
      <trkpt lat="46.08271" lon="-0.35971">
        <ele>62.2</ele>
        <time>2021-03-26T16:06:29Z</time>
      </trkpt>
      <trkpt lat="46.08266" lon="-0.35974">
        <ele>62.4</ele>
        <time>2021-03-26T16:06:30Z</time>
      </trkpt>
      <trkpt lat="46.0826" lon="-0.35977">
        <ele>62.4</ele>
        <time>2021-03-26T16:06:31Z</time>
      </trkpt>
      <trkpt lat="46.08255" lon="-0.35979">
        <ele>62.6</ele>
        <time>2021-03-26T16:06:32Z</time>
      </trkpt>
      <trkpt lat="46.08248" lon="-0.35981">
        <ele>62.6</ele>
        <time>2021-03-26T16:06:33Z</time>
      </trkpt>
      <trkpt lat="46.08243" lon="-0.35983">
        <ele>62.8</ele>
        <time>2021-03-26T16:06:34Z</time>
      </trkpt>
      <trkpt lat="46.08234" lon="-0.35987">
        <ele>62.8</ele>
        <time>2021-03-26T16:06:36Z</time>
      </trkpt>
      <trkpt lat="46.0823" lon="-0.35989">
        <ele>62.8</ele>
        <time>2021-03-26T16:06:37Z</time>
      </trkpt>
      <trkpt lat="46.08225" lon="-0.35991">
        <ele>63</ele>
        <time>2021-03-26T16:06:38Z</time>
      </trkpt>
      <trkpt lat="46.0822" lon="-0.35993">
        <ele>63</ele>
        <time>2021-03-26T16:06:39Z</time>
      </trkpt>
      <trkpt lat="46.08209" lon="-0.35994">
        <ele>63</ele>
        <time>2021-03-26T16:06:41Z</time>
      </trkpt>
      <trkpt lat="46.08203" lon="-0.35993">
        <ele>63</ele>
        <time>2021-03-26T16:06:42Z</time>
      </trkpt>
      <trkpt lat="46.08182" lon="-0.35993">
        <ele>63.8</ele>
        <time>2021-03-26T16:06:46Z</time>
      </trkpt>
      <trkpt lat="46.08177" lon="-0.35995">
        <ele>63.8</ele>
        <time>2021-03-26T16:06:47Z</time>
      </trkpt>
      <trkpt lat="46.08173" lon="-0.35998">
        <ele>64</ele>
        <time>2021-03-26T16:06:48Z</time>
      </trkpt>
      <trkpt lat="46.08168" lon="-0.35999">
        <ele>64</ele>
        <time>2021-03-26T16:06:49Z</time>
      </trkpt>
      <trkpt lat="46.0816" lon="-0.36004">
        <ele>64.4</ele>
        <time>2021-03-26T16:06:51Z</time>
      </trkpt>
      <trkpt lat="46.08156" lon="-0.36008">
        <ele>64.6</ele>
        <time>2021-03-26T16:06:52Z</time>
      </trkpt>
      <trkpt lat="46.08151" lon="-0.36013">
        <ele>65.4</ele>
        <time>2021-03-26T16:06:53Z</time>
      </trkpt>
      <trkpt lat="46.08143" lon="-0.3602">
        <ele>66</ele>
        <time>2021-03-26T16:06:55Z</time>
      </trkpt>
      <trkpt lat="46.0814" lon="-0.36025">
        <ele>66</ele>
        <time>2021-03-26T16:06:56Z</time>
      </trkpt>
      <trkpt lat="46.08137" lon="-0.36029">
        <ele>66.4</ele>
        <time>2021-03-26T16:06:57Z</time>
      </trkpt>
      <trkpt lat="46.08134" lon="-0.36033">
        <ele>66.8</ele>
        <time>2021-03-26T16:06:58Z</time>
      </trkpt>
      <trkpt lat="46.08132" lon="-0.36037">
        <ele>67</ele>
        <time>2021-03-26T16:06:59Z</time>
      </trkpt>
      <trkpt lat="46.0813" lon="-0.36038">
        <ele>67.2</ele>
        <time>2021-03-26T16:07:00Z</time>
      </trkpt>
      <trkpt lat="46.08129" lon="-0.36039">
        <ele>67.4</ele>
        <time>2021-03-26T16:07:01Z</time>
      </trkpt>
      <trkpt lat="46.08129" lon="-0.36039">
        <ele>67.4</ele>
        <time>2021-03-26T16:07:02Z</time>
      </trkpt>
      <trkpt lat="46.08129" lon="-0.36039">
        <ele>67.8</ele>
        <time>2021-03-26T16:07:03Z</time>
      </trkpt>
      <trkpt lat="46.08124" lon="-0.36035">
        <ele>69.2</ele>
        <time>2021-03-26T16:07:11Z</time>
      </trkpt>
      <trkpt lat="46.08121" lon="-0.36032">
        <ele>69.2</ele>
        <time>2021-03-26T16:07:12Z</time>
      </trkpt>
      <trkpt lat="46.08119" lon="-0.36028">
        <ele>69.2</ele>
        <time>2021-03-26T16:07:13Z</time>
      </trkpt>
      <trkpt lat="46.08116" lon="-0.36023">
        <ele>69.2</ele>
        <time>2021-03-26T16:07:14Z</time>
      </trkpt>
      <trkpt lat="46.08112" lon="-0.36019">
        <ele>69.2</ele>
        <time>2021-03-26T16:07:15Z</time>
      </trkpt>
      <trkpt lat="46.08108" lon="-0.36016">
        <ele>69.2</ele>
        <time>2021-03-26T16:07:16Z</time>
      </trkpt>
      <trkpt lat="46.08105" lon="-0.36014">
        <ele>69.2</ele>
        <time>2021-03-26T16:07:17Z</time>
      </trkpt>
      <trkpt lat="46.08103" lon="-0.36012">
        <ele>69.2</ele>
        <time>2021-03-26T16:07:18Z</time>
      </trkpt>
      <trkpt lat="46.08101" lon="-0.36008">
        <ele>69.2</ele>
        <time>2021-03-26T16:07:19Z</time>
      </trkpt>
      <trkpt lat="46.08101" lon="-0.36003">
        <ele>69.4</ele>
        <time>2021-03-26T16:07:20Z</time>
      </trkpt>
      <trkpt lat="46.08102" lon="-0.35997">
        <ele>69.4</ele>
        <time>2021-03-26T16:07:21Z</time>
      </trkpt>
      <trkpt lat="46.08103" lon="-0.35991">
        <ele>69.4</ele>
        <time>2021-03-26T16:07:22Z</time>
      </trkpt>
      <trkpt lat="46.08104" lon="-0.35984">
        <ele>69.4</ele>
        <time>2021-03-26T16:07:23Z</time>
      </trkpt>
      <trkpt lat="46.08106" lon="-0.35977">
        <ele>69.4</ele>
        <time>2021-03-26T16:07:24Z</time>
      </trkpt>
      <trkpt lat="46.08106" lon="-0.3597">
        <ele>69.4</ele>
        <time>2021-03-26T16:07:25Z</time>
      </trkpt>
      <trkpt lat="46.08107" lon="-0.35964">
        <ele>69.4</ele>
        <time>2021-03-26T16:07:26Z</time>
      </trkpt>
      <trkpt lat="46.08107" lon="-0.35959">
        <ele>69.6</ele>
        <time>2021-03-26T16:07:27Z</time>
      </trkpt>
      <trkpt lat="46.08107" lon="-0.35955">
        <ele>69.6</ele>
        <time>2021-03-26T16:07:28Z</time>
      </trkpt>
      <trkpt lat="46.08108" lon="-0.35953">
        <ele>69.6</ele>
        <time>2021-03-26T16:07:29Z</time>
      </trkpt>
      <trkpt lat="46.08109" lon="-0.3595">
        <ele>69.6</ele>
        <time>2021-03-26T16:07:30Z</time>
      </trkpt>
      <trkpt lat="46.0811" lon="-0.35949">
        <ele>69.6</ele>
        <time>2021-03-26T16:07:31Z</time>
      </trkpt>
      <trkpt lat="46.08112" lon="-0.35947">
        <ele>69.8</ele>
        <time>2021-03-26T16:07:32Z</time>
      </trkpt>
      <trkpt lat="46.08113" lon="-0.35945">
        <ele>69.8</ele>
        <time>2021-03-26T16:07:33Z</time>
      </trkpt>
      <trkpt lat="46.08114" lon="-0.35943">
        <ele>69.8</ele>
        <time>2021-03-26T16:07:34Z</time>
      </trkpt>
      <trkpt lat="46.08115" lon="-0.3594">
        <ele>69.8</ele>
        <time>2021-03-26T16:07:35Z</time>
      </trkpt>
      <trkpt lat="46.08116" lon="-0.35937">
        <ele>69.8</ele>
        <time>2021-03-26T16:07:36Z</time>
      </trkpt>
      <trkpt lat="46.08116" lon="-0.35933">
        <ele>69.8</ele>
        <time>2021-03-26T16:07:37Z</time>
      </trkpt>
      <trkpt lat="46.08117" lon="-0.35929">
        <ele>69.8</ele>
        <time>2021-03-26T16:07:38Z</time>
      </trkpt>
      <trkpt lat="46.08118" lon="-0.35925">
        <ele>69.8</ele>
        <time>2021-03-26T16:07:39Z</time>
      </trkpt>
      <trkpt lat="46.08121" lon="-0.35919">
        <ele>69.8</ele>
        <time>2021-03-26T16:07:41Z</time>
      </trkpt>
      <trkpt lat="46.08121" lon="-0.35917">
        <ele>69.8</ele>
        <time>2021-03-26T16:07:42Z</time>
      </trkpt>
      <trkpt lat="46.08122" lon="-0.35914">
        <ele>69.8</ele>
        <time>2021-03-26T16:07:43Z</time>
      </trkpt>
      <trkpt lat="46.08122" lon="-0.35912">
        <ele>70</ele>
        <time>2021-03-26T16:07:44Z</time>
      </trkpt>
      <trkpt lat="46.08121" lon="-0.35908">
        <ele>70</ele>
        <time>2021-03-26T16:07:45Z</time>
      </trkpt>
      <trkpt lat="46.0812" lon="-0.35905">
        <ele>70</ele>
        <time>2021-03-26T16:07:46Z</time>
      </trkpt>
      <trkpt lat="46.0812" lon="-0.35903">
        <ele>70</ele>
        <time>2021-03-26T16:07:47Z</time>
      </trkpt>
      <trkpt lat="46.0812" lon="-0.35901">
        <ele>70</ele>
        <time>2021-03-26T16:07:48Z</time>
      </trkpt>
      <trkpt lat="46.08119" lon="-0.35898">
        <ele>70</ele>
        <time>2021-03-26T16:07:49Z</time>
      </trkpt>
      <trkpt lat="46.0812" lon="-0.35894">
        <ele>70</ele>
        <time>2021-03-26T16:07:50Z</time>
      </trkpt>
      <trkpt lat="46.08121" lon="-0.35889">
        <ele>70</ele>
        <time>2021-03-26T16:07:51Z</time>
      </trkpt>
      <trkpt lat="46.08123" lon="-0.35885">
        <ele>70</ele>
        <time>2021-03-26T16:07:52Z</time>
      </trkpt>
      <trkpt lat="46.08125" lon="-0.35883">
        <ele>70</ele>
        <time>2021-03-26T16:07:53Z</time>
      </trkpt>
      <trkpt lat="46.08131" lon="-0.35878">
        <ele>70</ele>
        <time>2021-03-26T16:07:55Z</time>
      </trkpt>
      <trkpt lat="46.08134" lon="-0.35875">
        <ele>70</ele>
        <time>2021-03-26T16:07:56Z</time>
      </trkpt>
      <trkpt lat="46.08138" lon="-0.35872">
        <ele>70</ele>
        <time>2021-03-26T16:07:57Z</time>
      </trkpt>
      <trkpt lat="46.08141" lon="-0.35869">
        <ele>70</ele>
        <time>2021-03-26T16:07:58Z</time>
      </trkpt>
      <trkpt lat="46.08147" lon="-0.35863">
        <ele>70</ele>
        <time>2021-03-26T16:08:00Z</time>
      </trkpt>
      <trkpt lat="46.08149" lon="-0.35861">
        <ele>70</ele>
        <time>2021-03-26T16:08:01Z</time>
      </trkpt>
      <trkpt lat="46.08152" lon="-0.35859">
        <ele>69.6</ele>
        <time>2021-03-26T16:08:02Z</time>
      </trkpt>
      <trkpt lat="46.08155" lon="-0.35856">
        <ele>69.4</ele>
        <time>2021-03-26T16:08:03Z</time>
      </trkpt>
      <trkpt lat="46.08158" lon="-0.35854">
        <ele>69.4</ele>
        <time>2021-03-26T16:08:04Z</time>
      </trkpt>
      <trkpt lat="46.08161" lon="-0.35852">
        <ele>69.2</ele>
        <time>2021-03-26T16:08:05Z</time>
      </trkpt>
      <trkpt lat="46.08164" lon="-0.35852">
        <ele>69</ele>
        <time>2021-03-26T16:08:06Z</time>
      </trkpt>
      <trkpt lat="46.08167" lon="-0.35851">
        <ele>68.8</ele>
        <time>2021-03-26T16:08:07Z</time>
      </trkpt>
      <trkpt lat="46.0817" lon="-0.35849">
        <ele>68.6</ele>
        <time>2021-03-26T16:08:08Z</time>
      </trkpt>
      <trkpt lat="46.08171" lon="-0.35847">
        <ele>68.6</ele>
        <time>2021-03-26T16:08:09Z</time>
      </trkpt>
      <trkpt lat="46.08173" lon="-0.35845">
        <ele>68.4</ele>
        <time>2021-03-26T16:08:10Z</time>
      </trkpt>
      <trkpt lat="46.08176" lon="-0.35845">
        <ele>68.4</ele>
        <time>2021-03-26T16:08:11Z</time>
      </trkpt>
      <trkpt lat="46.0818" lon="-0.35844">
        <ele>68.2</ele>
        <time>2021-03-26T16:08:12Z</time>
      </trkpt>
      <trkpt lat="46.08185" lon="-0.35845">
        <ele>68.2</ele>
        <time>2021-03-26T16:08:13Z</time>
      </trkpt>
      <trkpt lat="46.08189" lon="-0.35845">
        <ele>68</ele>
        <time>2021-03-26T16:08:14Z</time>
      </trkpt>
      <trkpt lat="46.08194" lon="-0.35846">
        <ele>68</ele>
        <time>2021-03-26T16:08:15Z</time>
      </trkpt>
      <trkpt lat="46.08198" lon="-0.35845">
        <ele>67.8</ele>
        <time>2021-03-26T16:08:16Z</time>
      </trkpt>
      <trkpt lat="46.08202" lon="-0.35843">
        <ele>67.6</ele>
        <time>2021-03-26T16:08:17Z</time>
      </trkpt>
      <trkpt lat="46.08205" lon="-0.35841">
        <ele>67.6</ele>
        <time>2021-03-26T16:08:18Z</time>
      </trkpt>
      <trkpt lat="46.08209" lon="-0.35839">
        <ele>67.4</ele>
        <time>2021-03-26T16:08:19Z</time>
      </trkpt>
      <trkpt lat="46.08209" lon="-0.35838">
        <ele>67.4</ele>
        <time>2021-03-26T16:08:20Z</time>
      </trkpt>
      <trkpt lat="46.08209" lon="-0.35838">
        <ele>67.2</ele>
        <time>2021-03-26T16:08:21Z</time>
      </trkpt>
      <trkpt lat="46.08209" lon="-0.35838">
        <ele>67</ele>
        <time>2021-03-26T16:08:22Z</time>
      </trkpt>
      <trkpt lat="46.08206" lon="-0.35834">
        <ele>66.2</ele>
        <time>2021-03-26T16:09:03Z</time>
      </trkpt>
      <trkpt lat="46.08204" lon="-0.35831">
        <ele>66.2</ele>
        <time>2021-03-26T16:09:04Z</time>
      </trkpt>
      <trkpt lat="46.08201" lon="-0.35827">
        <ele>66.2</ele>
        <time>2021-03-26T16:09:05Z</time>
      </trkpt>
      <trkpt lat="46.08198" lon="-0.35823">
        <ele>66.2</ele>
        <time>2021-03-26T16:09:06Z</time>
      </trkpt>
      <trkpt lat="46.0819" lon="-0.35813">
        <ele>66.2</ele>
        <time>2021-03-26T16:09:08Z</time>
      </trkpt>
      <trkpt lat="46.08182" lon="-0.35802">
        <ele>66.2</ele>
        <time>2021-03-26T16:09:10Z</time>
      </trkpt>
      <trkpt lat="46.08163" lon="-0.35778">
        <ele>66.2</ele>
        <time>2021-03-26T16:09:14Z</time>
      </trkpt>
      <trkpt lat="46.08158" lon="-0.35772">
        <ele>66.2</ele>
        <time>2021-03-26T16:09:15Z</time>
      </trkpt>
      <trkpt lat="46.08153" lon="-0.35766">
        <ele>66.2</ele>
        <time>2021-03-26T16:09:16Z</time>
      </trkpt>
      <trkpt lat="46.08148" lon="-0.3576">
        <ele>66.2</ele>
        <time>2021-03-26T16:09:17Z</time>
      </trkpt>
      <trkpt lat="46.08143" lon="-0.35754">
        <ele>66.2</ele>
        <time>2021-03-26T16:09:18Z</time>
      </trkpt>
      <trkpt lat="46.08129" lon="-0.35735">
        <ele>66.6</ele>
        <time>2021-03-26T16:09:21Z</time>
      </trkpt>
      <trkpt lat="46.08123" lon="-0.35722">
        <ele>67</ele>
        <time>2021-03-26T16:09:23Z</time>
      </trkpt>
      <trkpt lat="46.08119" lon="-0.35715">
        <ele>67.2</ele>
        <time>2021-03-26T16:09:24Z</time>
      </trkpt>
      <trkpt lat="46.0811" lon="-0.357">
        <ele>67.4</ele>
        <time>2021-03-26T16:09:26Z</time>
      </trkpt>
      <trkpt lat="46.08083" lon="-0.35662">
        <ele>68</ele>
        <time>2021-03-26T16:09:31Z</time>
      </trkpt>
      <trkpt lat="46.08079" lon="-0.35654">
        <ele>68.2</ele>
        <time>2021-03-26T16:09:32Z</time>
      </trkpt>
      <trkpt lat="46.08074" lon="-0.35648">
        <ele>68.2</ele>
        <time>2021-03-26T16:09:33Z</time>
      </trkpt>
      <trkpt lat="46.0807" lon="-0.35642">
        <ele>68.4</ele>
        <time>2021-03-26T16:09:34Z</time>
      </trkpt>
      <trkpt lat="46.08066" lon="-0.35637">
        <ele>68.4</ele>
        <time>2021-03-26T16:09:35Z</time>
      </trkpt>
      <trkpt lat="46.08063" lon="-0.35635">
        <ele>68.6</ele>
        <time>2021-03-26T16:09:36Z</time>
      </trkpt>
      <trkpt lat="46.08061" lon="-0.35633">
        <ele>68.6</ele>
        <time>2021-03-26T16:09:37Z</time>
      </trkpt>
      <trkpt lat="46.08059" lon="-0.35632">
        <ele>68.8</ele>
        <time>2021-03-26T16:09:38Z</time>
      </trkpt>
      <trkpt lat="46.08058" lon="-0.35631">
        <ele>68.8</ele>
        <time>2021-03-26T16:09:39Z</time>
      </trkpt>
      <trkpt lat="46.08057" lon="-0.35631">
        <ele>69</ele>
        <time>2021-03-26T16:09:40Z</time>
      </trkpt>
      <trkpt lat="46.08057" lon="-0.35631">
        <ele>69.4</ele>
        <time>2021-03-26T16:09:41Z</time>
      </trkpt>
      <trkpt lat="46.08057" lon="-0.35631">
        <ele>69.6</ele>
        <time>2021-03-26T16:09:42Z</time>
      </trkpt>
      <trkpt lat="46.08057" lon="-0.35631">
        <ele>70</ele>
        <time>2021-03-26T16:09:43Z</time>
      </trkpt>
      <trkpt lat="46.08054" lon="-0.35627">
        <ele>70.8</ele>
        <time>2021-03-26T16:14:27Z</time>
      </trkpt>
      <trkpt lat="46.08051" lon="-0.35623">
        <ele>70.8</ele>
        <time>2021-03-26T16:14:28Z</time>
      </trkpt>
      <trkpt lat="46.08048" lon="-0.3562">
        <ele>70.8</ele>
        <time>2021-03-26T16:14:29Z</time>
      </trkpt>
      <trkpt lat="46.08044" lon="-0.35616">
        <ele>70.8</ele>
        <time>2021-03-26T16:14:30Z</time>
      </trkpt>
      <trkpt lat="46.0804" lon="-0.35612">
        <ele>70.8</ele>
        <time>2021-03-26T16:14:31Z</time>
      </trkpt>
      <trkpt lat="46.08032" lon="-0.35602">
        <ele>70.8</ele>
        <time>2021-03-26T16:14:33Z</time>
      </trkpt>
      <trkpt lat="46.08029" lon="-0.35598">
        <ele>70.8</ele>
        <time>2021-03-26T16:14:34Z</time>
      </trkpt>
      <trkpt lat="46.08026" lon="-0.35594">
        <ele>71</ele>
        <time>2021-03-26T16:14:35Z</time>
      </trkpt>
      <trkpt lat="46.08024" lon="-0.35589">
        <ele>71</ele>
        <time>2021-03-26T16:14:36Z</time>
      </trkpt>
      <trkpt lat="46.0802" lon="-0.35583">
        <ele>71</ele>
        <time>2021-03-26T16:14:37Z</time>
      </trkpt>
      <trkpt lat="46.08006" lon="-0.35562">
        <ele>71</ele>
        <time>2021-03-26T16:14:40Z</time>
      </trkpt>
      <trkpt lat="46.08002" lon="-0.35555">
        <ele>71</ele>
        <time>2021-03-26T16:14:41Z</time>
      </trkpt>
      <trkpt lat="46.07987" lon="-0.35534">
        <ele>71.2</ele>
        <time>2021-03-26T16:14:44Z</time>
      </trkpt>
      <trkpt lat="46.07977" lon="-0.35522">
        <ele>71.2</ele>
        <time>2021-03-26T16:14:46Z</time>
      </trkpt>
      <trkpt lat="46.07961" lon="-0.35505">
        <ele>71.6</ele>
        <time>2021-03-26T16:14:49Z</time>
      </trkpt>
      <trkpt lat="46.07951" lon="-0.35494">
        <ele>71.8</ele>
        <time>2021-03-26T16:14:51Z</time>
      </trkpt>
      <trkpt lat="46.0794" lon="-0.35485">
        <ele>72</ele>
        <time>2021-03-26T16:14:53Z</time>
      </trkpt>
      <trkpt lat="46.07936" lon="-0.3548">
        <ele>72</ele>
        <time>2021-03-26T16:14:54Z</time>
      </trkpt>
      <trkpt lat="46.07933" lon="-0.35475">
        <ele>72</ele>
        <time>2021-03-26T16:14:55Z</time>
      </trkpt>
      <trkpt lat="46.07929" lon="-0.35469">
        <ele>72</ele>
        <time>2021-03-26T16:14:56Z</time>
      </trkpt>
      <trkpt lat="46.07922" lon="-0.35457">
        <ele>72.2</ele>
        <time>2021-03-26T16:14:58Z</time>
      </trkpt>
      <trkpt lat="46.07914" lon="-0.35447">
        <ele>72.4</ele>
        <time>2021-03-26T16:15:00Z</time>
      </trkpt>
      <trkpt lat="46.07906" lon="-0.3544">
        <ele>72.4</ele>
        <time>2021-03-26T16:15:02Z</time>
      </trkpt>
      <trkpt lat="46.07903" lon="-0.35438">
        <ele>72.8</ele>
        <time>2021-03-26T16:15:03Z</time>
      </trkpt>
      <trkpt lat="46.079" lon="-0.35435">
        <ele>73.2</ele>
        <time>2021-03-26T16:15:04Z</time>
      </trkpt>
      <trkpt lat="46.07896" lon="-0.35431">
        <ele>73.4</ele>
        <time>2021-03-26T16:15:05Z</time>
      </trkpt>
      <trkpt lat="46.07893" lon="-0.35426">
        <ele>73.4</ele>
        <time>2021-03-26T16:15:06Z</time>
      </trkpt>
      <trkpt lat="46.07885" lon="-0.3541">
        <ele>74</ele>
        <time>2021-03-26T16:15:09Z</time>
      </trkpt>
      <trkpt lat="46.07882" lon="-0.35406">
        <ele>74</ele>
        <time>2021-03-26T16:15:10Z</time>
      </trkpt>
      <trkpt lat="46.07873" lon="-0.35398">
        <ele>74</ele>
        <time>2021-03-26T16:15:12Z</time>
      </trkpt>
      <trkpt lat="46.07868" lon="-0.35395">
        <ele>74.2</ele>
        <time>2021-03-26T16:15:13Z</time>
      </trkpt>
      <trkpt lat="46.07862" lon="-0.35391">
        <ele>74.2</ele>
        <time>2021-03-26T16:15:14Z</time>
      </trkpt>
      <trkpt lat="46.07856" lon="-0.35387">
        <ele>74.2</ele>
        <time>2021-03-26T16:15:15Z</time>
      </trkpt>
      <trkpt lat="46.07851" lon="-0.35383">
        <ele>74.2</ele>
        <time>2021-03-26T16:15:16Z</time>
      </trkpt>
      <trkpt lat="46.07845" lon="-0.35378">
        <ele>74.2</ele>
        <time>2021-03-26T16:15:17Z</time>
      </trkpt>
      <trkpt lat="46.0784" lon="-0.35371">
        <ele>74.2</ele>
        <time>2021-03-26T16:15:18Z</time>
      </trkpt>
      <trkpt lat="46.07834" lon="-0.35365">
        <ele>74.2</ele>
        <time>2021-03-26T16:15:19Z</time>
      </trkpt>
      <trkpt lat="46.07819" lon="-0.35345">
        <ele>74.2</ele>
        <time>2021-03-26T16:15:22Z</time>
      </trkpt>
      <trkpt lat="46.07815" lon="-0.35338">
        <ele>74.2</ele>
        <time>2021-03-26T16:15:23Z</time>
      </trkpt>
      <trkpt lat="46.07807" lon="-0.35325">
        <ele>74.2</ele>
        <time>2021-03-26T16:15:25Z</time>
      </trkpt>
      <trkpt lat="46.07802" lon="-0.35312">
        <ele>74.4</ele>
        <time>2021-03-26T16:15:27Z</time>
      </trkpt>
      <trkpt lat="46.07799" lon="-0.35308">
        <ele>74.6</ele>
        <time>2021-03-26T16:15:28Z</time>
      </trkpt>
      <trkpt lat="46.07797" lon="-0.35304">
        <ele>74.6</ele>
        <time>2021-03-26T16:15:29Z</time>
      </trkpt>
      <trkpt lat="46.07796" lon="-0.35301">
        <ele>74.6</ele>
        <time>2021-03-26T16:15:30Z</time>
      </trkpt>
      <trkpt lat="46.07794" lon="-0.353">
        <ele>74.8</ele>
        <time>2021-03-26T16:15:31Z</time>
      </trkpt>
      <trkpt lat="46.07792" lon="-0.35299">
        <ele>74.8</ele>
        <time>2021-03-26T16:15:32Z</time>
      </trkpt>
      <trkpt lat="46.0779" lon="-0.35299">
        <ele>74.8</ele>
        <time>2021-03-26T16:15:33Z</time>
      </trkpt>
      <trkpt lat="46.07789" lon="-0.35299">
        <ele>75</ele>
        <time>2021-03-26T16:15:34Z</time>
      </trkpt>
      <trkpt lat="46.07788" lon="-0.353">
        <ele>75</ele>
        <time>2021-03-26T16:15:35Z</time>
      </trkpt>
      <trkpt lat="46.07788" lon="-0.353">
        <ele>75</ele>
        <time>2021-03-26T16:15:36Z</time>
      </trkpt>
      <trkpt lat="46.07788" lon="-0.353">
        <ele>75.2</ele>
        <time>2021-03-26T16:15:37Z</time>
      </trkpt>
      <trkpt lat="46.07785" lon="-0.35307">
        <ele>75.8</ele>
        <time>2021-03-26T16:16:23Z</time>
      </trkpt>
      <trkpt lat="46.07784" lon="-0.35312">
        <ele>75.8</ele>
        <time>2021-03-26T16:16:24Z</time>
      </trkpt>
      <trkpt lat="46.07776" lon="-0.35342">
        <ele>75.8</ele>
        <time>2021-03-26T16:16:28Z</time>
      </trkpt>
      <trkpt lat="46.07764" lon="-0.35394">
        <ele>74.8</ele>
        <time>2021-03-26T16:16:33Z</time>
      </trkpt>
      <trkpt lat="46.0776" lon="-0.35417">
        <ele>74.4</ele>
        <time>2021-03-26T16:16:35Z</time>
      </trkpt>
      <trkpt lat="46.07757" lon="-0.35428">
        <ele>73.8</ele>
        <time>2021-03-26T16:16:36Z</time>
      </trkpt>
      <trkpt lat="46.07752" lon="-0.3545">
        <ele>73.4</ele>
        <time>2021-03-26T16:16:38Z</time>
      </trkpt>
      <trkpt lat="46.07742" lon="-0.35496">
        <ele>72.6</ele>
        <time>2021-03-26T16:16:42Z</time>
      </trkpt>
      <trkpt lat="46.07733" lon="-0.35531">
        <ele>72</ele>
        <time>2021-03-26T16:16:45Z</time>
      </trkpt>
      <trkpt lat="46.0773" lon="-0.35543">
        <ele>72</ele>
        <time>2021-03-26T16:16:46Z</time>
      </trkpt>
      <trkpt lat="46.07725" lon="-0.35566">
        <ele>71.6</ele>
        <time>2021-03-26T16:16:48Z</time>
      </trkpt>
      <trkpt lat="46.07722" lon="-0.35577">
        <ele>71.4</ele>
        <time>2021-03-26T16:16:49Z</time>
      </trkpt>
      <trkpt lat="46.0772" lon="-0.35588">
        <ele>71.4</ele>
        <time>2021-03-26T16:16:50Z</time>
      </trkpt>
      <trkpt lat="46.07711" lon="-0.35623">
        <ele>71</ele>
        <time>2021-03-26T16:16:53Z</time>
      </trkpt>
      <trkpt lat="46.07702" lon="-0.35666">
        <ele>70.4</ele>
        <time>2021-03-26T16:16:57Z</time>
      </trkpt>
      <trkpt lat="46.07699" lon="-0.35676">
        <ele>70.2</ele>
        <time>2021-03-26T16:16:58Z</time>
      </trkpt>
      <trkpt lat="46.07695" lon="-0.35696">
        <ele>69.8</ele>
        <time>2021-03-26T16:17:00Z</time>
      </trkpt>
      <trkpt lat="46.07693" lon="-0.35705">
        <ele>69.6</ele>
        <time>2021-03-26T16:17:01Z</time>
      </trkpt>
      <trkpt lat="46.07691" lon="-0.35714">
        <ele>69.2</ele>
        <time>2021-03-26T16:17:02Z</time>
      </trkpt>
      <trkpt lat="46.07689" lon="-0.35723">
        <ele>69.2</ele>
        <time>2021-03-26T16:17:03Z</time>
      </trkpt>
      <trkpt lat="46.07687" lon="-0.35732">
        <ele>69</ele>
        <time>2021-03-26T16:17:04Z</time>
      </trkpt>
      <trkpt lat="46.07685" lon="-0.3574">
        <ele>69</ele>
        <time>2021-03-26T16:17:05Z</time>
      </trkpt>
      <trkpt lat="46.07684" lon="-0.35749">
        <ele>69</ele>
        <time>2021-03-26T16:17:06Z</time>
      </trkpt>
      <trkpt lat="46.07674" lon="-0.358">
        <ele>68</ele>
        <time>2021-03-26T16:17:11Z</time>
      </trkpt>
      <trkpt lat="46.07671" lon="-0.35819">
        <ele>67.8</ele>
        <time>2021-03-26T16:17:13Z</time>
      </trkpt>
      <trkpt lat="46.07669" lon="-0.35828">
        <ele>67.8</ele>
        <time>2021-03-26T16:17:14Z</time>
      </trkpt>
      <trkpt lat="46.07668" lon="-0.35835">
        <ele>67.4</ele>
        <time>2021-03-26T16:17:15Z</time>
      </trkpt>
      <trkpt lat="46.07667" lon="-0.35838">
        <ele>67.4</ele>
        <time>2021-03-26T16:17:16Z</time>
      </trkpt>
      <trkpt lat="46.07667" lon="-0.35838">
        <ele>67.4</ele>
        <time>2021-03-26T16:17:17Z</time>
      </trkpt>
      <trkpt lat="46.07667" lon="-0.35838">
        <ele>67.2</ele>
        <time>2021-03-26T16:17:18Z</time>
      </trkpt>
      <trkpt lat="46.07659" lon="-0.35834">
        <ele>68.2</ele>
        <time>2021-03-26T16:17:31Z</time>
      </trkpt>
      <trkpt lat="46.07656" lon="-0.35832">
        <ele>68.2</ele>
        <time>2021-03-26T16:17:32Z</time>
      </trkpt>
      <trkpt lat="46.07635" lon="-0.3582">
        <ele>68.2</ele>
        <time>2021-03-26T16:17:37Z</time>
      </trkpt>
      <trkpt lat="46.07633" lon="-0.35817">
        <ele>68</ele>
        <time>2021-03-26T16:17:38Z</time>
      </trkpt>
      <trkpt lat="46.07631" lon="-0.35815">
        <ele>68</ele>
        <time>2021-03-26T16:17:39Z</time>
      </trkpt>
      <trkpt lat="46.07627" lon="-0.35812">
        <ele>68</ele>
        <time>2021-03-26T16:17:40Z</time>
      </trkpt>
      <trkpt lat="46.07623" lon="-0.3581">
        <ele>68</ele>
        <time>2021-03-26T16:17:41Z</time>
      </trkpt>
      <trkpt lat="46.07612" lon="-0.35805">
        <ele>67.6</ele>
        <time>2021-03-26T16:17:43Z</time>
      </trkpt>
      <trkpt lat="46.07605" lon="-0.35802">
        <ele>67.4</ele>
        <time>2021-03-26T16:17:44Z</time>
      </trkpt>
      <trkpt lat="46.07599" lon="-0.35798">
        <ele>67.4</ele>
        <time>2021-03-26T16:17:45Z</time>
      </trkpt>
      <trkpt lat="46.07592" lon="-0.35793">
        <ele>67.2</ele>
        <time>2021-03-26T16:17:46Z</time>
      </trkpt>
      <trkpt lat="46.07586" lon="-0.35789">
        <ele>67.2</ele>
        <time>2021-03-26T16:17:47Z</time>
      </trkpt>
      <trkpt lat="46.07581" lon="-0.35786">
        <ele>67</ele>
        <time>2021-03-26T16:17:48Z</time>
      </trkpt>
      <trkpt lat="46.07574" lon="-0.35783">
        <ele>66.8</ele>
        <time>2021-03-26T16:17:49Z</time>
      </trkpt>
      <trkpt lat="46.07555" lon="-0.35775">
        <ele>65.2</ele>
        <time>2021-03-26T16:17:52Z</time>
      </trkpt>
      <trkpt lat="46.07548" lon="-0.35773">
        <ele>64.4</ele>
        <time>2021-03-26T16:17:53Z</time>
      </trkpt>
      <trkpt lat="46.07541" lon="-0.3577">
        <ele>63.8</ele>
        <time>2021-03-26T16:17:54Z</time>
      </trkpt>
      <trkpt lat="46.07502" lon="-0.35754">
        <ele>62.8</ele>
        <time>2021-03-26T16:17:59Z</time>
      </trkpt>
      <trkpt lat="46.07494" lon="-0.35751">
        <ele>62.6</ele>
        <time>2021-03-26T16:18:00Z</time>
      </trkpt>
      <trkpt lat="46.07459" lon="-0.35732">
        <ele>61.8</ele>
        <time>2021-03-26T16:18:05Z</time>
      </trkpt>
      <trkpt lat="46.07454" lon="-0.35729">
        <ele>61.6</ele>
        <time>2021-03-26T16:18:06Z</time>
      </trkpt>
      <trkpt lat="46.07448" lon="-0.35726">
        <ele>61.2</ele>
        <time>2021-03-26T16:18:07Z</time>
      </trkpt>
      <trkpt lat="46.0744" lon="-0.35722">
        <ele>61</ele>
        <time>2021-03-26T16:18:08Z</time>
      </trkpt>
      <trkpt lat="46.07432" lon="-0.35717">
        <ele>60.8</ele>
        <time>2021-03-26T16:18:09Z</time>
      </trkpt>
      <trkpt lat="46.07424" lon="-0.35712">
        <ele>60.6</ele>
        <time>2021-03-26T16:18:10Z</time>
      </trkpt>
      <trkpt lat="46.07408" lon="-0.35704">
        <ele>59.4</ele>
        <time>2021-03-26T16:18:12Z</time>
      </trkpt>
      <trkpt lat="46.07401" lon="-0.35702">
        <ele>59.2</ele>
        <time>2021-03-26T16:18:13Z</time>
      </trkpt>
      <trkpt lat="46.07394" lon="-0.357">
        <ele>59</ele>
        <time>2021-03-26T16:18:14Z</time>
      </trkpt>
      <trkpt lat="46.07389" lon="-0.35698">
        <ele>59</ele>
        <time>2021-03-26T16:18:15Z</time>
      </trkpt>
      <trkpt lat="46.07384" lon="-0.35695">
        <ele>59</ele>
        <time>2021-03-26T16:18:16Z</time>
      </trkpt>
      <trkpt lat="46.0738" lon="-0.35692">
        <ele>59</ele>
        <time>2021-03-26T16:18:17Z</time>
      </trkpt>
      <trkpt lat="46.07375" lon="-0.3569">
        <ele>59</ele>
        <time>2021-03-26T16:18:18Z</time>
      </trkpt>
      <trkpt lat="46.0737" lon="-0.35687">
        <ele>59</ele>
        <time>2021-03-26T16:18:19Z</time>
      </trkpt>
      <trkpt lat="46.07361" lon="-0.35683">
        <ele>59</ele>
        <time>2021-03-26T16:18:21Z</time>
      </trkpt>
      <trkpt lat="46.07358" lon="-0.35682">
        <ele>59.4</ele>
        <time>2021-03-26T16:18:22Z</time>
      </trkpt>
      <trkpt lat="46.07355" lon="-0.35681">
        <ele>59.8</ele>
        <time>2021-03-26T16:18:23Z</time>
      </trkpt>
      <trkpt lat="46.07352" lon="-0.35679">
        <ele>60.2</ele>
        <time>2021-03-26T16:18:24Z</time>
      </trkpt>
      <trkpt lat="46.07349" lon="-0.35677">
        <ele>60.6</ele>
        <time>2021-03-26T16:18:25Z</time>
      </trkpt>
      <trkpt lat="46.07346" lon="-0.35676">
        <ele>61</ele>
        <time>2021-03-26T16:18:26Z</time>
      </trkpt>
      <trkpt lat="46.07343" lon="-0.35674">
        <ele>61.8</ele>
        <time>2021-03-26T16:18:27Z</time>
      </trkpt>
      <trkpt lat="46.07339" lon="-0.35673">
        <ele>62</ele>
        <time>2021-03-26T16:18:28Z</time>
      </trkpt>
      <trkpt lat="46.07334" lon="-0.3567">
        <ele>62.6</ele>
        <time>2021-03-26T16:18:29Z</time>
      </trkpt>
      <trkpt lat="46.07326" lon="-0.35666">
        <ele>63</ele>
        <time>2021-03-26T16:18:31Z</time>
      </trkpt>
      <trkpt lat="46.07319" lon="-0.35662">
        <ele>63.6</ele>
        <time>2021-03-26T16:18:33Z</time>
      </trkpt>
      <trkpt lat="46.07316" lon="-0.3566">
        <ele>63.8</ele>
        <time>2021-03-26T16:18:34Z</time>
      </trkpt>
      <trkpt lat="46.07314" lon="-0.35658">
        <ele>64</ele>
        <time>2021-03-26T16:18:35Z</time>
      </trkpt>
      <trkpt lat="46.07314" lon="-0.35658">
        <ele>64.2</ele>
        <time>2021-03-26T16:18:36Z</time>
      </trkpt>
      <trkpt lat="46.07314" lon="-0.35658">
        <ele>64.4</ele>
        <time>2021-03-26T16:18:37Z</time>
      </trkpt>
      <trkpt lat="46.07314" lon="-0.35658">
        <ele>64.4</ele>
        <time>2021-03-26T16:18:38Z</time>
      </trkpt>
      <trkpt lat="46.07312" lon="-0.35655">
        <ele>64.8</ele>
        <time>2021-03-26T16:22:20Z</time>
      </trkpt>
      <trkpt lat="46.0731" lon="-0.35651">
        <ele>65</ele>
        <time>2021-03-26T16:22:21Z</time>
      </trkpt>
      <trkpt lat="46.07307" lon="-0.35646">
        <ele>65</ele>
        <time>2021-03-26T16:22:22Z</time>
      </trkpt>
      <trkpt lat="46.07305" lon="-0.35639">
        <ele>65</ele>
        <time>2021-03-26T16:22:23Z</time>
      </trkpt>
      <trkpt lat="46.07302" lon="-0.35632">
        <ele>65</ele>
        <time>2021-03-26T16:22:24Z</time>
      </trkpt>
      <trkpt lat="46.07299" lon="-0.35624">
        <ele>65</ele>
        <time>2021-03-26T16:22:25Z</time>
      </trkpt>
      <trkpt lat="46.0728" lon="-0.35585">
        <ele>65</ele>
        <time>2021-03-26T16:22:30Z</time>
      </trkpt>
      <trkpt lat="46.07276" lon="-0.35577">
        <ele>65</ele>
        <time>2021-03-26T16:22:31Z</time>
      </trkpt>
      <trkpt lat="46.07266" lon="-0.3556">
        <ele>64.8</ele>
        <time>2021-03-26T16:22:33Z</time>
      </trkpt>
      <trkpt lat="46.07262" lon="-0.35551">
        <ele>64.8</ele>
        <time>2021-03-26T16:22:34Z</time>
      </trkpt>
      <trkpt lat="46.07257" lon="-0.35542">
        <ele>64.8</ele>
        <time>2021-03-26T16:22:35Z</time>
      </trkpt>
      <trkpt lat="46.07242" lon="-0.35516">
        <ele>65</ele>
        <time>2021-03-26T16:22:38Z</time>
      </trkpt>
      <trkpt lat="46.07229" lon="-0.35488">
        <ele>65</ele>
        <time>2021-03-26T16:22:41Z</time>
      </trkpt>
      <trkpt lat="46.07217" lon="-0.35471">
        <ele>65.2</ele>
        <time>2021-03-26T16:22:43Z</time>
      </trkpt>
      <trkpt lat="46.07211" lon="-0.35463">
        <ele>65.4</ele>
        <time>2021-03-26T16:22:44Z</time>
      </trkpt>
      <trkpt lat="46.07206" lon="-0.35454">
        <ele>65.4</ele>
        <time>2021-03-26T16:22:45Z</time>
      </trkpt>
      <trkpt lat="46.07201" lon="-0.35445">
        <ele>65.4</ele>
        <time>2021-03-26T16:22:46Z</time>
      </trkpt>
      <trkpt lat="46.07179" lon="-0.35411">
        <ele>65.8</ele>
        <time>2021-03-26T16:22:50Z</time>
      </trkpt>
      <trkpt lat="46.07161" lon="-0.35369">
        <ele>66.2</ele>
        <time>2021-03-26T16:22:54Z</time>
      </trkpt>
      <trkpt lat="46.07144" lon="-0.35326">
        <ele>66.6</ele>
        <time>2021-03-26T16:22:58Z</time>
      </trkpt>
      <trkpt lat="46.0714" lon="-0.35315">
        <ele>66.8</ele>
        <time>2021-03-26T16:22:59Z</time>
      </trkpt>
      <trkpt lat="46.07133" lon="-0.35295">
        <ele>67.2</ele>
        <time>2021-03-26T16:23:01Z</time>
      </trkpt>
      <trkpt lat="46.07129" lon="-0.35285">
        <ele>67.6</ele>
        <time>2021-03-26T16:23:02Z</time>
      </trkpt>
      <trkpt lat="46.07116" lon="-0.35247">
        <ele>68.4</ele>
        <time>2021-03-26T16:23:06Z</time>
      </trkpt>
      <trkpt lat="46.07114" lon="-0.35241">
        <ele>68.4</ele>
        <time>2021-03-26T16:23:07Z</time>
      </trkpt>
      <trkpt lat="46.07113" lon="-0.35237">
        <ele>68.8</ele>
        <time>2021-03-26T16:23:08Z</time>
      </trkpt>
      <trkpt lat="46.07112" lon="-0.35233">
        <ele>69</ele>
        <time>2021-03-26T16:23:09Z</time>
      </trkpt>
      <trkpt lat="46.07111" lon="-0.3523">
        <ele>69.2</ele>
        <time>2021-03-26T16:23:10Z</time>
      </trkpt>
      <trkpt lat="46.07108" lon="-0.35229">
        <ele>69.6</ele>
        <time>2021-03-26T16:23:11Z</time>
      </trkpt>
      <trkpt lat="46.07104" lon="-0.35228">
        <ele>69.8</ele>
        <time>2021-03-26T16:23:12Z</time>
      </trkpt>
      <trkpt lat="46.07099" lon="-0.35227">
        <ele>69.8</ele>
        <time>2021-03-26T16:23:13Z</time>
      </trkpt>
      <trkpt lat="46.07093" lon="-0.35226">
        <ele>70</ele>
        <time>2021-03-26T16:23:14Z</time>
      </trkpt>
      <trkpt lat="46.07087" lon="-0.35224">
        <ele>70</ele>
        <time>2021-03-26T16:23:15Z</time>
      </trkpt>
      <trkpt lat="46.07081" lon="-0.3522">
        <ele>70</ele>
        <time>2021-03-26T16:23:16Z</time>
      </trkpt>
      <trkpt lat="46.07076" lon="-0.35217">
        <ele>70</ele>
        <time>2021-03-26T16:23:17Z</time>
      </trkpt>
      <trkpt lat="46.0707" lon="-0.35214">
        <ele>70</ele>
        <time>2021-03-26T16:23:18Z</time>
      </trkpt>
      <trkpt lat="46.07065" lon="-0.35211">
        <ele>70</ele>
        <time>2021-03-26T16:23:19Z</time>
      </trkpt>
      <trkpt lat="46.07059" lon="-0.35209">
        <ele>69.8</ele>
        <time>2021-03-26T16:23:20Z</time>
      </trkpt>
      <trkpt lat="46.07054" lon="-0.35207">
        <ele>69.8</ele>
        <time>2021-03-26T16:23:21Z</time>
      </trkpt>
      <trkpt lat="46.07048" lon="-0.35204">
        <ele>69.8</ele>
        <time>2021-03-26T16:23:22Z</time>
      </trkpt>
      <trkpt lat="46.07042" lon="-0.35201">
        <ele>69.8</ele>
        <time>2021-03-26T16:23:23Z</time>
      </trkpt>
      <trkpt lat="46.07036" lon="-0.35198">
        <ele>69.6</ele>
        <time>2021-03-26T16:23:24Z</time>
      </trkpt>
      <trkpt lat="46.0703" lon="-0.35196">
        <ele>69.4</ele>
        <time>2021-03-26T16:23:25Z</time>
      </trkpt>
      <trkpt lat="46.07023" lon="-0.35193">
        <ele>69.2</ele>
        <time>2021-03-26T16:23:26Z</time>
      </trkpt>
      <trkpt lat="46.07017" lon="-0.35189">
        <ele>68.4</ele>
        <time>2021-03-26T16:23:27Z</time>
      </trkpt>
      <trkpt lat="46.07012" lon="-0.35185">
        <ele>68</ele>
        <time>2021-03-26T16:23:28Z</time>
      </trkpt>
      <trkpt lat="46.07" lon="-0.35179">
        <ele>66.6</ele>
        <time>2021-03-26T16:23:30Z</time>
      </trkpt>
      <trkpt lat="46.0699" lon="-0.35171">
        <ele>65.2</ele>
        <time>2021-03-26T16:23:32Z</time>
      </trkpt>
      <trkpt lat="46.06986" lon="-0.3517">
        <ele>64.8</ele>
        <time>2021-03-26T16:23:33Z</time>
      </trkpt>
      <trkpt lat="46.06982" lon="-0.35169">
        <ele>64.2</ele>
        <time>2021-03-26T16:23:34Z</time>
      </trkpt>
      <trkpt lat="46.06978" lon="-0.35167">
        <ele>63.8</ele>
        <time>2021-03-26T16:23:35Z</time>
      </trkpt>
      <trkpt lat="46.06974" lon="-0.35165">
        <ele>63.2</ele>
        <time>2021-03-26T16:23:36Z</time>
      </trkpt>
      <trkpt lat="46.0697" lon="-0.35162">
        <ele>62.4</ele>
        <time>2021-03-26T16:23:37Z</time>
      </trkpt>
      <trkpt lat="46.06967" lon="-0.35159">
        <ele>61.8</ele>
        <time>2021-03-26T16:23:38Z</time>
      </trkpt>
      <trkpt lat="46.06963" lon="-0.35157">
        <ele>61.6</ele>
        <time>2021-03-26T16:23:39Z</time>
      </trkpt>
      <trkpt lat="46.06961" lon="-0.35156">
        <ele>60.8</ele>
        <time>2021-03-26T16:23:40Z</time>
      </trkpt>
      <trkpt lat="46.06957" lon="-0.35155">
        <ele>60.2</ele>
        <time>2021-03-26T16:23:41Z</time>
      </trkpt>
      <trkpt lat="46.06953" lon="-0.35156">
        <ele>59.2</ele>
        <time>2021-03-26T16:23:42Z</time>
      </trkpt>
      <trkpt lat="46.06949" lon="-0.35156">
        <ele>59.2</ele>
        <time>2021-03-26T16:23:43Z</time>
      </trkpt>
      <trkpt lat="46.06945" lon="-0.35158">
        <ele>58.4</ele>
        <time>2021-03-26T16:23:44Z</time>
      </trkpt>
      <trkpt lat="46.06942" lon="-0.35159">
        <ele>57.8</ele>
        <time>2021-03-26T16:23:45Z</time>
      </trkpt>
      <trkpt lat="46.06938" lon="-0.3516">
        <ele>56.4</ele>
        <time>2021-03-26T16:23:47Z</time>
      </trkpt>
      <trkpt lat="46.06938" lon="-0.3516">
        <ele>56</ele>
        <time>2021-03-26T16:23:48Z</time>
      </trkpt>
      <trkpt lat="46.06932" lon="-0.35162">
        <ele>54</ele>
        <time>2021-03-26T16:24:46Z</time>
      </trkpt>
      <trkpt lat="46.06927" lon="-0.35164">
        <ele>54</ele>
        <time>2021-03-26T16:24:47Z</time>
      </trkpt>
      <trkpt lat="46.06905" lon="-0.35171">
        <ele>53.8</ele>
        <time>2021-03-26T16:24:51Z</time>
      </trkpt>
      <trkpt lat="46.06887" lon="-0.35177">
        <ele>52.8</ele>
        <time>2021-03-26T16:24:54Z</time>
      </trkpt>
      <trkpt lat="46.06875" lon="-0.3518">
        <ele>51.4</ele>
        <time>2021-03-26T16:24:56Z</time>
      </trkpt>
      <trkpt lat="46.06863" lon="-0.35183">
        <ele>50.2</ele>
        <time>2021-03-26T16:24:58Z</time>
      </trkpt>
      <trkpt lat="46.06858" lon="-0.35186">
        <ele>50</ele>
        <time>2021-03-26T16:24:59Z</time>
      </trkpt>
      <trkpt lat="46.06853" lon="-0.35191">
        <ele>49.8</ele>
        <time>2021-03-26T16:25:00Z</time>
      </trkpt>
      <trkpt lat="46.06849" lon="-0.35198">
        <ele>49.8</ele>
        <time>2021-03-26T16:25:01Z</time>
      </trkpt>
      <trkpt lat="46.06848" lon="-0.35207">
        <ele>49.8</ele>
        <time>2021-03-26T16:25:02Z</time>
      </trkpt>
      <trkpt lat="46.06846" lon="-0.35236">
        <ele>49.4</ele>
        <time>2021-03-26T16:25:05Z</time>
      </trkpt>
      <trkpt lat="46.06846" lon="-0.35244">
        <ele>49.4</ele>
        <time>2021-03-26T16:25:06Z</time>
      </trkpt>
      <trkpt lat="46.06846" lon="-0.35251">
        <ele>49.6</ele>
        <time>2021-03-26T16:25:07Z</time>
      </trkpt>
      <trkpt lat="46.06846" lon="-0.35258">
        <ele>49.6</ele>
        <time>2021-03-26T16:25:08Z</time>
      </trkpt>
      <trkpt lat="46.06848" lon="-0.35263">
        <ele>49.6</ele>
        <time>2021-03-26T16:25:09Z</time>
      </trkpt>
      <trkpt lat="46.06848" lon="-0.35267">
        <ele>49.8</ele>
        <time>2021-03-26T16:25:10Z</time>
      </trkpt>
      <trkpt lat="46.06848" lon="-0.35269">
        <ele>50</ele>
        <time>2021-03-26T16:25:11Z</time>
      </trkpt>
      <trkpt lat="46.06848" lon="-0.35269">
        <ele>50.2</ele>
        <time>2021-03-26T16:25:12Z</time>
      </trkpt>
      <trkpt lat="46.06848" lon="-0.35269">
        <ele>50.4</ele>
        <time>2021-03-26T16:25:13Z</time>
      </trkpt>
      <trkpt lat="46.06845" lon="-0.35272">
        <ele>50.8</ele>
        <time>2021-03-26T16:25:41Z</time>
      </trkpt>
      <trkpt lat="46.06839" lon="-0.35277">
        <ele>51.6</ele>
        <time>2021-03-26T16:25:43Z</time>
      </trkpt>
      <trkpt lat="46.06834" lon="-0.3528">
        <ele>51.6</ele>
        <time>2021-03-26T16:25:44Z</time>
      </trkpt>
      <trkpt lat="46.0683" lon="-0.35281">
        <ele>51.6</ele>
        <time>2021-03-26T16:25:45Z</time>
      </trkpt>
      <trkpt lat="46.06825" lon="-0.35284">
        <ele>51.6</ele>
        <time>2021-03-26T16:25:46Z</time>
      </trkpt>
      <trkpt lat="46.06811" lon="-0.3529">
        <ele>51.6</ele>
        <time>2021-03-26T16:25:48Z</time>
      </trkpt>
      <trkpt lat="46.06784" lon="-0.35303">
        <ele>51.8</ele>
        <time>2021-03-26T16:25:53Z</time>
      </trkpt>
      <trkpt lat="46.0678" lon="-0.35305">
        <ele>51.8</ele>
        <time>2021-03-26T16:25:54Z</time>
      </trkpt>
      <trkpt lat="46.06775" lon="-0.35306">
        <ele>52</ele>
        <time>2021-03-26T16:25:55Z</time>
      </trkpt>
      <trkpt lat="46.06772" lon="-0.35307">
        <ele>52.2</ele>
        <time>2021-03-26T16:25:56Z</time>
      </trkpt>
      <trkpt lat="46.06768" lon="-0.35308">
        <ele>52.2</ele>
        <time>2021-03-26T16:25:57Z</time>
      </trkpt>
      <trkpt lat="46.06766" lon="-0.35311">
        <ele>52.4</ele>
        <time>2021-03-26T16:25:58Z</time>
      </trkpt>
      <trkpt lat="46.06764" lon="-0.35316">
        <ele>52.6</ele>
        <time>2021-03-26T16:25:59Z</time>
      </trkpt>
      <trkpt lat="46.06762" lon="-0.35323">
        <ele>52.8</ele>
        <time>2021-03-26T16:26:00Z</time>
      </trkpt>
      <trkpt lat="46.06758" lon="-0.3534">
        <ele>52.8</ele>
        <time>2021-03-26T16:26:02Z</time>
      </trkpt>
      <trkpt lat="46.06754" lon="-0.3535">
        <ele>52.8</ele>
        <time>2021-03-26T16:26:03Z</time>
      </trkpt>
      <trkpt lat="46.06749" lon="-0.35358">
        <ele>53</ele>
        <time>2021-03-26T16:26:04Z</time>
      </trkpt>
      <trkpt lat="46.06736" lon="-0.35373">
        <ele>53</ele>
        <time>2021-03-26T16:26:06Z</time>
      </trkpt>
      <trkpt lat="46.06729" lon="-0.35379">
        <ele>53.2</ele>
        <time>2021-03-26T16:26:07Z</time>
      </trkpt>
      <trkpt lat="46.06724" lon="-0.35383">
        <ele>53.2</ele>
        <time>2021-03-26T16:26:08Z</time>
      </trkpt>
      <trkpt lat="46.06721" lon="-0.35388">
        <ele>53.4</ele>
        <time>2021-03-26T16:26:09Z</time>
      </trkpt>
      <trkpt lat="46.06718" lon="-0.35393">
        <ele>53.4</ele>
        <time>2021-03-26T16:26:10Z</time>
      </trkpt>
      <trkpt lat="46.06718" lon="-0.35397">
        <ele>53.6</ele>
        <time>2021-03-26T16:26:11Z</time>
      </trkpt>
      <trkpt lat="46.06716" lon="-0.354">
        <ele>53.6</ele>
        <time>2021-03-26T16:26:12Z</time>
      </trkpt>
      <trkpt lat="46.06714" lon="-0.35402">
        <ele>53.6</ele>
        <time>2021-03-26T16:26:13Z</time>
      </trkpt>
      <trkpt lat="46.06713" lon="-0.35405">
        <ele>53.8</ele>
        <time>2021-03-26T16:26:14Z</time>
      </trkpt>
      <trkpt lat="46.06711" lon="-0.35408">
        <ele>53.8</ele>
        <time>2021-03-26T16:26:15Z</time>
      </trkpt>
      <trkpt lat="46.06712" lon="-0.35418">
        <ele>53.8</ele>
        <time>2021-03-26T16:26:18Z</time>
      </trkpt>
      <trkpt lat="46.06713" lon="-0.35422">
        <ele>53.8</ele>
        <time>2021-03-26T16:26:19Z</time>
      </trkpt>
      <trkpt lat="46.06714" lon="-0.35426">
        <ele>54</ele>
        <time>2021-03-26T16:26:20Z</time>
      </trkpt>
      <trkpt lat="46.06713" lon="-0.35428">
        <ele>54</ele>
        <time>2021-03-26T16:26:21Z</time>
      </trkpt>
      <trkpt lat="46.06712" lon="-0.35431">
        <ele>54.2</ele>
        <time>2021-03-26T16:26:22Z</time>
      </trkpt>
      <trkpt lat="46.06711" lon="-0.35434">
        <ele>54.2</ele>
        <time>2021-03-26T16:26:23Z</time>
      </trkpt>
      <trkpt lat="46.0671" lon="-0.35439">
        <ele>54.4</ele>
        <time>2021-03-26T16:26:24Z</time>
      </trkpt>
      <trkpt lat="46.06712" lon="-0.35446">
        <ele>54.4</ele>
        <time>2021-03-26T16:26:26Z</time>
      </trkpt>
      <trkpt lat="46.06714" lon="-0.35449">
        <ele>54.4</ele>
        <time>2021-03-26T16:26:27Z</time>
      </trkpt>
      <trkpt lat="46.06715" lon="-0.35452">
        <ele>54.4</ele>
        <time>2021-03-26T16:26:28Z</time>
      </trkpt>
      <trkpt lat="46.06716" lon="-0.35455">
        <ele>54.4</ele>
        <time>2021-03-26T16:26:29Z</time>
      </trkpt>
      <trkpt lat="46.06717" lon="-0.3546">
        <ele>54.4</ele>
        <time>2021-03-26T16:26:30Z</time>
      </trkpt>
      <trkpt lat="46.06717" lon="-0.35465">
        <ele>54.4</ele>
        <time>2021-03-26T16:26:31Z</time>
      </trkpt>
      <trkpt lat="46.06717" lon="-0.35475">
        <ele>54.4</ele>
        <time>2021-03-26T16:26:33Z</time>
      </trkpt>
      <trkpt lat="46.06717" lon="-0.35479">
        <ele>54.4</ele>
        <time>2021-03-26T16:26:34Z</time>
      </trkpt>
      <trkpt lat="46.06717" lon="-0.35484">
        <ele>54.4</ele>
        <time>2021-03-26T16:26:35Z</time>
      </trkpt>
      <trkpt lat="46.06717" lon="-0.35489">
        <ele>54.4</ele>
        <time>2021-03-26T16:26:36Z</time>
      </trkpt>
      <trkpt lat="46.06719" lon="-0.35514">
        <ele>54.4</ele>
        <time>2021-03-26T16:26:41Z</time>
      </trkpt>
      <trkpt lat="46.06718" lon="-0.35519">
        <ele>54.4</ele>
        <time>2021-03-26T16:26:43Z</time>
      </trkpt>
      <trkpt lat="46.06718" lon="-0.3552">
        <ele>54.4</ele>
        <time>2021-03-26T16:26:44Z</time>
      </trkpt>
      <trkpt lat="46.06717" lon="-0.35522">
        <ele>54.4</ele>
        <time>2021-03-26T16:26:45Z</time>
      </trkpt>
      <trkpt lat="46.06717" lon="-0.35525">
        <ele>54.6</ele>
        <time>2021-03-26T16:26:46Z</time>
      </trkpt>
      <trkpt lat="46.06717" lon="-0.3553">
        <ele>54.6</ele>
        <time>2021-03-26T16:26:48Z</time>
      </trkpt>
      <trkpt lat="46.06718" lon="-0.35535">
        <ele>54.6</ele>
        <time>2021-03-26T16:26:50Z</time>
      </trkpt>
      <trkpt lat="46.0672" lon="-0.35536">
        <ele>54.8</ele>
        <time>2021-03-26T16:26:51Z</time>
      </trkpt>
      <trkpt lat="46.06722" lon="-0.35536">
        <ele>54.8</ele>
        <time>2021-03-26T16:26:52Z</time>
      </trkpt>
      <trkpt lat="46.06725" lon="-0.35534">
        <ele>54.8</ele>
        <time>2021-03-26T16:26:53Z</time>
      </trkpt>
      <trkpt lat="46.06729" lon="-0.35531">
        <ele>55</ele>
        <time>2021-03-26T16:26:55Z</time>
      </trkpt>
      <trkpt lat="46.06732" lon="-0.35531">
        <ele>55</ele>
        <time>2021-03-26T16:26:56Z</time>
      </trkpt>
      <trkpt lat="46.06735" lon="-0.35531">
        <ele>55</ele>
        <time>2021-03-26T16:26:57Z</time>
      </trkpt>
      <trkpt lat="46.06739" lon="-0.35533">
        <ele>55</ele>
        <time>2021-03-26T16:26:59Z</time>
      </trkpt>
      <trkpt lat="46.06741" lon="-0.35532">
        <ele>55</ele>
        <time>2021-03-26T16:27:00Z</time>
      </trkpt>
      <trkpt lat="46.06744" lon="-0.35531">
        <ele>55</ele>
        <time>2021-03-26T16:27:01Z</time>
      </trkpt>
      <trkpt lat="46.06746" lon="-0.35531">
        <ele>54.8</ele>
        <time>2021-03-26T16:27:02Z</time>
      </trkpt>
      <trkpt lat="46.06749" lon="-0.35533">
        <ele>54.8</ele>
        <time>2021-03-26T16:27:03Z</time>
      </trkpt>
      <trkpt lat="46.06752" lon="-0.35536">
        <ele>54.8</ele>
        <time>2021-03-26T16:27:04Z</time>
      </trkpt>
      <trkpt lat="46.06752" lon="-0.3554">
        <ele>54.6</ele>
        <time>2021-03-26T16:27:05Z</time>
      </trkpt>
      <trkpt lat="46.06753" lon="-0.35544">
        <ele>54.4</ele>
        <time>2021-03-26T16:27:06Z</time>
      </trkpt>
      <trkpt lat="46.06754" lon="-0.35547">
        <ele>54.4</ele>
        <time>2021-03-26T16:27:07Z</time>
      </trkpt>
      <trkpt lat="46.06755" lon="-0.35552">
        <ele>54.4</ele>
        <time>2021-03-26T16:27:08Z</time>
      </trkpt>
      <trkpt lat="46.06757" lon="-0.35555">
        <ele>54.2</ele>
        <time>2021-03-26T16:27:09Z</time>
      </trkpt>
      <trkpt lat="46.06759" lon="-0.35558">
        <ele>54.2</ele>
        <time>2021-03-26T16:27:10Z</time>
      </trkpt>
      <trkpt lat="46.06762" lon="-0.3556">
        <ele>54</ele>
        <time>2021-03-26T16:27:11Z</time>
      </trkpt>
      <trkpt lat="46.06764" lon="-0.3556">
        <ele>54</ele>
        <time>2021-03-26T16:27:12Z</time>
      </trkpt>
      <trkpt lat="46.06765" lon="-0.3556">
        <ele>53.8</ele>
        <time>2021-03-26T16:27:13Z</time>
      </trkpt>
      <trkpt lat="46.06766" lon="-0.3556">
        <ele>53.8</ele>
        <time>2021-03-26T16:27:14Z</time>
      </trkpt>
      <trkpt lat="46.06768" lon="-0.35559">
        <ele>53.8</ele>
        <time>2021-03-26T16:27:15Z</time>
      </trkpt>
      <trkpt lat="46.06768" lon="-0.35561">
        <ele>53.8</ele>
        <time>2021-03-26T16:27:16Z</time>
      </trkpt>
      <trkpt lat="46.06773" lon="-0.35568">
        <ele>53.6</ele>
        <time>2021-03-26T16:27:19Z</time>
      </trkpt>
      <trkpt lat="46.06773" lon="-0.35588">
        <ele>53.6</ele>
        <time>2021-03-26T16:27:23Z</time>
      </trkpt>
      <trkpt lat="46.06774" lon="-0.35591">
        <ele>53.6</ele>
        <time>2021-03-26T16:27:24Z</time>
      </trkpt>
      <trkpt lat="46.06775" lon="-0.35593">
        <ele>53.6</ele>
        <time>2021-03-26T16:27:25Z</time>
      </trkpt>
      <trkpt lat="46.06777" lon="-0.35595">
        <ele>53.6</ele>
        <time>2021-03-26T16:27:26Z</time>
      </trkpt>
      <trkpt lat="46.0678" lon="-0.35597">
        <ele>53.6</ele>
        <time>2021-03-26T16:27:27Z</time>
      </trkpt>
      <trkpt lat="46.06783" lon="-0.35601">
        <ele>53.6</ele>
        <time>2021-03-26T16:27:28Z</time>
      </trkpt>
      <trkpt lat="46.06787" lon="-0.35605">
        <ele>53.6</ele>
        <time>2021-03-26T16:27:29Z</time>
      </trkpt>
      <trkpt lat="46.0679" lon="-0.35609">
        <ele>53.8</ele>
        <time>2021-03-26T16:27:30Z</time>
      </trkpt>
      <trkpt lat="46.06795" lon="-0.35618">
        <ele>53.8</ele>
        <time>2021-03-26T16:27:32Z</time>
      </trkpt>
      <trkpt lat="46.06797" lon="-0.35623">
        <ele>53.8</ele>
        <time>2021-03-26T16:27:33Z</time>
      </trkpt>
      <trkpt lat="46.068" lon="-0.35627">
        <ele>53.6</ele>
        <time>2021-03-26T16:27:34Z</time>
      </trkpt>
      <trkpt lat="46.06805" lon="-0.35631">
        <ele>53.6</ele>
        <time>2021-03-26T16:27:35Z</time>
      </trkpt>
      <trkpt lat="46.06818" lon="-0.35636">
        <ele>53.6</ele>
        <time>2021-03-26T16:27:37Z</time>
      </trkpt>
      <trkpt lat="46.06825" lon="-0.35636">
        <ele>53.6</ele>
        <time>2021-03-26T16:27:38Z</time>
      </trkpt>
      <trkpt lat="46.06832" lon="-0.35635">
        <ele>53.6</ele>
        <time>2021-03-26T16:27:39Z</time>
      </trkpt>
      <trkpt lat="46.06837" lon="-0.35633">
        <ele>53.6</ele>
        <time>2021-03-26T16:27:40Z</time>
      </trkpt>
      <trkpt lat="46.0684" lon="-0.35632">
        <ele>53.6</ele>
        <time>2021-03-26T16:27:41Z</time>
      </trkpt>
      <trkpt lat="46.06843" lon="-0.35633">
        <ele>53.6</ele>
        <time>2021-03-26T16:27:42Z</time>
      </trkpt>
      <trkpt lat="46.06846" lon="-0.35635">
        <ele>53.6</ele>
        <time>2021-03-26T16:27:43Z</time>
      </trkpt>
      <trkpt lat="46.0685" lon="-0.35638">
        <ele>53.6</ele>
        <time>2021-03-26T16:27:44Z</time>
      </trkpt>
      <trkpt lat="46.06853" lon="-0.3564">
        <ele>53.6</ele>
        <time>2021-03-26T16:27:45Z</time>
      </trkpt>
      <trkpt lat="46.06857" lon="-0.35643">
        <ele>53.6</ele>
        <time>2021-03-26T16:27:46Z</time>
      </trkpt>
      <trkpt lat="46.0687" lon="-0.35648">
        <ele>53.6</ele>
        <time>2021-03-26T16:27:49Z</time>
      </trkpt>
      <trkpt lat="46.06887" lon="-0.35661">
        <ele>54.8</ele>
        <time>2021-03-26T16:27:53Z</time>
      </trkpt>
      <trkpt lat="46.06891" lon="-0.35664">
        <ele>55</ele>
        <time>2021-03-26T16:27:54Z</time>
      </trkpt>
      <trkpt lat="46.06904" lon="-0.35675">
        <ele>55.4</ele>
        <time>2021-03-26T16:27:57Z</time>
      </trkpt>
      <trkpt lat="46.06908" lon="-0.35677">
        <ele>55.4</ele>
        <time>2021-03-26T16:27:58Z</time>
      </trkpt>
      <trkpt lat="46.06911" lon="-0.35678">
        <ele>55.4</ele>
        <time>2021-03-26T16:27:59Z</time>
      </trkpt>
      <trkpt lat="46.06914" lon="-0.35678">
        <ele>55.4</ele>
        <time>2021-03-26T16:28:00Z</time>
      </trkpt>
      <trkpt lat="46.06917" lon="-0.35676">
        <ele>55.4</ele>
        <time>2021-03-26T16:28:01Z</time>
      </trkpt>
      <trkpt lat="46.06918" lon="-0.35674">
        <ele>55.4</ele>
        <time>2021-03-26T16:28:02Z</time>
      </trkpt>
      <trkpt lat="46.0692" lon="-0.35674">
        <ele>55.4</ele>
        <time>2021-03-26T16:28:03Z</time>
      </trkpt>
      <trkpt lat="46.06921" lon="-0.35674">
        <ele>55.4</ele>
        <time>2021-03-26T16:28:04Z</time>
      </trkpt>
      <trkpt lat="46.06923" lon="-0.35674">
        <ele>55.4</ele>
        <time>2021-03-26T16:28:05Z</time>
      </trkpt>
      <trkpt lat="46.06926" lon="-0.35675">
        <ele>55.4</ele>
        <time>2021-03-26T16:28:06Z</time>
      </trkpt>
      <trkpt lat="46.06929" lon="-0.35676">
        <ele>55.4</ele>
        <time>2021-03-26T16:28:07Z</time>
      </trkpt>
      <trkpt lat="46.06931" lon="-0.35676">
        <ele>55.4</ele>
        <time>2021-03-26T16:28:08Z</time>
      </trkpt>
      <trkpt lat="46.06933" lon="-0.35675">
        <ele>55.4</ele>
        <time>2021-03-26T16:28:09Z</time>
      </trkpt>
      <trkpt lat="46.06936" lon="-0.35675">
        <ele>55.4</ele>
        <time>2021-03-26T16:28:10Z</time>
      </trkpt>
      <trkpt lat="46.06938" lon="-0.35676">
        <ele>55.2</ele>
        <time>2021-03-26T16:28:11Z</time>
      </trkpt>
      <trkpt lat="46.0694" lon="-0.35677">
        <ele>55.2</ele>
        <time>2021-03-26T16:28:12Z</time>
      </trkpt>
      <trkpt lat="46.06942" lon="-0.35677">
        <ele>55.2</ele>
        <time>2021-03-26T16:28:13Z</time>
      </trkpt>
      <trkpt lat="46.06944" lon="-0.35675">
        <ele>55</ele>
        <time>2021-03-26T16:28:14Z</time>
      </trkpt>
      <trkpt lat="46.06945" lon="-0.35672">
        <ele>54.8</ele>
        <time>2021-03-26T16:28:15Z</time>
      </trkpt>
      <trkpt lat="46.06948" lon="-0.3567">
        <ele>54.6</ele>
        <time>2021-03-26T16:28:16Z</time>
      </trkpt>
      <trkpt lat="46.06954" lon="-0.35668">
        <ele>54.4</ele>
        <time>2021-03-26T16:28:18Z</time>
      </trkpt>
      <trkpt lat="46.06959" lon="-0.35669">
        <ele>54.2</ele>
        <time>2021-03-26T16:28:20Z</time>
      </trkpt>
      <trkpt lat="46.06961" lon="-0.35669">
        <ele>54</ele>
        <time>2021-03-26T16:28:21Z</time>
      </trkpt>
      <trkpt lat="46.06963" lon="-0.35667">
        <ele>54</ele>
        <time>2021-03-26T16:28:22Z</time>
      </trkpt>
      <trkpt lat="46.06965" lon="-0.35664">
        <ele>53.6</ele>
        <time>2021-03-26T16:28:23Z</time>
      </trkpt>
      <trkpt lat="46.06965" lon="-0.35662">
        <ele>53.4</ele>
        <time>2021-03-26T16:28:24Z</time>
      </trkpt>
      <trkpt lat="46.06964" lon="-0.35659">
        <ele>53</ele>
        <time>2021-03-26T16:28:25Z</time>
      </trkpt>
      <trkpt lat="46.06962" lon="-0.35656">
        <ele>52.8</ele>
        <time>2021-03-26T16:28:26Z</time>
      </trkpt>
      <trkpt lat="46.06961" lon="-0.35648">
        <ele>52.2</ele>
        <time>2021-03-26T16:28:28Z</time>
      </trkpt>
      <trkpt lat="46.06961" lon="-0.35644">
        <ele>52.2</ele>
        <time>2021-03-26T16:28:29Z</time>
      </trkpt>
      <trkpt lat="46.06962" lon="-0.3564">
        <ele>52.2</ele>
        <time>2021-03-26T16:28:30Z</time>
      </trkpt>
      <trkpt lat="46.06961" lon="-0.35636">
        <ele>52</ele>
        <time>2021-03-26T16:28:31Z</time>
      </trkpt>
      <trkpt lat="46.06959" lon="-0.35631">
        <ele>51.8</ele>
        <time>2021-03-26T16:28:33Z</time>
      </trkpt>
      <trkpt lat="46.06957" lon="-0.35629">
        <ele>51.8</ele>
        <time>2021-03-26T16:28:34Z</time>
      </trkpt>
      <trkpt lat="46.06956" lon="-0.35627">
        <ele>51.8</ele>
        <time>2021-03-26T16:28:35Z</time>
      </trkpt>
      <trkpt lat="46.06956" lon="-0.35623">
        <ele>51.8</ele>
        <time>2021-03-26T16:28:36Z</time>
      </trkpt>
      <trkpt lat="46.06956" lon="-0.35619">
        <ele>51.8</ele>
        <time>2021-03-26T16:28:37Z</time>
      </trkpt>
      <trkpt lat="46.06957" lon="-0.35605">
        <ele>51.6</ele>
        <time>2021-03-26T16:28:40Z</time>
      </trkpt>
      <trkpt lat="46.06953" lon="-0.35592">
        <ele>51.6</ele>
        <time>2021-03-26T16:28:43Z</time>
      </trkpt>
      <trkpt lat="46.06953" lon="-0.35589">
        <ele>51.6</ele>
        <time>2021-03-26T16:28:44Z</time>
      </trkpt>
      <trkpt lat="46.06952" lon="-0.35586">
        <ele>51.6</ele>
        <time>2021-03-26T16:28:45Z</time>
      </trkpt>
      <trkpt lat="46.0695" lon="-0.35577">
        <ele>51.4</ele>
        <time>2021-03-26T16:28:48Z</time>
      </trkpt>
      <trkpt lat="46.06948" lon="-0.35575">
        <ele>51.4</ele>
        <time>2021-03-26T16:28:49Z</time>
      </trkpt>
      <trkpt lat="46.06945" lon="-0.35574">
        <ele>51.4</ele>
        <time>2021-03-26T16:28:50Z</time>
      </trkpt>
      <trkpt lat="46.06941" lon="-0.35573">
        <ele>51.4</ele>
        <time>2021-03-26T16:28:51Z</time>
      </trkpt>
      <trkpt lat="46.06934" lon="-0.35568">
        <ele>51.4</ele>
        <time>2021-03-26T16:28:53Z</time>
      </trkpt>
      <trkpt lat="46.06929" lon="-0.35566">
        <ele>51.2</ele>
        <time>2021-03-26T16:28:54Z</time>
      </trkpt>
      <trkpt lat="46.06922" lon="-0.35564">
        <ele>51.2</ele>
        <time>2021-03-26T16:28:56Z</time>
      </trkpt>
      <trkpt lat="46.06919" lon="-0.35566">
        <ele>51.2</ele>
        <time>2021-03-26T16:28:57Z</time>
      </trkpt>
      <trkpt lat="46.06915" lon="-0.35568">
        <ele>51</ele>
        <time>2021-03-26T16:28:58Z</time>
      </trkpt>
      <trkpt lat="46.06912" lon="-0.35569">
        <ele>51</ele>
        <time>2021-03-26T16:28:59Z</time>
      </trkpt>
      <trkpt lat="46.06911" lon="-0.35572">
        <ele>51</ele>
        <time>2021-03-26T16:29:00Z</time>
      </trkpt>
      <trkpt lat="46.0691" lon="-0.35574">
        <ele>51</ele>
        <time>2021-03-26T16:29:01Z</time>
      </trkpt>
      <trkpt lat="46.06908" lon="-0.35578">
        <ele>51</ele>
        <time>2021-03-26T16:29:02Z</time>
      </trkpt>
      <trkpt lat="46.06907" lon="-0.35583">
        <ele>51</ele>
        <time>2021-03-26T16:29:03Z</time>
      </trkpt>
      <trkpt lat="46.06906" lon="-0.35588">
        <ele>51</ele>
        <time>2021-03-26T16:29:04Z</time>
      </trkpt>
      <trkpt lat="46.06904" lon="-0.35596">
        <ele>51</ele>
        <time>2021-03-26T16:29:06Z</time>
      </trkpt>
      <trkpt lat="46.06903" lon="-0.35598">
        <ele>51</ele>
        <time>2021-03-26T16:29:07Z</time>
      </trkpt>
      <trkpt lat="46.06901" lon="-0.356">
        <ele>51.2</ele>
        <time>2021-03-26T16:29:08Z</time>
      </trkpt>
      <trkpt lat="46.06899" lon="-0.35601">
        <ele>51.4</ele>
        <time>2021-03-26T16:29:09Z</time>
      </trkpt>
      <trkpt lat="46.06893" lon="-0.35602">
        <ele>51.6</ele>
        <time>2021-03-26T16:29:11Z</time>
      </trkpt>
      <trkpt lat="46.0689" lon="-0.35604">
        <ele>51.8</ele>
        <time>2021-03-26T16:29:12Z</time>
      </trkpt>
      <trkpt lat="46.06885" lon="-0.35609">
        <ele>52.4</ele>
        <time>2021-03-26T16:29:14Z</time>
      </trkpt>
      <trkpt lat="46.06883" lon="-0.35611">
        <ele>52.6</ele>
        <time>2021-03-26T16:29:15Z</time>
      </trkpt>
      <trkpt lat="46.06882" lon="-0.35614">
        <ele>52.6</ele>
        <time>2021-03-26T16:29:16Z</time>
      </trkpt>
      <trkpt lat="46.06879" lon="-0.35618">
        <ele>52.8</ele>
        <time>2021-03-26T16:29:17Z</time>
      </trkpt>
      <trkpt lat="46.06875" lon="-0.35621">
        <ele>53</ele>
        <time>2021-03-26T16:29:18Z</time>
      </trkpt>
      <trkpt lat="46.06871" lon="-0.35621">
        <ele>53.2</ele>
        <time>2021-03-26T16:29:19Z</time>
      </trkpt>
      <trkpt lat="46.06868" lon="-0.3562">
        <ele>53.4</ele>
        <time>2021-03-26T16:29:20Z</time>
      </trkpt>
      <trkpt lat="46.06866" lon="-0.35619">
        <ele>53.6</ele>
        <time>2021-03-26T16:29:21Z</time>
      </trkpt>
      <trkpt lat="46.06863" lon="-0.35619">
        <ele>53.6</ele>
        <time>2021-03-26T16:29:22Z</time>
      </trkpt>
      <trkpt lat="46.0686" lon="-0.35618">
        <ele>53.6</ele>
        <time>2021-03-26T16:29:23Z</time>
      </trkpt>
      <trkpt lat="46.06855" lon="-0.35618">
        <ele>53.6</ele>
        <time>2021-03-26T16:29:24Z</time>
      </trkpt>
      <trkpt lat="46.06849" lon="-0.35617">
        <ele>53.6</ele>
        <time>2021-03-26T16:29:25Z</time>
      </trkpt>
      <trkpt lat="46.06844" lon="-0.35614">
        <ele>53.6</ele>
        <time>2021-03-26T16:29:26Z</time>
      </trkpt>
      <trkpt lat="46.06835" lon="-0.35606">
        <ele>53.6</ele>
        <time>2021-03-26T16:29:28Z</time>
      </trkpt>
      <trkpt lat="46.0683" lon="-0.35602">
        <ele>53.6</ele>
        <time>2021-03-26T16:29:29Z</time>
      </trkpt>
      <trkpt lat="46.06827" lon="-0.35599">
        <ele>53.6</ele>
        <time>2021-03-26T16:29:30Z</time>
      </trkpt>
      <trkpt lat="46.06824" lon="-0.35596">
        <ele>53.6</ele>
        <time>2021-03-26T16:29:31Z</time>
      </trkpt>
      <trkpt lat="46.06821" lon="-0.35592">
        <ele>53.6</ele>
        <time>2021-03-26T16:29:32Z</time>
      </trkpt>
      <trkpt lat="46.06818" lon="-0.35588">
        <ele>53.6</ele>
        <time>2021-03-26T16:29:33Z</time>
      </trkpt>
      <trkpt lat="46.06816" lon="-0.35584">
        <ele>53.6</ele>
        <time>2021-03-26T16:29:34Z</time>
      </trkpt>
      <trkpt lat="46.06815" lon="-0.35578">
        <ele>53.6</ele>
        <time>2021-03-26T16:29:35Z</time>
      </trkpt>
      <trkpt lat="46.06813" lon="-0.35572">
        <ele>53.6</ele>
        <time>2021-03-26T16:29:36Z</time>
      </trkpt>
      <trkpt lat="46.06811" lon="-0.35565">
        <ele>53.4</ele>
        <time>2021-03-26T16:29:37Z</time>
      </trkpt>
      <trkpt lat="46.06805" lon="-0.3555">
        <ele>53.2</ele>
        <time>2021-03-26T16:29:39Z</time>
      </trkpt>
      <trkpt lat="46.06795" lon="-0.35542">
        <ele>52.6</ele>
        <time>2021-03-26T16:29:41Z</time>
      </trkpt>
      <trkpt lat="46.06791" lon="-0.35541">
        <ele>52.2</ele>
        <time>2021-03-26T16:29:42Z</time>
      </trkpt>
      <trkpt lat="46.06786" lon="-0.35542">
        <ele>52</ele>
        <time>2021-03-26T16:29:43Z</time>
      </trkpt>
      <trkpt lat="46.06783" lon="-0.35545">
        <ele>51.8</ele>
        <time>2021-03-26T16:29:44Z</time>
      </trkpt>
      <trkpt lat="46.0678" lon="-0.35551">
        <ele>51.8</ele>
        <time>2021-03-26T16:29:45Z</time>
      </trkpt>
      <trkpt lat="46.06778" lon="-0.35557">
        <ele>51.8</ele>
        <time>2021-03-26T16:29:46Z</time>
      </trkpt>
      <trkpt lat="46.06777" lon="-0.35563">
        <ele>51.8</ele>
        <time>2021-03-26T16:29:47Z</time>
      </trkpt>
      <trkpt lat="46.06777" lon="-0.35571">
        <ele>51.8</ele>
        <time>2021-03-26T16:29:48Z</time>
      </trkpt>
      <trkpt lat="46.06776" lon="-0.35578">
        <ele>51.8</ele>
        <time>2021-03-26T16:29:49Z</time>
      </trkpt>
      <trkpt lat="46.06774" lon="-0.35586">
        <ele>51.8</ele>
        <time>2021-03-26T16:29:50Z</time>
      </trkpt>
      <trkpt lat="46.06773" lon="-0.35593">
        <ele>51.8</ele>
        <time>2021-03-26T16:29:51Z</time>
      </trkpt>
      <trkpt lat="46.06772" lon="-0.35598">
        <ele>51.8</ele>
        <time>2021-03-26T16:29:52Z</time>
      </trkpt>
      <trkpt lat="46.06771" lon="-0.35603">
        <ele>51.8</ele>
        <time>2021-03-26T16:29:53Z</time>
      </trkpt>
      <trkpt lat="46.0677" lon="-0.3561">
        <ele>51.8</ele>
        <time>2021-03-26T16:29:54Z</time>
      </trkpt>
      <trkpt lat="46.06767" lon="-0.35622">
        <ele>51.8</ele>
        <time>2021-03-26T16:29:56Z</time>
      </trkpt>
      <trkpt lat="46.06761" lon="-0.35629">
        <ele>51.8</ele>
        <time>2021-03-26T16:29:57Z</time>
      </trkpt>
      <trkpt lat="46.06756" lon="-0.35637">
        <ele>51.8</ele>
        <time>2021-03-26T16:29:58Z</time>
      </trkpt>
      <trkpt lat="46.06751" lon="-0.35644">
        <ele>52.2</ele>
        <time>2021-03-26T16:29:59Z</time>
      </trkpt>
      <trkpt lat="46.06746" lon="-0.3565">
        <ele>52.6</ele>
        <time>2021-03-26T16:30:00Z</time>
      </trkpt>
      <trkpt lat="46.06742" lon="-0.35655">
        <ele>53</ele>
        <time>2021-03-26T16:30:01Z</time>
      </trkpt>
      <trkpt lat="46.06738" lon="-0.3566">
        <ele>53.2</ele>
        <time>2021-03-26T16:30:02Z</time>
      </trkpt>
      <trkpt lat="46.06736" lon="-0.35662">
        <ele>53.4</ele>
        <time>2021-03-26T16:30:03Z</time>
      </trkpt>
      <trkpt lat="46.06734" lon="-0.35664">
        <ele>53.6</ele>
        <time>2021-03-26T16:30:04Z</time>
      </trkpt>
      <trkpt lat="46.06734" lon="-0.35665">
        <ele>53.6</ele>
        <time>2021-03-26T16:30:05Z</time>
      </trkpt>
      <trkpt lat="46.06734" lon="-0.35665">
        <ele>53.8</ele>
        <time>2021-03-26T16:30:06Z</time>
      </trkpt>
      <trkpt lat="46.06734" lon="-0.35665">
        <ele>53.8</ele>
        <time>2021-03-26T16:30:07Z</time>
      </trkpt>
      <trkpt lat="46.06734" lon="-0.35667">
        <ele>53.8</ele>
        <time>2021-03-26T16:30:08Z</time>
      </trkpt>
      <trkpt lat="46.06735" lon="-0.35668">
        <ele>54</ele>
        <time>2021-03-26T16:30:09Z</time>
      </trkpt>
      <trkpt lat="46.06736" lon="-0.35669">
        <ele>54.4</ele>
        <time>2021-03-26T16:30:10Z</time>
      </trkpt>
      <trkpt lat="46.06738" lon="-0.3567">
        <ele>55.6</ele>
        <time>2021-03-26T16:30:11Z</time>
      </trkpt>
      <trkpt lat="46.06739" lon="-0.35672">
        <ele>56.6</ele>
        <time>2021-03-26T16:30:12Z</time>
      </trkpt>
      <trkpt lat="46.06742" lon="-0.35675">
        <ele>57.4</ele>
        <time>2021-03-26T16:30:14Z</time>
      </trkpt>
      <trkpt lat="46.06744" lon="-0.35678">
        <ele>57.6</ele>
        <time>2021-03-26T16:30:15Z</time>
      </trkpt>
      <trkpt lat="46.06747" lon="-0.35681">
        <ele>57.6</ele>
        <time>2021-03-26T16:30:16Z</time>
      </trkpt>
      <trkpt lat="46.06751" lon="-0.35684">
        <ele>57.8</ele>
        <time>2021-03-26T16:30:17Z</time>
      </trkpt>
      <trkpt lat="46.06755" lon="-0.35688">
        <ele>57.8</ele>
        <time>2021-03-26T16:30:18Z</time>
      </trkpt>
      <trkpt lat="46.06759" lon="-0.35693">
        <ele>57.8</ele>
        <time>2021-03-26T16:30:19Z</time>
      </trkpt>
      <trkpt lat="46.06764" lon="-0.35698">
        <ele>57.8</ele>
        <time>2021-03-26T16:30:20Z</time>
      </trkpt>
      <trkpt lat="46.06768" lon="-0.35704">
        <ele>57.8</ele>
        <time>2021-03-26T16:30:21Z</time>
      </trkpt>
      <trkpt lat="46.06772" lon="-0.3571">
        <ele>57.8</ele>
        <time>2021-03-26T16:30:22Z</time>
      </trkpt>
      <trkpt lat="46.06776" lon="-0.35716">
        <ele>57.8</ele>
        <time>2021-03-26T16:30:23Z</time>
      </trkpt>
      <trkpt lat="46.06781" lon="-0.35723">
        <ele>57.8</ele>
        <time>2021-03-26T16:30:24Z</time>
      </trkpt>
      <trkpt lat="46.06785" lon="-0.3573">
        <ele>57.6</ele>
        <time>2021-03-26T16:30:25Z</time>
      </trkpt>
      <trkpt lat="46.06789" lon="-0.35736">
        <ele>57.6</ele>
        <time>2021-03-26T16:30:26Z</time>
      </trkpt>
      <trkpt lat="46.06795" lon="-0.35743">
        <ele>57.4</ele>
        <time>2021-03-26T16:30:27Z</time>
      </trkpt>
      <trkpt lat="46.068" lon="-0.3575">
        <ele>57.2</ele>
        <time>2021-03-26T16:30:28Z</time>
      </trkpt>
      <trkpt lat="46.06805" lon="-0.35756">
        <ele>57.2</ele>
        <time>2021-03-26T16:30:29Z</time>
      </trkpt>
      <trkpt lat="46.0681" lon="-0.35763">
        <ele>57.2</ele>
        <time>2021-03-26T16:30:30Z</time>
      </trkpt>
      <trkpt lat="46.06813" lon="-0.35769">
        <ele>57.2</ele>
        <time>2021-03-26T16:30:31Z</time>
      </trkpt>
      <trkpt lat="46.06815" lon="-0.35775">
        <ele>57.2</ele>
        <time>2021-03-26T16:30:32Z</time>
      </trkpt>
      <trkpt lat="46.06817" lon="-0.35781">
        <ele>57.2</ele>
        <time>2021-03-26T16:30:33Z</time>
      </trkpt>
      <trkpt lat="46.06817" lon="-0.35787">
        <ele>57.2</ele>
        <time>2021-03-26T16:30:34Z</time>
      </trkpt>
      <trkpt lat="46.06816" lon="-0.35794">
        <ele>57.4</ele>
        <time>2021-03-26T16:30:35Z</time>
      </trkpt>
      <trkpt lat="46.06814" lon="-0.35803">
        <ele>57.4</ele>
        <time>2021-03-26T16:30:36Z</time>
      </trkpt>
      <trkpt lat="46.06813" lon="-0.35811">
        <ele>57.6</ele>
        <time>2021-03-26T16:30:37Z</time>
      </trkpt>
      <trkpt lat="46.06812" lon="-0.35818">
        <ele>57.6</ele>
        <time>2021-03-26T16:30:38Z</time>
      </trkpt>
      <trkpt lat="46.06811" lon="-0.35826">
        <ele>57.6</ele>
        <time>2021-03-26T16:30:39Z</time>
      </trkpt>
      <trkpt lat="46.06811" lon="-0.35841">
        <ele>58</ele>
        <time>2021-03-26T16:30:41Z</time>
      </trkpt>
      <trkpt lat="46.06813" lon="-0.35848">
        <ele>58.4</ele>
        <time>2021-03-26T16:30:42Z</time>
      </trkpt>
      <trkpt lat="46.06816" lon="-0.35855">
        <ele>58.8</ele>
        <time>2021-03-26T16:30:43Z</time>
      </trkpt>
      <trkpt lat="46.06818" lon="-0.35863">
        <ele>59</ele>
        <time>2021-03-26T16:30:44Z</time>
      </trkpt>
      <trkpt lat="46.06818" lon="-0.3587">
        <ele>59.4</ele>
        <time>2021-03-26T16:30:45Z</time>
      </trkpt>
      <trkpt lat="46.06817" lon="-0.35876">
        <ele>59.8</ele>
        <time>2021-03-26T16:30:46Z</time>
      </trkpt>
      <trkpt lat="46.06814" lon="-0.35882">
        <ele>60.2</ele>
        <time>2021-03-26T16:30:47Z</time>
      </trkpt>
      <trkpt lat="46.06812" lon="-0.35887">
        <ele>60.2</ele>
        <time>2021-03-26T16:30:48Z</time>
      </trkpt>
      <trkpt lat="46.06807" lon="-0.35892">
        <ele>60.4</ele>
        <time>2021-03-26T16:30:49Z</time>
      </trkpt>
      <trkpt lat="46.06801" lon="-0.35897">
        <ele>60.6</ele>
        <time>2021-03-26T16:30:50Z</time>
      </trkpt>
      <trkpt lat="46.06795" lon="-0.359">
        <ele>60.6</ele>
        <time>2021-03-26T16:30:51Z</time>
      </trkpt>
      <trkpt lat="46.06788" lon="-0.35903">
        <ele>60.8</ele>
        <time>2021-03-26T16:30:52Z</time>
      </trkpt>
      <trkpt lat="46.06782" lon="-0.35906">
        <ele>61</ele>
        <time>2021-03-26T16:30:53Z</time>
      </trkpt>
      <trkpt lat="46.06777" lon="-0.35909">
        <ele>61.2</ele>
        <time>2021-03-26T16:30:54Z</time>
      </trkpt>
      <trkpt lat="46.06772" lon="-0.35912">
        <ele>61.4</ele>
        <time>2021-03-26T16:30:55Z</time>
      </trkpt>
      <trkpt lat="46.06767" lon="-0.35915">
        <ele>61.4</ele>
        <time>2021-03-26T16:30:56Z</time>
      </trkpt>
      <trkpt lat="46.06762" lon="-0.3592">
        <ele>61.6</ele>
        <time>2021-03-26T16:30:57Z</time>
      </trkpt>
      <trkpt lat="46.06758" lon="-0.35925">
        <ele>61.6</ele>
        <time>2021-03-26T16:30:58Z</time>
      </trkpt>
      <trkpt lat="46.06755" lon="-0.35928">
        <ele>61.8</ele>
        <time>2021-03-26T16:30:59Z</time>
      </trkpt>
      <trkpt lat="46.06753" lon="-0.35929">
        <ele>62</ele>
        <time>2021-03-26T16:31:00Z</time>
      </trkpt>
      <trkpt lat="46.0675" lon="-0.3593">
        <ele>62.2</ele>
        <time>2021-03-26T16:31:01Z</time>
      </trkpt>
      <trkpt lat="46.06749" lon="-0.35931">
        <ele>62.4</ele>
        <time>2021-03-26T16:31:02Z</time>
      </trkpt>
      <trkpt lat="46.06748" lon="-0.35932">
        <ele>63</ele>
        <time>2021-03-26T16:31:03Z</time>
      </trkpt>
      <trkpt lat="46.06748" lon="-0.35932">
        <ele>63.4</ele>
        <time>2021-03-26T16:31:04Z</time>
      </trkpt>
      <trkpt lat="46.06743" lon="-0.35932">
        <ele>65</ele>
        <time>2021-03-26T16:31:07Z</time>
      </trkpt>
      <trkpt lat="46.06739" lon="-0.35929">
        <ele>65.4</ele>
        <time>2021-03-26T16:31:08Z</time>
      </trkpt>
      <trkpt lat="46.06733" lon="-0.35926">
        <ele>65.4</ele>
        <time>2021-03-26T16:31:09Z</time>
      </trkpt>
      <trkpt lat="46.06728" lon="-0.35922">
        <ele>65.6</ele>
        <time>2021-03-26T16:31:10Z</time>
      </trkpt>
      <trkpt lat="46.06723" lon="-0.35917">
        <ele>65.6</ele>
        <time>2021-03-26T16:31:11Z</time>
      </trkpt>
      <trkpt lat="46.06718" lon="-0.35911">
        <ele>65.6</ele>
        <time>2021-03-26T16:31:12Z</time>
      </trkpt>
      <trkpt lat="46.06713" lon="-0.35907">
        <ele>65.6</ele>
        <time>2021-03-26T16:31:13Z</time>
      </trkpt>
      <trkpt lat="46.06709" lon="-0.35904">
        <ele>66</ele>
        <time>2021-03-26T16:31:14Z</time>
      </trkpt>
      <trkpt lat="46.06705" lon="-0.35902">
        <ele>66.2</ele>
        <time>2021-03-26T16:31:15Z</time>
      </trkpt>
      <trkpt lat="46.06703" lon="-0.35902">
        <ele>66.4</ele>
        <time>2021-03-26T16:31:16Z</time>
      </trkpt>
      <trkpt lat="46.06702" lon="-0.35902">
        <ele>66.4</ele>
        <time>2021-03-26T16:31:17Z</time>
      </trkpt>
      <trkpt lat="46.06702" lon="-0.35902">
        <ele>66.6</ele>
        <time>2021-03-26T16:31:18Z</time>
      </trkpt>
      <trkpt lat="46.06702" lon="-0.35902">
        <ele>66.6</ele>
        <time>2021-03-26T16:31:19Z</time>
      </trkpt>
      <trkpt lat="46.06702" lon="-0.35913">
        <ele>67</ele>
        <time>2021-03-26T16:31:30Z</time>
      </trkpt>
      <trkpt lat="46.06703" lon="-0.35917">
        <ele>67</ele>
        <time>2021-03-26T16:31:31Z</time>
      </trkpt>
      <trkpt lat="46.06704" lon="-0.35922">
        <ele>67.2</ele>
        <time>2021-03-26T16:31:32Z</time>
      </trkpt>
      <trkpt lat="46.06705" lon="-0.35928">
        <ele>67.2</ele>
        <time>2021-03-26T16:31:33Z</time>
      </trkpt>
      <trkpt lat="46.06705" lon="-0.35934">
        <ele>67.2</ele>
        <time>2021-03-26T16:31:34Z</time>
      </trkpt>
      <trkpt lat="46.06705" lon="-0.35941">
        <ele>67.2</ele>
        <time>2021-03-26T16:31:35Z</time>
      </trkpt>
      <trkpt lat="46.06705" lon="-0.35949">
        <ele>67.2</ele>
        <time>2021-03-26T16:31:36Z</time>
      </trkpt>
      <trkpt lat="46.06705" lon="-0.35956">
        <ele>67.2</ele>
        <time>2021-03-26T16:31:37Z</time>
      </trkpt>
      <trkpt lat="46.06705" lon="-0.35964">
        <ele>67</ele>
        <time>2021-03-26T16:31:38Z</time>
      </trkpt>
      <trkpt lat="46.06704" lon="-0.35977">
        <ele>67</ele>
        <time>2021-03-26T16:31:40Z</time>
      </trkpt>
      <trkpt lat="46.06704" lon="-0.35983">
        <ele>67.2</ele>
        <time>2021-03-26T16:31:41Z</time>
      </trkpt>
      <trkpt lat="46.06704" lon="-0.3599">
        <ele>67.2</ele>
        <time>2021-03-26T16:31:42Z</time>
      </trkpt>
      <trkpt lat="46.06704" lon="-0.35995">
        <ele>67.2</ele>
        <time>2021-03-26T16:31:43Z</time>
      </trkpt>
      <trkpt lat="46.06704" lon="-0.36001">
        <ele>67.2</ele>
        <time>2021-03-26T16:31:44Z</time>
      </trkpt>
      <trkpt lat="46.06704" lon="-0.36008">
        <ele>67.4</ele>
        <time>2021-03-26T16:31:45Z</time>
      </trkpt>
      <trkpt lat="46.06704" lon="-0.36015">
        <ele>67.4</ele>
        <time>2021-03-26T16:31:46Z</time>
      </trkpt>
      <trkpt lat="46.06704" lon="-0.36023">
        <ele>67.4</ele>
        <time>2021-03-26T16:31:47Z</time>
      </trkpt>
      <trkpt lat="46.06704" lon="-0.36034">
        <ele>67.4</ele>
        <time>2021-03-26T16:31:49Z</time>
      </trkpt>
      <trkpt lat="46.06703" lon="-0.36036">
        <ele>67.6</ele>
        <time>2021-03-26T16:31:50Z</time>
      </trkpt>
      <trkpt lat="46.06703" lon="-0.36036">
        <ele>67.6</ele>
        <time>2021-03-26T16:31:51Z</time>
      </trkpt>
      <trkpt lat="46.06703" lon="-0.36036">
        <ele>67.6</ele>
        <time>2021-03-26T16:31:52Z</time>
      </trkpt>
      <trkpt lat="46.06702" lon="-0.36037">
        <ele>67.8</ele>
        <time>2021-03-26T16:31:53Z</time>
      </trkpt>
      <trkpt lat="46.06703" lon="-0.36036">
        <ele>68</ele>
        <time>2021-03-26T16:31:54Z</time>
      </trkpt>
      <trkpt lat="46.06702" lon="-0.36035">
        <ele>68</ele>
        <time>2021-03-26T16:31:55Z</time>
      </trkpt>
      <trkpt lat="46.06702" lon="-0.36034">
        <ele>68.2</ele>
        <time>2021-03-26T16:31:56Z</time>
      </trkpt>
      <trkpt lat="46.067" lon="-0.36034">
        <ele>68.8</ele>
        <time>2021-03-26T16:31:58Z</time>
      </trkpt>
      <trkpt lat="46.067" lon="-0.36033">
        <ele>69</ele>
        <time>2021-03-26T16:31:59Z</time>
      </trkpt>
      <trkpt lat="46.067" lon="-0.36033">
        <ele>69</ele>
        <time>2021-03-26T16:32:00Z</time>
      </trkpt>
      <trkpt lat="46.067" lon="-0.36033">
        <ele>69.2</ele>
        <time>2021-03-26T16:32:01Z</time>
      </trkpt>
      <trkpt lat="46.067" lon="-0.36035">
        <ele>69.2</ele>
        <time>2021-03-26T16:32:02Z</time>
      </trkpt>
      <trkpt lat="46.067" lon="-0.36035">
        <ele>69.2</ele>
        <time>2021-03-26T16:32:03Z</time>
      </trkpt>
      <trkpt lat="46.06699" lon="-0.36038">
        <ele>69.2</ele>
        <time>2021-03-26T16:32:05Z</time>
      </trkpt>
      <trkpt lat="46.06699" lon="-0.36046">
        <ele>69.2</ele>
        <time>2021-03-26T16:32:08Z</time>
      </trkpt>
      <trkpt lat="46.06699" lon="-0.3605">
        <ele>69.2</ele>
        <time>2021-03-26T16:32:09Z</time>
      </trkpt>
      <trkpt lat="46.06701" lon="-0.36075">
        <ele>69.2</ele>
        <time>2021-03-26T16:32:13Z</time>
      </trkpt>
      <trkpt lat="46.06701" lon="-0.36092">
        <ele>69</ele>
        <time>2021-03-26T16:32:15Z</time>
      </trkpt>
      <trkpt lat="46.06701" lon="-0.36112">
        <ele>69</ele>
        <time>2021-03-26T16:32:17Z</time>
      </trkpt>
      <trkpt lat="46.06701" lon="-0.36122">
        <ele>69</ele>
        <time>2021-03-26T16:32:18Z</time>
      </trkpt>
      <trkpt lat="46.06702" lon="-0.3615">
        <ele>69</ele>
        <time>2021-03-26T16:32:21Z</time>
      </trkpt>
      <trkpt lat="46.06703" lon="-0.36158">
        <ele>69</ele>
        <time>2021-03-26T16:32:22Z</time>
      </trkpt>
      <trkpt lat="46.06703" lon="-0.36165">
        <ele>69</ele>
        <time>2021-03-26T16:32:23Z</time>
      </trkpt>
      <trkpt lat="46.06702" lon="-0.36172">
        <ele>69</ele>
        <time>2021-03-26T16:32:24Z</time>
      </trkpt>
      <trkpt lat="46.06702" lon="-0.36178">
        <ele>69</ele>
        <time>2021-03-26T16:32:25Z</time>
      </trkpt>
      <trkpt lat="46.067" lon="-0.36184">
        <ele>69</ele>
        <time>2021-03-26T16:32:26Z</time>
      </trkpt>
      <trkpt lat="46.067" lon="-0.3619">
        <ele>69</ele>
        <time>2021-03-26T16:32:27Z</time>
      </trkpt>
      <trkpt lat="46.067" lon="-0.36196">
        <ele>69</ele>
        <time>2021-03-26T16:32:28Z</time>
      </trkpt>
      <trkpt lat="46.06699" lon="-0.36201">
        <ele>69</ele>
        <time>2021-03-26T16:32:29Z</time>
      </trkpt>
      <trkpt lat="46.06698" lon="-0.36206">
        <ele>69.2</ele>
        <time>2021-03-26T16:32:30Z</time>
      </trkpt>
      <trkpt lat="46.06697" lon="-0.3621">
        <ele>69.2</ele>
        <time>2021-03-26T16:32:31Z</time>
      </trkpt>
      <trkpt lat="46.06697" lon="-0.36215">
        <ele>69.4</ele>
        <time>2021-03-26T16:32:32Z</time>
      </trkpt>
      <trkpt lat="46.06695" lon="-0.36221">
        <ele>69.6</ele>
        <time>2021-03-26T16:32:33Z</time>
      </trkpt>
      <trkpt lat="46.06694" lon="-0.36226">
        <ele>69.8</ele>
        <time>2021-03-26T16:32:34Z</time>
      </trkpt>
      <trkpt lat="46.06693" lon="-0.36231">
        <ele>70</ele>
        <time>2021-03-26T16:32:35Z</time>
      </trkpt>
      <trkpt lat="46.06693" lon="-0.36237">
        <ele>70</ele>
        <time>2021-03-26T16:32:36Z</time>
      </trkpt>
      <trkpt lat="46.06694" lon="-0.36245">
        <ele>70.2</ele>
        <time>2021-03-26T16:32:38Z</time>
      </trkpt>
      <trkpt lat="46.06694" lon="-0.36246">
        <ele>70.4</ele>
        <time>2021-03-26T16:32:39Z</time>
      </trkpt>
      <trkpt lat="46.06694" lon="-0.36246">
        <ele>70.4</ele>
        <time>2021-03-26T16:32:40Z</time>
      </trkpt>
      <trkpt lat="46.06696" lon="-0.36256">
        <ele>70.6</ele>
        <time>2021-03-26T16:32:46Z</time>
      </trkpt>
      <trkpt lat="46.06694" lon="-0.36266">
        <ele>70.6</ele>
        <time>2021-03-26T16:32:48Z</time>
      </trkpt>
      <trkpt lat="46.06692" lon="-0.36272">
        <ele>70.6</ele>
        <time>2021-03-26T16:32:49Z</time>
      </trkpt>
      <trkpt lat="46.06692" lon="-0.36278">
        <ele>70.6</ele>
        <time>2021-03-26T16:32:50Z</time>
      </trkpt>
      <trkpt lat="46.06691" lon="-0.36283">
        <ele>70.6</ele>
        <time>2021-03-26T16:32:51Z</time>
      </trkpt>
      <trkpt lat="46.0669" lon="-0.36288">
        <ele>70.6</ele>
        <time>2021-03-26T16:32:52Z</time>
      </trkpt>
      <trkpt lat="46.06689" lon="-0.36292">
        <ele>70.6</ele>
        <time>2021-03-26T16:32:53Z</time>
      </trkpt>
      <trkpt lat="46.06688" lon="-0.36297">
        <ele>70.8</ele>
        <time>2021-03-26T16:32:54Z</time>
      </trkpt>
      <trkpt lat="46.06688" lon="-0.36302">
        <ele>70.8</ele>
        <time>2021-03-26T16:32:55Z</time>
      </trkpt>
      <trkpt lat="46.06687" lon="-0.36306">
        <ele>70.8</ele>
        <time>2021-03-26T16:32:56Z</time>
      </trkpt>
      <trkpt lat="46.06686" lon="-0.3631">
        <ele>70.8</ele>
        <time>2021-03-26T16:32:57Z</time>
      </trkpt>
      <trkpt lat="46.06685" lon="-0.36313">
        <ele>70.8</ele>
        <time>2021-03-26T16:32:58Z</time>
      </trkpt>
      <trkpt lat="46.06685" lon="-0.36318">
        <ele>70.8</ele>
        <time>2021-03-26T16:32:59Z</time>
      </trkpt>
      <trkpt lat="46.06683" lon="-0.36327">
        <ele>70.8</ele>
        <time>2021-03-26T16:33:01Z</time>
      </trkpt>
      <trkpt lat="46.0668" lon="-0.36349">
        <ele>70.8</ele>
        <time>2021-03-26T16:33:04Z</time>
      </trkpt>
      <trkpt lat="46.06678" lon="-0.36358">
        <ele>70.8</ele>
        <time>2021-03-26T16:33:05Z</time>
      </trkpt>
      <trkpt lat="46.06672" lon="-0.36376">
        <ele>70.8</ele>
        <time>2021-03-26T16:33:07Z</time>
      </trkpt>
      <trkpt lat="46.06667" lon="-0.36392">
        <ele>70.6</ele>
        <time>2021-03-26T16:33:09Z</time>
      </trkpt>
      <trkpt lat="46.06666" lon="-0.36399">
        <ele>70.6</ele>
        <time>2021-03-26T16:33:10Z</time>
      </trkpt>
      <trkpt lat="46.06666" lon="-0.36406">
        <ele>70.6</ele>
        <time>2021-03-26T16:33:11Z</time>
      </trkpt>
      <trkpt lat="46.06665" lon="-0.3641">
        <ele>70.8</ele>
        <time>2021-03-26T16:33:12Z</time>
      </trkpt>
      <trkpt lat="46.06664" lon="-0.36412">
        <ele>70.8</ele>
        <time>2021-03-26T16:33:13Z</time>
      </trkpt>
      <trkpt lat="46.06664" lon="-0.36412">
        <ele>70.8</ele>
        <time>2021-03-26T16:33:14Z</time>
      </trkpt>
      <trkpt lat="46.06663" lon="-0.36412">
        <ele>70.8</ele>
        <time>2021-03-26T16:33:15Z</time>
      </trkpt>
      <trkpt lat="46.06661" lon="-0.36412">
        <ele>70.8</ele>
        <time>2021-03-26T16:33:16Z</time>
      </trkpt>
      <trkpt lat="46.06659" lon="-0.36412">
        <ele>70.8</ele>
        <time>2021-03-26T16:33:17Z</time>
      </trkpt>
      <trkpt lat="46.06658" lon="-0.36412">
        <ele>70.8</ele>
        <time>2021-03-26T16:33:18Z</time>
      </trkpt>
      <trkpt lat="46.06654" lon="-0.36414">
        <ele>71.2</ele>
        <time>2021-03-26T16:33:21Z</time>
      </trkpt>
      <trkpt lat="46.06654" lon="-0.36414">
        <ele>71.4</ele>
        <time>2021-03-26T16:33:22Z</time>
      </trkpt>
      <trkpt lat="46.06653" lon="-0.36415">
        <ele>71.6</ele>
        <time>2021-03-26T16:33:23Z</time>
      </trkpt>
      <trkpt lat="46.06652" lon="-0.36417">
        <ele>71.6</ele>
        <time>2021-03-26T16:33:24Z</time>
      </trkpt>
      <trkpt lat="46.06651" lon="-0.3642">
        <ele>71.8</ele>
        <time>2021-03-26T16:33:25Z</time>
      </trkpt>
      <trkpt lat="46.0665" lon="-0.36424">
        <ele>71.8</ele>
        <time>2021-03-26T16:33:26Z</time>
      </trkpt>
      <trkpt lat="46.06649" lon="-0.36428">
        <ele>72</ele>
        <time>2021-03-26T16:33:27Z</time>
      </trkpt>
      <trkpt lat="46.06647" lon="-0.36431">
        <ele>72</ele>
        <time>2021-03-26T16:33:28Z</time>
      </trkpt>
      <trkpt lat="46.06644" lon="-0.36433">
        <ele>72</ele>
        <time>2021-03-26T16:33:30Z</time>
      </trkpt>
      <trkpt lat="46.06644" lon="-0.36433">
        <ele>72</ele>
        <time>2021-03-26T16:33:31Z</time>
      </trkpt>
      <trkpt lat="46.06643" lon="-0.36433">
        <ele>72</ele>
        <time>2021-03-26T16:33:32Z</time>
      </trkpt>
      <trkpt lat="46.06642" lon="-0.36433">
        <ele>72</ele>
        <time>2021-03-26T16:33:33Z</time>
      </trkpt>
      <trkpt lat="46.06642" lon="-0.36432">
        <ele>72</ele>
        <time>2021-03-26T16:33:34Z</time>
      </trkpt>
      <trkpt lat="46.06641" lon="-0.36432">
        <ele>72</ele>
        <time>2021-03-26T16:33:35Z</time>
      </trkpt>
      <trkpt lat="46.06641" lon="-0.36432">
        <ele>72</ele>
        <time>2021-03-26T16:33:36Z</time>
      </trkpt>
      <trkpt lat="46.06641" lon="-0.36432">
        <ele>71.8</ele>
        <time>2021-03-26T16:33:37Z</time>
      </trkpt>
      <trkpt lat="46.0664" lon="-0.36432">
        <ele>71.8</ele>
        <time>2021-03-26T16:33:38Z</time>
      </trkpt>
      <trkpt lat="46.06639" lon="-0.36432">
        <ele>71.8</ele>
        <time>2021-03-26T16:33:39Z</time>
      </trkpt>
      <trkpt lat="46.06637" lon="-0.36432">
        <ele>71.8</ele>
        <time>2021-03-26T16:33:40Z</time>
      </trkpt>
      <trkpt lat="46.06634" lon="-0.36431">
        <ele>71.8</ele>
        <time>2021-03-26T16:33:41Z</time>
      </trkpt>
      <trkpt lat="46.0663" lon="-0.36428">
        <ele>71.8</ele>
        <time>2021-03-26T16:33:43Z</time>
      </trkpt>
      <trkpt lat="46.06629" lon="-0.36425">
        <ele>71.8</ele>
        <time>2021-03-26T16:33:44Z</time>
      </trkpt>
      <trkpt lat="46.06627" lon="-0.36423">
        <ele>71.8</ele>
        <time>2021-03-26T16:33:45Z</time>
      </trkpt>
      <trkpt lat="46.06626" lon="-0.3642">
        <ele>71.8</ele>
        <time>2021-03-26T16:33:46Z</time>
      </trkpt>
      <trkpt lat="46.06622" lon="-0.36413">
        <ele>71.8</ele>
        <time>2021-03-26T16:33:49Z</time>
      </trkpt>
      <trkpt lat="46.06621" lon="-0.36413">
        <ele>71.8</ele>
        <time>2021-03-26T16:33:50Z</time>
      </trkpt>
      <trkpt lat="46.0662" lon="-0.36414">
        <ele>71.8</ele>
        <time>2021-03-26T16:33:51Z</time>
      </trkpt>
      <trkpt lat="46.06619" lon="-0.36416">
        <ele>71.8</ele>
        <time>2021-03-26T16:33:52Z</time>
      </trkpt>
      <trkpt lat="46.06613" lon="-0.36425">
        <ele>71.8</ele>
        <time>2021-03-26T16:33:55Z</time>
      </trkpt>
      <trkpt lat="46.06611" lon="-0.36426">
        <ele>71.6</ele>
        <time>2021-03-26T16:33:56Z</time>
      </trkpt>
      <trkpt lat="46.06605" lon="-0.36427">
        <ele>71.4</ele>
        <time>2021-03-26T16:33:58Z</time>
      </trkpt>
      <trkpt lat="46.06602" lon="-0.36428">
        <ele>71.4</ele>
        <time>2021-03-26T16:33:59Z</time>
      </trkpt>
      <trkpt lat="46.06593" lon="-0.36429">
        <ele>71.6</ele>
        <time>2021-03-26T16:34:03Z</time>
      </trkpt>
      <trkpt lat="46.06593" lon="-0.36429">
        <ele>71.6</ele>
        <time>2021-03-26T16:34:04Z</time>
      </trkpt>
      <trkpt lat="46.06593" lon="-0.36429">
        <ele>71.8</ele>
        <time>2021-03-26T16:34:05Z</time>
      </trkpt>
      <trkpt lat="46.06593" lon="-0.36429">
        <ele>71.8</ele>
        <time>2021-03-26T16:34:06Z</time>
      </trkpt>
      <trkpt lat="46.06592" lon="-0.36429">
        <ele>72</ele>
        <time>2021-03-26T16:34:07Z</time>
      </trkpt>
      <trkpt lat="46.06589" lon="-0.36429">
        <ele>72</ele>
        <time>2021-03-26T16:34:08Z</time>
      </trkpt>
      <trkpt lat="46.06587" lon="-0.3643">
        <ele>72</ele>
        <time>2021-03-26T16:34:09Z</time>
      </trkpt>
      <trkpt lat="46.0658" lon="-0.36432">
        <ele>71.8</ele>
        <time>2021-03-26T16:34:11Z</time>
      </trkpt>
      <trkpt lat="46.06578" lon="-0.36433">
        <ele>71.8</ele>
        <time>2021-03-26T16:34:12Z</time>
      </trkpt>
      <trkpt lat="46.06576" lon="-0.36435">
        <ele>71.8</ele>
        <time>2021-03-26T16:34:13Z</time>
      </trkpt>
      <trkpt lat="46.06575" lon="-0.36437">
        <ele>71.8</ele>
        <time>2021-03-26T16:34:14Z</time>
      </trkpt>
      <trkpt lat="46.06572" lon="-0.36438">
        <ele>71.8</ele>
        <time>2021-03-26T16:34:15Z</time>
      </trkpt>
      <trkpt lat="46.06569" lon="-0.36438">
        <ele>71.8</ele>
        <time>2021-03-26T16:34:16Z</time>
      </trkpt>
      <trkpt lat="46.06566" lon="-0.36437">
        <ele>71.8</ele>
        <time>2021-03-26T16:34:17Z</time>
      </trkpt>
      <trkpt lat="46.06564" lon="-0.36435">
        <ele>72</ele>
        <time>2021-03-26T16:34:18Z</time>
      </trkpt>
      <trkpt lat="46.06564" lon="-0.36432">
        <ele>72</ele>
        <time>2021-03-26T16:34:19Z</time>
      </trkpt>
      <trkpt lat="46.06564" lon="-0.36429">
        <ele>72</ele>
        <time>2021-03-26T16:34:20Z</time>
      </trkpt>
      <trkpt lat="46.06564" lon="-0.36425">
        <ele>72.2</ele>
        <time>2021-03-26T16:34:21Z</time>
      </trkpt>
      <trkpt lat="46.06563" lon="-0.36422">
        <ele>72.2</ele>
        <time>2021-03-26T16:34:22Z</time>
      </trkpt>
      <trkpt lat="46.06562" lon="-0.36419">
        <ele>72.2</ele>
        <time>2021-03-26T16:34:23Z</time>
      </trkpt>
      <trkpt lat="46.06561" lon="-0.36415">
        <ele>72.2</ele>
        <time>2021-03-26T16:34:24Z</time>
      </trkpt>
      <trkpt lat="46.0656" lon="-0.36411">
        <ele>72.2</ele>
        <time>2021-03-26T16:34:25Z</time>
      </trkpt>
      <trkpt lat="46.06558" lon="-0.36401">
        <ele>72.2</ele>
        <time>2021-03-26T16:34:27Z</time>
      </trkpt>
      <trkpt lat="46.06556" lon="-0.36399">
        <ele>72</ele>
        <time>2021-03-26T16:34:28Z</time>
      </trkpt>
      <trkpt lat="46.06553" lon="-0.36396">
        <ele>72</ele>
        <time>2021-03-26T16:34:29Z</time>
      </trkpt>
      <trkpt lat="46.06551" lon="-0.36394">
        <ele>72.2</ele>
        <time>2021-03-26T16:34:30Z</time>
      </trkpt>
      <trkpt lat="46.06547" lon="-0.36397">
        <ele>72.2</ele>
        <time>2021-03-26T16:34:32Z</time>
      </trkpt>
      <trkpt lat="46.06546" lon="-0.36402">
        <ele>72.2</ele>
        <time>2021-03-26T16:34:33Z</time>
      </trkpt>
      <trkpt lat="46.06545" lon="-0.36412">
        <ele>72.2</ele>
        <time>2021-03-26T16:34:35Z</time>
      </trkpt>
      <trkpt lat="46.06542" lon="-0.36424">
        <ele>72.2</ele>
        <time>2021-03-26T16:34:38Z</time>
      </trkpt>
      <trkpt lat="46.06541" lon="-0.36427">
        <ele>72.2</ele>
        <time>2021-03-26T16:34:39Z</time>
      </trkpt>
      <trkpt lat="46.06541" lon="-0.3643">
        <ele>72.2</ele>
        <time>2021-03-26T16:34:40Z</time>
      </trkpt>
      <trkpt lat="46.06541" lon="-0.36433">
        <ele>72.2</ele>
        <time>2021-03-26T16:34:41Z</time>
      </trkpt>
      <trkpt lat="46.0654" lon="-0.36434">
        <ele>72.2</ele>
        <time>2021-03-26T16:34:42Z</time>
      </trkpt>
      <trkpt lat="46.06538" lon="-0.36435">
        <ele>72</ele>
        <time>2021-03-26T16:34:43Z</time>
      </trkpt>
      <trkpt lat="46.06536" lon="-0.36435">
        <ele>72</ele>
        <time>2021-03-26T16:34:44Z</time>
      </trkpt>
      <trkpt lat="46.06525" lon="-0.36439">
        <ele>71.8</ele>
        <time>2021-03-26T16:34:48Z</time>
      </trkpt>
      <trkpt lat="46.06523" lon="-0.36441">
        <ele>71.6</ele>
        <time>2021-03-26T16:34:49Z</time>
      </trkpt>
      <trkpt lat="46.0652" lon="-0.36442">
        <ele>71.6</ele>
        <time>2021-03-26T16:34:50Z</time>
      </trkpt>
      <trkpt lat="46.06515" lon="-0.3644">
        <ele>71.6</ele>
        <time>2021-03-26T16:34:52Z</time>
      </trkpt>
      <trkpt lat="46.06515" lon="-0.36436">
        <ele>71.6</ele>
        <time>2021-03-26T16:34:54Z</time>
      </trkpt>
      <trkpt lat="46.06513" lon="-0.36434">
        <ele>71.6</ele>
        <time>2021-03-26T16:34:55Z</time>
      </trkpt>
      <trkpt lat="46.06509" lon="-0.36431">
        <ele>71.4</ele>
        <time>2021-03-26T16:34:57Z</time>
      </trkpt>
      <trkpt lat="46.06508" lon="-0.36431">
        <ele>71.4</ele>
        <time>2021-03-26T16:34:58Z</time>
      </trkpt>
      <trkpt lat="46.06506" lon="-0.36433">
        <ele>71.2</ele>
        <time>2021-03-26T16:34:59Z</time>
      </trkpt>
      <trkpt lat="46.06505" lon="-0.36434">
        <ele>71.2</ele>
        <time>2021-03-26T16:35:00Z</time>
      </trkpt>
      <trkpt lat="46.06503" lon="-0.36434">
        <ele>71.2</ele>
        <time>2021-03-26T16:35:01Z</time>
      </trkpt>
      <trkpt lat="46.06501" lon="-0.36435">
        <ele>71.2</ele>
        <time>2021-03-26T16:35:02Z</time>
      </trkpt>
      <trkpt lat="46.06499" lon="-0.36437">
        <ele>71</ele>
        <time>2021-03-26T16:35:03Z</time>
      </trkpt>
      <trkpt lat="46.06497" lon="-0.36438">
        <ele>71</ele>
        <time>2021-03-26T16:35:04Z</time>
      </trkpt>
      <trkpt lat="46.06495" lon="-0.3644">
        <ele>71</ele>
        <time>2021-03-26T16:35:05Z</time>
      </trkpt>
      <trkpt lat="46.06493" lon="-0.36443">
        <ele>71</ele>
        <time>2021-03-26T16:35:06Z</time>
      </trkpt>
      <trkpt lat="46.06481" lon="-0.3645">
        <ele>70.8</ele>
        <time>2021-03-26T16:35:10Z</time>
      </trkpt>
      <trkpt lat="46.0648" lon="-0.36451">
        <ele>70.8</ele>
        <time>2021-03-26T16:35:11Z</time>
      </trkpt>
      <trkpt lat="46.06479" lon="-0.36454">
        <ele>70.8</ele>
        <time>2021-03-26T16:35:12Z</time>
      </trkpt>
      <trkpt lat="46.06478" lon="-0.3646">
        <ele>70.8</ele>
        <time>2021-03-26T16:35:13Z</time>
      </trkpt>
      <trkpt lat="46.06478" lon="-0.36463">
        <ele>70.6</ele>
        <time>2021-03-26T16:35:14Z</time>
      </trkpt>
      <trkpt lat="46.06479" lon="-0.36468">
        <ele>70.2</ele>
        <time>2021-03-26T16:35:17Z</time>
      </trkpt>
      <trkpt lat="46.06479" lon="-0.36468">
        <ele>70.2</ele>
        <time>2021-03-26T16:35:18Z</time>
      </trkpt>
      <trkpt lat="46.06479" lon="-0.36468">
        <ele>70.2</ele>
        <time>2021-03-26T16:35:19Z</time>
      </trkpt>
      <trkpt lat="46.06481" lon="-0.36468">
        <ele>70.2</ele>
        <time>2021-03-26T16:35:57Z</time>
      </trkpt>
      <trkpt lat="46.06484" lon="-0.36469">
        <ele>70.2</ele>
        <time>2021-03-26T16:35:58Z</time>
      </trkpt>
      <trkpt lat="46.06493" lon="-0.3648">
        <ele>70.2</ele>
        <time>2021-03-26T16:36:01Z</time>
      </trkpt>
      <trkpt lat="46.06495" lon="-0.36487">
        <ele>70.2</ele>
        <time>2021-03-26T16:36:02Z</time>
      </trkpt>
      <trkpt lat="46.06496" lon="-0.36496">
        <ele>70.2</ele>
        <time>2021-03-26T16:36:03Z</time>
      </trkpt>
      <trkpt lat="46.06497" lon="-0.36512">
        <ele>70.2</ele>
        <time>2021-03-26T16:36:05Z</time>
      </trkpt>
      <trkpt lat="46.06497" lon="-0.36521">
        <ele>70</ele>
        <time>2021-03-26T16:36:06Z</time>
      </trkpt>
      <trkpt lat="46.06497" lon="-0.36529">
        <ele>69.8</ele>
        <time>2021-03-26T16:36:07Z</time>
      </trkpt>
      <trkpt lat="46.06498" lon="-0.36538">
        <ele>69.6</ele>
        <time>2021-03-26T16:36:08Z</time>
      </trkpt>
      <trkpt lat="46.06499" lon="-0.36547">
        <ele>69.4</ele>
        <time>2021-03-26T16:36:09Z</time>
      </trkpt>
      <trkpt lat="46.06501" lon="-0.36556">
        <ele>69.2</ele>
        <time>2021-03-26T16:36:10Z</time>
      </trkpt>
      <trkpt lat="46.06505" lon="-0.36566">
        <ele>69.2</ele>
        <time>2021-03-26T16:36:11Z</time>
      </trkpt>
      <trkpt lat="46.06512" lon="-0.36584">
        <ele>68.6</ele>
        <time>2021-03-26T16:36:13Z</time>
      </trkpt>
      <trkpt lat="46.06514" lon="-0.36592">
        <ele>68.6</ele>
        <time>2021-03-26T16:36:14Z</time>
      </trkpt>
      <trkpt lat="46.06516" lon="-0.36599">
        <ele>68.4</ele>
        <time>2021-03-26T16:36:15Z</time>
      </trkpt>
      <trkpt lat="46.06517" lon="-0.36606">
        <ele>68.2</ele>
        <time>2021-03-26T16:36:16Z</time>
      </trkpt>
      <trkpt lat="46.06517" lon="-0.36613">
        <ele>68</ele>
        <time>2021-03-26T16:36:17Z</time>
      </trkpt>
      <trkpt lat="46.06517" lon="-0.36621">
        <ele>67.8</ele>
        <time>2021-03-26T16:36:18Z</time>
      </trkpt>
      <trkpt lat="46.06517" lon="-0.36629">
        <ele>67.6</ele>
        <time>2021-03-26T16:36:19Z</time>
      </trkpt>
      <trkpt lat="46.06516" lon="-0.36636">
        <ele>67.6</ele>
        <time>2021-03-26T16:36:20Z</time>
      </trkpt>
      <trkpt lat="46.06516" lon="-0.36651">
        <ele>67.6</ele>
        <time>2021-03-26T16:36:22Z</time>
      </trkpt>
      <trkpt lat="46.06516" lon="-0.36656">
        <ele>67.8</ele>
        <time>2021-03-26T16:36:23Z</time>
      </trkpt>
      <trkpt lat="46.06516" lon="-0.3666">
        <ele>67.6</ele>
        <time>2021-03-26T16:36:24Z</time>
      </trkpt>
      <trkpt lat="46.06516" lon="-0.36663">
        <ele>67.6</ele>
        <time>2021-03-26T16:36:25Z</time>
      </trkpt>
      <trkpt lat="46.06514" lon="-0.36667">
        <ele>67.6</ele>
        <time>2021-03-26T16:36:26Z</time>
      </trkpt>
      <trkpt lat="46.06512" lon="-0.36671">
        <ele>67.4</ele>
        <time>2021-03-26T16:36:27Z</time>
      </trkpt>
      <trkpt lat="46.06509" lon="-0.36675">
        <ele>67.4</ele>
        <time>2021-03-26T16:36:28Z</time>
      </trkpt>
      <trkpt lat="46.06506" lon="-0.36678">
        <ele>67.4</ele>
        <time>2021-03-26T16:36:29Z</time>
      </trkpt>
      <trkpt lat="46.06503" lon="-0.3668">
        <ele>67.4</ele>
        <time>2021-03-26T16:36:30Z</time>
      </trkpt>
      <trkpt lat="46.06499" lon="-0.36681">
        <ele>67.4</ele>
        <time>2021-03-26T16:36:31Z</time>
      </trkpt>
      <trkpt lat="46.06495" lon="-0.36679">
        <ele>67.4</ele>
        <time>2021-03-26T16:36:32Z</time>
      </trkpt>
      <trkpt lat="46.0649" lon="-0.36676">
        <ele>67.2</ele>
        <time>2021-03-26T16:36:33Z</time>
      </trkpt>
      <trkpt lat="46.06485" lon="-0.36673">
        <ele>67.2</ele>
        <time>2021-03-26T16:36:34Z</time>
      </trkpt>
      <trkpt lat="46.06479" lon="-0.36669">
        <ele>67.2</ele>
        <time>2021-03-26T16:36:35Z</time>
      </trkpt>
      <trkpt lat="46.06473" lon="-0.36665">
        <ele>67.2</ele>
        <time>2021-03-26T16:36:36Z</time>
      </trkpt>
      <trkpt lat="46.06467" lon="-0.36661">
        <ele>67</ele>
        <time>2021-03-26T16:36:37Z</time>
      </trkpt>
      <trkpt lat="46.06455" lon="-0.36654">
        <ele>66.6</ele>
        <time>2021-03-26T16:36:39Z</time>
      </trkpt>
      <trkpt lat="46.0645" lon="-0.36651">
        <ele>66.6</ele>
        <time>2021-03-26T16:36:40Z</time>
      </trkpt>
      <trkpt lat="46.06444" lon="-0.36649">
        <ele>66.4</ele>
        <time>2021-03-26T16:36:41Z</time>
      </trkpt>
      <trkpt lat="46.06439" lon="-0.36647">
        <ele>66</ele>
        <time>2021-03-26T16:36:42Z</time>
      </trkpt>
      <trkpt lat="46.06436" lon="-0.36645">
        <ele>65.8</ele>
        <time>2021-03-26T16:36:43Z</time>
      </trkpt>
      <trkpt lat="46.06434" lon="-0.36644">
        <ele>65.8</ele>
        <time>2021-03-26T16:36:44Z</time>
      </trkpt>
      <trkpt lat="46.06434" lon="-0.36643">
        <ele>65.4</ele>
        <time>2021-03-26T16:36:45Z</time>
      </trkpt>
      <trkpt lat="46.06434" lon="-0.36643">
        <ele>66</ele>
        <time>2021-03-26T16:36:46Z</time>
      </trkpt>
      <trkpt lat="46.06434" lon="-0.36643">
        <ele>66</ele>
        <time>2021-03-26T16:36:47Z</time>
      </trkpt>
      <trkpt lat="46.06438" lon="-0.36632">
        <ele>66.4</ele>
        <time>2021-03-26T16:36:56Z</time>
      </trkpt>
      <trkpt lat="46.0644" lon="-0.36631">
        <ele>66.4</ele>
        <time>2021-03-26T16:36:57Z</time>
      </trkpt>
      <trkpt lat="46.06459" lon="-0.3662">
        <ele>66.4</ele>
        <time>2021-03-26T16:37:03Z</time>
      </trkpt>
      <trkpt lat="46.06463" lon="-0.36618">
        <ele>66.4</ele>
        <time>2021-03-26T16:37:04Z</time>
      </trkpt>
      <trkpt lat="46.06467" lon="-0.36617">
        <ele>66.4</ele>
        <time>2021-03-26T16:37:05Z</time>
      </trkpt>
      <trkpt lat="46.0647" lon="-0.36616">
        <ele>66.4</ele>
        <time>2021-03-26T16:37:06Z</time>
      </trkpt>
      <trkpt lat="46.06482" lon="-0.36613">
        <ele>66.4</ele>
        <time>2021-03-26T16:37:10Z</time>
      </trkpt>
      <trkpt lat="46.06482" lon="-0.36613">
        <ele>66.4</ele>
        <time>2021-03-26T16:37:11Z</time>
      </trkpt>
      <trkpt lat="46.06482" lon="-0.36613">
        <ele>66.6</ele>
        <time>2021-03-26T16:37:12Z</time>
      </trkpt>
      <trkpt lat="46.06482" lon="-0.36613">
        <ele>66.6</ele>
        <time>2021-03-26T16:37:13Z</time>
      </trkpt>
      <trkpt lat="46.06476" lon="-0.36613">
        <ele>67.8</ele>
        <time>2021-03-26T16:37:25Z</time>
      </trkpt>
      <trkpt lat="46.06475" lon="-0.36613">
        <ele>67.8</ele>
        <time>2021-03-26T16:37:26Z</time>
      </trkpt>
      <trkpt lat="46.06473" lon="-0.36611">
        <ele>67.8</ele>
        <time>2021-03-26T16:37:27Z</time>
      </trkpt>
      <trkpt lat="46.06472" lon="-0.36609">
        <ele>67.8</ele>
        <time>2021-03-26T16:37:28Z</time>
      </trkpt>
      <trkpt lat="46.06471" lon="-0.36607">
        <ele>67.8</ele>
        <time>2021-03-26T16:37:29Z</time>
      </trkpt>
      <trkpt lat="46.0647" lon="-0.36607">
        <ele>67.8</ele>
        <time>2021-03-26T16:37:30Z</time>
      </trkpt>
      <trkpt lat="46.0647" lon="-0.36607">
        <ele>67.8</ele>
        <time>2021-03-26T16:37:31Z</time>
      </trkpt>
      <trkpt lat="46.06469" lon="-0.36607">
        <ele>67.8</ele>
        <time>2021-03-26T16:37:32Z</time>
      </trkpt>
      <trkpt lat="46.06469" lon="-0.36606">
        <ele>67.2</ele>
        <time>2021-03-26T16:37:34Z</time>
      </trkpt>
      <trkpt lat="46.06469" lon="-0.36606">
        <ele>66.8</ele>
        <time>2021-03-26T16:37:35Z</time>
      </trkpt>
      <trkpt lat="46.06466" lon="-0.36595">
        <ele>64.6</ele>
        <time>2021-03-26T16:37:44Z</time>
      </trkpt>
      <trkpt lat="46.06466" lon="-0.36592">
        <ele>64.6</ele>
        <time>2021-03-26T16:37:45Z</time>
      </trkpt>
      <trkpt lat="46.06466" lon="-0.36585">
        <ele>64.6</ele>
        <time>2021-03-26T16:37:48Z</time>
      </trkpt>
      <trkpt lat="46.06466" lon="-0.36583">
        <ele>64.6</ele>
        <time>2021-03-26T16:37:49Z</time>
      </trkpt>
      <trkpt lat="46.06466" lon="-0.36582">
        <ele>64.6</ele>
        <time>2021-03-26T16:37:50Z</time>
      </trkpt>
      <trkpt lat="46.06465" lon="-0.36581">
        <ele>64.2</ele>
        <time>2021-03-26T16:37:51Z</time>
      </trkpt>
      <trkpt lat="46.06464" lon="-0.36581">
        <ele>64.2</ele>
        <time>2021-03-26T16:37:52Z</time>
      </trkpt>
      <trkpt lat="46.06462" lon="-0.36581">
        <ele>64</ele>
        <time>2021-03-26T16:37:54Z</time>
      </trkpt>
      <trkpt lat="46.06462" lon="-0.36581">
        <ele>64</ele>
        <time>2021-03-26T16:37:55Z</time>
      </trkpt>
      <trkpt lat="46.06462" lon="-0.36581">
        <ele>64</ele>
        <time>2021-03-26T16:37:56Z</time>
      </trkpt>
      <trkpt lat="46.06462" lon="-0.36581">
        <ele>64</ele>
        <time>2021-03-26T16:37:57Z</time>
      </trkpt>
      <trkpt lat="46.06464" lon="-0.36589">
        <ele>63.8</ele>
        <time>2021-03-26T16:38:03Z</time>
      </trkpt>
      <trkpt lat="46.06467" lon="-0.36593">
        <ele>63.8</ele>
        <time>2021-03-26T16:38:05Z</time>
      </trkpt>
      <trkpt lat="46.06468" lon="-0.36597">
        <ele>63.8</ele>
        <time>2021-03-26T16:38:06Z</time>
      </trkpt>
      <trkpt lat="46.06469" lon="-0.36601">
        <ele>63.4</ele>
        <time>2021-03-26T16:38:07Z</time>
      </trkpt>
      <trkpt lat="46.06468" lon="-0.36606">
        <ele>63.4</ele>
        <time>2021-03-26T16:38:08Z</time>
      </trkpt>
      <trkpt lat="46.06467" lon="-0.36609">
        <ele>63.4</ele>
        <time>2021-03-26T16:38:09Z</time>
      </trkpt>
      <trkpt lat="46.06464" lon="-0.36616">
        <ele>63.4</ele>
        <time>2021-03-26T16:38:11Z</time>
      </trkpt>
      <trkpt lat="46.0646" lon="-0.36618">
        <ele>63.4</ele>
        <time>2021-03-26T16:38:12Z</time>
      </trkpt>
      <trkpt lat="46.06456" lon="-0.3662">
        <ele>63.4</ele>
        <time>2021-03-26T16:38:13Z</time>
      </trkpt>
      <trkpt lat="46.06452" lon="-0.36622">
        <ele>63.8</ele>
        <time>2021-03-26T16:38:14Z</time>
      </trkpt>
      <trkpt lat="46.06448" lon="-0.36623">
        <ele>64</ele>
        <time>2021-03-26T16:38:15Z</time>
      </trkpt>
      <trkpt lat="46.06445" lon="-0.36624">
        <ele>64</ele>
        <time>2021-03-26T16:38:16Z</time>
      </trkpt>
      <trkpt lat="46.06442" lon="-0.36626">
        <ele>64.6</ele>
        <time>2021-03-26T16:38:17Z</time>
      </trkpt>
      <trkpt lat="46.06439" lon="-0.36627">
        <ele>64.6</ele>
        <time>2021-03-26T16:38:18Z</time>
      </trkpt>
      <trkpt lat="46.06438" lon="-0.36628">
        <ele>65</ele>
        <time>2021-03-26T16:38:19Z</time>
      </trkpt>
      <trkpt lat="46.06436" lon="-0.36627">
        <ele>65.4</ele>
        <time>2021-03-26T16:38:20Z</time>
      </trkpt>
      <trkpt lat="46.06434" lon="-0.36626">
        <ele>65.4</ele>
        <time>2021-03-26T16:38:21Z</time>
      </trkpt>
      <trkpt lat="46.06431" lon="-0.36625">
        <ele>65.4</ele>
        <time>2021-03-26T16:38:22Z</time>
      </trkpt>
      <trkpt lat="46.0643" lon="-0.36622">
        <ele>65.4</ele>
        <time>2021-03-26T16:38:23Z</time>
      </trkpt>
      <trkpt lat="46.06429" lon="-0.36618">
        <ele>65.6</ele>
        <time>2021-03-26T16:38:24Z</time>
      </trkpt>
      <trkpt lat="46.06428" lon="-0.36614">
        <ele>65.6</ele>
        <time>2021-03-26T16:38:25Z</time>
      </trkpt>
      <trkpt lat="46.06428" lon="-0.36609">
        <ele>65.6</ele>
        <time>2021-03-26T16:38:26Z</time>
      </trkpt>
      <trkpt lat="46.06429" lon="-0.366">
        <ele>65.4</ele>
        <time>2021-03-26T16:38:28Z</time>
      </trkpt>
      <trkpt lat="46.06428" lon="-0.36596">
        <ele>65.4</ele>
        <time>2021-03-26T16:38:29Z</time>
      </trkpt>
      <trkpt lat="46.06427" lon="-0.36581">
        <ele>64.6</ele>
        <time>2021-03-26T16:38:32Z</time>
      </trkpt>
      <trkpt lat="46.06427" lon="-0.36576">
        <ele>64.2</ele>
        <time>2021-03-26T16:38:33Z</time>
      </trkpt>
      <trkpt lat="46.06426" lon="-0.36573">
        <ele>64</ele>
        <time>2021-03-26T16:38:34Z</time>
      </trkpt>
      <trkpt lat="46.06426" lon="-0.36563">
        <ele>63.8</ele>
        <time>2021-03-26T16:38:36Z</time>
      </trkpt>
      <trkpt lat="46.06426" lon="-0.36557">
        <ele>63.8</ele>
        <time>2021-03-26T16:38:37Z</time>
      </trkpt>
      <trkpt lat="46.06427" lon="-0.36551">
        <ele>63.4</ele>
        <time>2021-03-26T16:38:38Z</time>
      </trkpt>
      <trkpt lat="46.06427" lon="-0.36544">
        <ele>63.4</ele>
        <time>2021-03-26T16:38:39Z</time>
      </trkpt>
      <trkpt lat="46.06428" lon="-0.36537">
        <ele>63.4</ele>
        <time>2021-03-26T16:38:40Z</time>
      </trkpt>
      <trkpt lat="46.06427" lon="-0.36518">
        <ele>63</ele>
        <time>2021-03-26T16:38:43Z</time>
      </trkpt>
      <trkpt lat="46.06427" lon="-0.36513">
        <ele>63</ele>
        <time>2021-03-26T16:38:44Z</time>
      </trkpt>
      <trkpt lat="46.06427" lon="-0.36508">
        <ele>63</ele>
        <time>2021-03-26T16:38:45Z</time>
      </trkpt>
      <trkpt lat="46.06427" lon="-0.36504">
        <ele>63</ele>
        <time>2021-03-26T16:38:46Z</time>
      </trkpt>
      <trkpt lat="46.06426" lon="-0.36502">
        <ele>62.6</ele>
        <time>2021-03-26T16:38:47Z</time>
      </trkpt>
      <trkpt lat="46.06424" lon="-0.36501">
        <ele>62.6</ele>
        <time>2021-03-26T16:38:48Z</time>
      </trkpt>
      <trkpt lat="46.06421" lon="-0.36502">
        <ele>62.2</ele>
        <time>2021-03-26T16:38:49Z</time>
      </trkpt>
      <trkpt lat="46.06407" lon="-0.36499">
        <ele>62</ele>
        <time>2021-03-26T16:38:53Z</time>
      </trkpt>
      <trkpt lat="46.06405" lon="-0.36495">
        <ele>62</ele>
        <time>2021-03-26T16:38:54Z</time>
      </trkpt>
      <trkpt lat="46.06403" lon="-0.36491">
        <ele>62</ele>
        <time>2021-03-26T16:38:55Z</time>
      </trkpt>
      <trkpt lat="46.064" lon="-0.3648">
        <ele>62</ele>
        <time>2021-03-26T16:38:57Z</time>
      </trkpt>
      <trkpt lat="46.06399" lon="-0.36473">
        <ele>62</ele>
        <time>2021-03-26T16:38:58Z</time>
      </trkpt>
      <trkpt lat="46.06398" lon="-0.36466">
        <ele>62</ele>
        <time>2021-03-26T16:38:59Z</time>
      </trkpt>
      <trkpt lat="46.06395" lon="-0.36452">
        <ele>62</ele>
        <time>2021-03-26T16:39:01Z</time>
      </trkpt>
      <trkpt lat="46.06394" lon="-0.36446">
        <ele>62</ele>
        <time>2021-03-26T16:39:02Z</time>
      </trkpt>
      <trkpt lat="46.06393" lon="-0.3644">
        <ele>62.2</ele>
        <time>2021-03-26T16:39:03Z</time>
      </trkpt>
      <trkpt lat="46.06392" lon="-0.36434">
        <ele>62</ele>
        <time>2021-03-26T16:39:04Z</time>
      </trkpt>
      <trkpt lat="46.06391" lon="-0.3643">
        <ele>61.8</ele>
        <time>2021-03-26T16:39:05Z</time>
      </trkpt>
      <trkpt lat="46.06388" lon="-0.36427">
        <ele>61.8</ele>
        <time>2021-03-26T16:39:06Z</time>
      </trkpt>
      <trkpt lat="46.06385" lon="-0.36425">
        <ele>61.8</ele>
        <time>2021-03-26T16:39:07Z</time>
      </trkpt>
      <trkpt lat="46.06382" lon="-0.36425">
        <ele>61.8</ele>
        <time>2021-03-26T16:39:08Z</time>
      </trkpt>
      <trkpt lat="46.06378" lon="-0.36426">
        <ele>61.6</ele>
        <time>2021-03-26T16:39:09Z</time>
      </trkpt>
      <trkpt lat="46.06375" lon="-0.36427">
        <ele>61.4</ele>
        <time>2021-03-26T16:39:10Z</time>
      </trkpt>
      <trkpt lat="46.06372" lon="-0.36429">
        <ele>61.4</ele>
        <time>2021-03-26T16:39:11Z</time>
      </trkpt>
      <trkpt lat="46.0637" lon="-0.36432">
        <ele>61.4</ele>
        <time>2021-03-26T16:39:12Z</time>
      </trkpt>
      <trkpt lat="46.06369" lon="-0.36436">
        <ele>61.4</ele>
        <time>2021-03-26T16:39:13Z</time>
      </trkpt>
      <trkpt lat="46.06367" lon="-0.36439">
        <ele>61.4</ele>
        <time>2021-03-26T16:39:14Z</time>
      </trkpt>
      <trkpt lat="46.06364" lon="-0.3644">
        <ele>61.4</ele>
        <time>2021-03-26T16:39:15Z</time>
      </trkpt>
      <trkpt lat="46.06361" lon="-0.36441">
        <ele>61.4</ele>
        <time>2021-03-26T16:39:16Z</time>
      </trkpt>
      <trkpt lat="46.06358" lon="-0.36442">
        <ele>61.4</ele>
        <time>2021-03-26T16:39:17Z</time>
      </trkpt>
      <trkpt lat="46.06355" lon="-0.36443">
        <ele>61.4</ele>
        <time>2021-03-26T16:39:18Z</time>
      </trkpt>
      <trkpt lat="46.06352" lon="-0.36444">
        <ele>61.4</ele>
        <time>2021-03-26T16:39:19Z</time>
      </trkpt>
      <trkpt lat="46.06349" lon="-0.36446">
        <ele>61.4</ele>
        <time>2021-03-26T16:39:20Z</time>
      </trkpt>
      <trkpt lat="46.06342" lon="-0.36449">
        <ele>61.6</ele>
        <time>2021-03-26T16:39:22Z</time>
      </trkpt>
      <trkpt lat="46.0634" lon="-0.36452">
        <ele>61.6</ele>
        <time>2021-03-26T16:39:23Z</time>
      </trkpt>
      <trkpt lat="46.06339" lon="-0.36458">
        <ele>61.6</ele>
        <time>2021-03-26T16:39:24Z</time>
      </trkpt>
      <trkpt lat="46.06338" lon="-0.36464">
        <ele>61.8</ele>
        <time>2021-03-26T16:39:25Z</time>
      </trkpt>
      <trkpt lat="46.06338" lon="-0.36488">
        <ele>61.6</ele>
        <time>2021-03-26T16:39:28Z</time>
      </trkpt>
      <trkpt lat="46.06339" lon="-0.36495">
        <ele>61.6</ele>
        <time>2021-03-26T16:39:29Z</time>
      </trkpt>
      <trkpt lat="46.06339" lon="-0.36502">
        <ele>61.4</ele>
        <time>2021-03-26T16:39:30Z</time>
      </trkpt>
      <trkpt lat="46.06339" lon="-0.36509">
        <ele>61.4</ele>
        <time>2021-03-26T16:39:31Z</time>
      </trkpt>
      <trkpt lat="46.06339" lon="-0.36516">
        <ele>61.4</ele>
        <time>2021-03-26T16:39:32Z</time>
      </trkpt>
      <trkpt lat="46.06339" lon="-0.36522">
        <ele>61.4</ele>
        <time>2021-03-26T16:39:33Z</time>
      </trkpt>
      <trkpt lat="46.06339" lon="-0.36528">
        <ele>61.6</ele>
        <time>2021-03-26T16:39:34Z</time>
      </trkpt>
      <trkpt lat="46.06339" lon="-0.36532">
        <ele>61.8</ele>
        <time>2021-03-26T16:39:35Z</time>
      </trkpt>
      <trkpt lat="46.06337" lon="-0.36538">
        <ele>62</ele>
        <time>2021-03-26T16:39:36Z</time>
      </trkpt>
      <trkpt lat="46.06336" lon="-0.36543">
        <ele>62</ele>
        <time>2021-03-26T16:39:37Z</time>
      </trkpt>
      <trkpt lat="46.06333" lon="-0.36553">
        <ele>62</ele>
        <time>2021-03-26T16:39:39Z</time>
      </trkpt>
      <trkpt lat="46.06331" lon="-0.3657">
        <ele>62.2</ele>
        <time>2021-03-26T16:39:42Z</time>
      </trkpt>
      <trkpt lat="46.06331" lon="-0.36574">
        <ele>63</ele>
        <time>2021-03-26T16:39:43Z</time>
      </trkpt>
      <trkpt lat="46.06331" lon="-0.36576">
        <ele>63.4</ele>
        <time>2021-03-26T16:39:44Z</time>
      </trkpt>
      <trkpt lat="46.06332" lon="-0.36576">
        <ele>63.4</ele>
        <time>2021-03-26T16:39:45Z</time>
      </trkpt>
      <trkpt lat="46.06332" lon="-0.36576">
        <ele>63.8</ele>
        <time>2021-03-26T16:39:46Z</time>
      </trkpt>
      <trkpt lat="46.06325" lon="-0.36578">
        <ele>66.8</ele>
        <time>2021-03-26T16:40:25Z</time>
      </trkpt>
      <trkpt lat="46.06313" lon="-0.36576">
        <ele>66.8</ele>
        <time>2021-03-26T16:40:28Z</time>
      </trkpt>
      <trkpt lat="46.06309" lon="-0.36576">
        <ele>66.8</ele>
        <time>2021-03-26T16:40:29Z</time>
      </trkpt>
      <trkpt lat="46.06299" lon="-0.36576">
        <ele>66.8</ele>
        <time>2021-03-26T16:40:31Z</time>
      </trkpt>
      <trkpt lat="46.06291" lon="-0.36576">
        <ele>66.8</ele>
        <time>2021-03-26T16:40:33Z</time>
      </trkpt>
      <trkpt lat="46.06287" lon="-0.36578">
        <ele>66.8</ele>
        <time>2021-03-26T16:40:34Z</time>
      </trkpt>
      <trkpt lat="46.06272" lon="-0.36585">
        <ele>66.8</ele>
        <time>2021-03-26T16:40:38Z</time>
      </trkpt>
      <trkpt lat="46.06269" lon="-0.36584">
        <ele>66.8</ele>
        <time>2021-03-26T16:40:39Z</time>
      </trkpt>
      <trkpt lat="46.06265" lon="-0.36583">
        <ele>66.8</ele>
        <time>2021-03-26T16:40:40Z</time>
      </trkpt>
      <trkpt lat="46.06261" lon="-0.3658">
        <ele>66.8</ele>
        <time>2021-03-26T16:40:41Z</time>
      </trkpt>
      <trkpt lat="46.06256" lon="-0.36578">
        <ele>67.2</ele>
        <time>2021-03-26T16:40:42Z</time>
      </trkpt>
      <trkpt lat="46.0625" lon="-0.36576">
        <ele>67.2</ele>
        <time>2021-03-26T16:40:43Z</time>
      </trkpt>
      <trkpt lat="46.06245" lon="-0.36574">
        <ele>67.2</ele>
        <time>2021-03-26T16:40:44Z</time>
      </trkpt>
      <trkpt lat="46.06232" lon="-0.36568">
        <ele>67.8</ele>
        <time>2021-03-26T16:40:47Z</time>
      </trkpt>
      <trkpt lat="46.06222" lon="-0.36565">
        <ele>68.2</ele>
        <time>2021-03-26T16:40:49Z</time>
      </trkpt>
      <trkpt lat="46.06192" lon="-0.36557">
        <ele>68.8</ele>
        <time>2021-03-26T16:40:54Z</time>
      </trkpt>
      <trkpt lat="46.06186" lon="-0.36554">
        <ele>68.8</ele>
        <time>2021-03-26T16:40:55Z</time>
      </trkpt>
      <trkpt lat="46.06177" lon="-0.36545">
        <ele>69</ele>
        <time>2021-03-26T16:40:57Z</time>
      </trkpt>
      <trkpt lat="46.06173" lon="-0.3654">
        <ele>69</ele>
        <time>2021-03-26T16:40:58Z</time>
      </trkpt>
      <trkpt lat="46.06169" lon="-0.36535">
        <ele>69.2</ele>
        <time>2021-03-26T16:40:59Z</time>
      </trkpt>
      <trkpt lat="46.06167" lon="-0.3653">
        <ele>69.4</ele>
        <time>2021-03-26T16:41:00Z</time>
      </trkpt>
      <trkpt lat="46.06164" lon="-0.36526">
        <ele>69.6</ele>
        <time>2021-03-26T16:41:01Z</time>
      </trkpt>
      <trkpt lat="46.06163" lon="-0.36523">
        <ele>69.8</ele>
        <time>2021-03-26T16:41:02Z</time>
      </trkpt>
      <trkpt lat="46.06161" lon="-0.36522">
        <ele>70</ele>
        <time>2021-03-26T16:41:03Z</time>
      </trkpt>
      <trkpt lat="46.06159" lon="-0.36523">
        <ele>70.4</ele>
        <time>2021-03-26T16:41:04Z</time>
      </trkpt>
      <trkpt lat="46.06157" lon="-0.36523">
        <ele>70.6</ele>
        <time>2021-03-26T16:41:05Z</time>
      </trkpt>
      <trkpt lat="46.06156" lon="-0.36522">
        <ele>70.6</ele>
        <time>2021-03-26T16:41:06Z</time>
      </trkpt>
      <trkpt lat="46.06154" lon="-0.36521">
        <ele>70.8</ele>
        <time>2021-03-26T16:41:07Z</time>
      </trkpt>
      <trkpt lat="46.06151" lon="-0.3652">
        <ele>71.2</ele>
        <time>2021-03-26T16:41:08Z</time>
      </trkpt>
      <trkpt lat="46.06147" lon="-0.3652">
        <ele>71.6</ele>
        <time>2021-03-26T16:41:09Z</time>
      </trkpt>
      <trkpt lat="46.06145" lon="-0.36519">
        <ele>71.8</ele>
        <time>2021-03-26T16:41:10Z</time>
      </trkpt>
      <trkpt lat="46.06142" lon="-0.36518">
        <ele>72</ele>
        <time>2021-03-26T16:41:11Z</time>
      </trkpt>
      <trkpt lat="46.06139" lon="-0.36518">
        <ele>72.2</ele>
        <time>2021-03-26T16:41:12Z</time>
      </trkpt>
      <trkpt lat="46.06136" lon="-0.36517">
        <ele>72.6</ele>
        <time>2021-03-26T16:41:13Z</time>
      </trkpt>
      <trkpt lat="46.06132" lon="-0.36516">
        <ele>72.8</ele>
        <time>2021-03-26T16:41:14Z</time>
      </trkpt>
      <trkpt lat="46.06128" lon="-0.36515">
        <ele>73</ele>
        <time>2021-03-26T16:41:15Z</time>
      </trkpt>
      <trkpt lat="46.06124" lon="-0.36515">
        <ele>73</ele>
        <time>2021-03-26T16:41:16Z</time>
      </trkpt>
      <trkpt lat="46.06119" lon="-0.36514">
        <ele>73</ele>
        <time>2021-03-26T16:41:17Z</time>
      </trkpt>
      <trkpt lat="46.06114" lon="-0.36514">
        <ele>73.2</ele>
        <time>2021-03-26T16:41:18Z</time>
      </trkpt>
      <trkpt lat="46.06108" lon="-0.36514">
        <ele>73.2</ele>
        <time>2021-03-26T16:41:19Z</time>
      </trkpt>
      <trkpt lat="46.06103" lon="-0.36514">
        <ele>73.2</ele>
        <time>2021-03-26T16:41:20Z</time>
      </trkpt>
      <trkpt lat="46.06098" lon="-0.36513">
        <ele>73.2</ele>
        <time>2021-03-26T16:41:21Z</time>
      </trkpt>
      <trkpt lat="46.06094" lon="-0.36513">
        <ele>73.2</ele>
        <time>2021-03-26T16:41:22Z</time>
      </trkpt>
      <trkpt lat="46.0609" lon="-0.36512">
        <ele>73.2</ele>
        <time>2021-03-26T16:41:23Z</time>
      </trkpt>
      <trkpt lat="46.06085" lon="-0.36511">
        <ele>73.4</ele>
        <time>2021-03-26T16:41:24Z</time>
      </trkpt>
      <trkpt lat="46.06079" lon="-0.36511">
        <ele>73.4</ele>
        <time>2021-03-26T16:41:25Z</time>
      </trkpt>
      <trkpt lat="46.06073" lon="-0.36511">
        <ele>73.6</ele>
        <time>2021-03-26T16:41:26Z</time>
      </trkpt>
      <trkpt lat="46.06068" lon="-0.3651">
        <ele>73.6</ele>
        <time>2021-03-26T16:41:27Z</time>
      </trkpt>
      <trkpt lat="46.06062" lon="-0.36509">
        <ele>73.8</ele>
        <time>2021-03-26T16:41:28Z</time>
      </trkpt>
      <trkpt lat="46.06057" lon="-0.36509">
        <ele>73.8</ele>
        <time>2021-03-26T16:41:29Z</time>
      </trkpt>
      <trkpt lat="46.06051" lon="-0.36508">
        <ele>73.8</ele>
        <time>2021-03-26T16:41:30Z</time>
      </trkpt>
      <trkpt lat="46.06046" lon="-0.36508">
        <ele>74</ele>
        <time>2021-03-26T16:41:31Z</time>
      </trkpt>
      <trkpt lat="46.0604" lon="-0.36508">
        <ele>74</ele>
        <time>2021-03-26T16:41:32Z</time>
      </trkpt>
      <trkpt lat="46.06034" lon="-0.36508">
        <ele>74.2</ele>
        <time>2021-03-26T16:41:33Z</time>
      </trkpt>
      <trkpt lat="46.06028" lon="-0.36506">
        <ele>74.2</ele>
        <time>2021-03-26T16:41:34Z</time>
      </trkpt>
      <trkpt lat="46.06023" lon="-0.36504">
        <ele>74.4</ele>
        <time>2021-03-26T16:41:35Z</time>
      </trkpt>
      <trkpt lat="46.06017" lon="-0.36501">
        <ele>74.4</ele>
        <time>2021-03-26T16:41:36Z</time>
      </trkpt>
      <trkpt lat="46.0601" lon="-0.36497">
        <ele>74.6</ele>
        <time>2021-03-26T16:41:37Z</time>
      </trkpt>
      <trkpt lat="46.06004" lon="-0.36494">
        <ele>74.6</ele>
        <time>2021-03-26T16:41:38Z</time>
      </trkpt>
      <trkpt lat="46.05999" lon="-0.36491">
        <ele>74.8</ele>
        <time>2021-03-26T16:41:39Z</time>
      </trkpt>
      <trkpt lat="46.05994" lon="-0.36488">
        <ele>75</ele>
        <time>2021-03-26T16:41:40Z</time>
      </trkpt>
      <trkpt lat="46.05989" lon="-0.36486">
        <ele>75.4</ele>
        <time>2021-03-26T16:41:41Z</time>
      </trkpt>
      <trkpt lat="46.05984" lon="-0.36483">
        <ele>75.8</ele>
        <time>2021-03-26T16:41:42Z</time>
      </trkpt>
      <trkpt lat="46.0598" lon="-0.36478">
        <ele>76.2</ele>
        <time>2021-03-26T16:41:43Z</time>
      </trkpt>
      <trkpt lat="46.05976" lon="-0.36473">
        <ele>76.4</ele>
        <time>2021-03-26T16:41:44Z</time>
      </trkpt>
      <trkpt lat="46.05972" lon="-0.36471">
        <ele>76.6</ele>
        <time>2021-03-26T16:41:45Z</time>
      </trkpt>
      <trkpt lat="46.05968" lon="-0.36468">
        <ele>76.6</ele>
        <time>2021-03-26T16:41:46Z</time>
      </trkpt>
      <trkpt lat="46.05964" lon="-0.36465">
        <ele>76.8</ele>
        <time>2021-03-26T16:41:47Z</time>
      </trkpt>
      <trkpt lat="46.0596" lon="-0.36463">
        <ele>76.8</ele>
        <time>2021-03-26T16:41:48Z</time>
      </trkpt>
      <trkpt lat="46.05956" lon="-0.3646">
        <ele>76.8</ele>
        <time>2021-03-26T16:41:49Z</time>
      </trkpt>
      <trkpt lat="46.05952" lon="-0.36457">
        <ele>77</ele>
        <time>2021-03-26T16:41:50Z</time>
      </trkpt>
      <trkpt lat="46.05948" lon="-0.36455">
        <ele>77</ele>
        <time>2021-03-26T16:41:51Z</time>
      </trkpt>
      <trkpt lat="46.05945" lon="-0.36453">
        <ele>77</ele>
        <time>2021-03-26T16:41:52Z</time>
      </trkpt>
      <trkpt lat="46.05942" lon="-0.3645">
        <ele>77.2</ele>
        <time>2021-03-26T16:41:53Z</time>
      </trkpt>
      <trkpt lat="46.05939" lon="-0.36447">
        <ele>77.2</ele>
        <time>2021-03-26T16:41:54Z</time>
      </trkpt>
      <trkpt lat="46.05935" lon="-0.36445">
        <ele>77.2</ele>
        <time>2021-03-26T16:41:55Z</time>
      </trkpt>
      <trkpt lat="46.05931" lon="-0.36444">
        <ele>77.2</ele>
        <time>2021-03-26T16:41:56Z</time>
      </trkpt>
      <trkpt lat="46.05926" lon="-0.36441">
        <ele>77.4</ele>
        <time>2021-03-26T16:41:57Z</time>
      </trkpt>
      <trkpt lat="46.05922" lon="-0.36439">
        <ele>77.8</ele>
        <time>2021-03-26T16:41:58Z</time>
      </trkpt>
      <trkpt lat="46.05918" lon="-0.36436">
        <ele>78</ele>
        <time>2021-03-26T16:41:59Z</time>
      </trkpt>
      <trkpt lat="46.05913" lon="-0.36432">
        <ele>78.2</ele>
        <time>2021-03-26T16:42:00Z</time>
      </trkpt>
      <trkpt lat="46.05909" lon="-0.36428">
        <ele>78.4</ele>
        <time>2021-03-26T16:42:01Z</time>
      </trkpt>
      <trkpt lat="46.05905" lon="-0.36424">
        <ele>78.4</ele>
        <time>2021-03-26T16:42:02Z</time>
      </trkpt>
      <trkpt lat="46.05901" lon="-0.3642">
        <ele>78.6</ele>
        <time>2021-03-26T16:42:03Z</time>
      </trkpt>
      <trkpt lat="46.05896" lon="-0.36416">
        <ele>78.6</ele>
        <time>2021-03-26T16:42:04Z</time>
      </trkpt>
      <trkpt lat="46.05891" lon="-0.36411">
        <ele>78.8</ele>
        <time>2021-03-26T16:42:05Z</time>
      </trkpt>
      <trkpt lat="46.05887" lon="-0.36407">
        <ele>78.8</ele>
        <time>2021-03-26T16:42:06Z</time>
      </trkpt>
      <trkpt lat="46.05882" lon="-0.36402">
        <ele>78.8</ele>
        <time>2021-03-26T16:42:07Z</time>
      </trkpt>
      <trkpt lat="46.05877" lon="-0.36398">
        <ele>78.8</ele>
        <time>2021-03-26T16:42:08Z</time>
      </trkpt>
      <trkpt lat="46.05872" lon="-0.36394">
        <ele>78.8</ele>
        <time>2021-03-26T16:42:09Z</time>
      </trkpt>
      <trkpt lat="46.05867" lon="-0.3639">
        <ele>79</ele>
        <time>2021-03-26T16:42:10Z</time>
      </trkpt>
      <trkpt lat="46.05864" lon="-0.36388">
        <ele>79</ele>
        <time>2021-03-26T16:42:11Z</time>
      </trkpt>
      <trkpt lat="46.05863" lon="-0.36386">
        <ele>79</ele>
        <time>2021-03-26T16:42:12Z</time>
      </trkpt>
      <trkpt lat="46.05863" lon="-0.36385">
        <ele>79</ele>
        <time>2021-03-26T16:42:13Z</time>
      </trkpt>
      <trkpt lat="46.05863" lon="-0.36385">
        <ele>79.2</ele>
        <time>2021-03-26T16:42:14Z</time>
      </trkpt>
      <trkpt lat="46.05863" lon="-0.36385">
        <ele>79.2</ele>
        <time>2021-03-26T16:42:15Z</time>
      </trkpt>
      <trkpt lat="46.05858" lon="-0.36384">
        <ele>81.4</ele>
        <time>2021-03-26T16:42:22Z</time>
      </trkpt>
      <trkpt lat="46.05856" lon="-0.36382">
        <ele>81.6</ele>
        <time>2021-03-26T16:42:23Z</time>
      </trkpt>
      <trkpt lat="46.05853" lon="-0.36379">
        <ele>81.6</ele>
        <time>2021-03-26T16:42:24Z</time>
      </trkpt>
      <trkpt lat="46.0585" lon="-0.36377">
        <ele>81.8</ele>
        <time>2021-03-26T16:42:25Z</time>
      </trkpt>
      <trkpt lat="46.05845" lon="-0.36374">
        <ele>81.8</ele>
        <time>2021-03-26T16:42:26Z</time>
      </trkpt>
      <trkpt lat="46.05841" lon="-0.3637">
        <ele>81.8</ele>
        <time>2021-03-26T16:42:27Z</time>
      </trkpt>
      <trkpt lat="46.05835" lon="-0.36365">
        <ele>81.8</ele>
        <time>2021-03-26T16:42:28Z</time>
      </trkpt>
      <trkpt lat="46.0583" lon="-0.36361">
        <ele>81.8</ele>
        <time>2021-03-26T16:42:29Z</time>
      </trkpt>
      <trkpt lat="46.05825" lon="-0.36357">
        <ele>81.8</ele>
        <time>2021-03-26T16:42:30Z</time>
      </trkpt>
      <trkpt lat="46.05821" lon="-0.36352">
        <ele>81.8</ele>
        <time>2021-03-26T16:42:31Z</time>
      </trkpt>
      <trkpt lat="46.05816" lon="-0.36348">
        <ele>81.8</ele>
        <time>2021-03-26T16:42:32Z</time>
      </trkpt>
      <trkpt lat="46.05811" lon="-0.36343">
        <ele>81.8</ele>
        <time>2021-03-26T16:42:33Z</time>
      </trkpt>
      <trkpt lat="46.05806" lon="-0.36337">
        <ele>81.6</ele>
        <time>2021-03-26T16:42:34Z</time>
      </trkpt>
      <trkpt lat="46.05802" lon="-0.36334">
        <ele>81.6</ele>
        <time>2021-03-26T16:42:35Z</time>
      </trkpt>
      <trkpt lat="46.05799" lon="-0.36331">
        <ele>81.6</ele>
        <time>2021-03-26T16:42:36Z</time>
      </trkpt>
      <trkpt lat="46.05797" lon="-0.36329">
        <ele>81.6</ele>
        <time>2021-03-26T16:42:37Z</time>
      </trkpt>
      <trkpt lat="46.05794" lon="-0.36326">
        <ele>81.6</ele>
        <time>2021-03-26T16:42:38Z</time>
      </trkpt>
      <trkpt lat="46.05792" lon="-0.36324">
        <ele>81.8</ele>
        <time>2021-03-26T16:42:39Z</time>
      </trkpt>
      <trkpt lat="46.05789" lon="-0.36321">
        <ele>81.8</ele>
        <time>2021-03-26T16:42:40Z</time>
      </trkpt>
      <trkpt lat="46.05784" lon="-0.36316">
        <ele>81.8</ele>
        <time>2021-03-26T16:42:41Z</time>
      </trkpt>
      <trkpt lat="46.05775" lon="-0.36309">
        <ele>81.8</ele>
        <time>2021-03-26T16:42:43Z</time>
      </trkpt>
      <trkpt lat="46.05761" lon="-0.36293">
        <ele>82.2</ele>
        <time>2021-03-26T16:42:46Z</time>
      </trkpt>
      <trkpt lat="46.05758" lon="-0.36291">
        <ele>82.4</ele>
        <time>2021-03-26T16:42:47Z</time>
      </trkpt>
      <trkpt lat="46.05757" lon="-0.3629">
        <ele>82.6</ele>
        <time>2021-03-26T16:42:48Z</time>
      </trkpt>
      <trkpt lat="46.05757" lon="-0.3629">
        <ele>82.6</ele>
        <time>2021-03-26T16:42:49Z</time>
      </trkpt>
      <trkpt lat="46.05757" lon="-0.3629">
        <ele>82.6</ele>
        <time>2021-03-26T16:42:50Z</time>
      </trkpt>
      <trkpt lat="46.05757" lon="-0.36289">
        <ele>82.8</ele>
        <time>2021-03-26T16:42:51Z</time>
      </trkpt>
      <trkpt lat="46.05757" lon="-0.36289">
        <ele>82.8</ele>
        <time>2021-03-26T16:42:52Z</time>
      </trkpt>
      <trkpt lat="46.05757" lon="-0.36289">
        <ele>83</ele>
        <time>2021-03-26T16:42:53Z</time>
      </trkpt>
      <trkpt lat="46.05758" lon="-0.36289">
        <ele>83</ele>
        <time>2021-03-26T16:42:54Z</time>
      </trkpt>
      <trkpt lat="46.05758" lon="-0.36286">
        <ele>84.2</ele>
        <time>2021-03-26T16:43:19Z</time>
      </trkpt>
      <trkpt lat="46.05749" lon="-0.36279">
        <ele>84</ele>
        <time>2021-03-26T16:43:23Z</time>
      </trkpt>
      <trkpt lat="46.05746" lon="-0.36277">
        <ele>84</ele>
        <time>2021-03-26T16:43:24Z</time>
      </trkpt>
      <trkpt lat="46.05729" lon="-0.36269">
        <ele>84</ele>
        <time>2021-03-26T16:43:28Z</time>
      </trkpt>
      <trkpt lat="46.05723" lon="-0.36267">
        <ele>84</ele>
        <time>2021-03-26T16:43:29Z</time>
      </trkpt>
      <trkpt lat="46.05697" lon="-0.36256">
        <ele>84.2</ele>
        <time>2021-03-26T16:43:34Z</time>
      </trkpt>
      <trkpt lat="46.05692" lon="-0.36254">
        <ele>84.2</ele>
        <time>2021-03-26T16:43:35Z</time>
      </trkpt>
      <trkpt lat="46.05688" lon="-0.36252">
        <ele>84.4</ele>
        <time>2021-03-26T16:43:36Z</time>
      </trkpt>
      <trkpt lat="46.05685" lon="-0.36251">
        <ele>84.4</ele>
        <time>2021-03-26T16:43:37Z</time>
      </trkpt>
      <trkpt lat="46.05681" lon="-0.36249">
        <ele>84.4</ele>
        <time>2021-03-26T16:43:38Z</time>
      </trkpt>
      <trkpt lat="46.05677" lon="-0.36247">
        <ele>84.4</ele>
        <time>2021-03-26T16:43:39Z</time>
      </trkpt>
      <trkpt lat="46.05672" lon="-0.36245">
        <ele>84.4</ele>
        <time>2021-03-26T16:43:40Z</time>
      </trkpt>
      <trkpt lat="46.05667" lon="-0.36243">
        <ele>84.4</ele>
        <time>2021-03-26T16:43:41Z</time>
      </trkpt>
      <trkpt lat="46.05655" lon="-0.3624">
        <ele>84.4</ele>
        <time>2021-03-26T16:43:44Z</time>
      </trkpt>
      <trkpt lat="46.05653" lon="-0.3624">
        <ele>84.4</ele>
        <time>2021-03-26T16:43:45Z</time>
      </trkpt>
      <trkpt lat="46.05651" lon="-0.36239">
        <ele>84.4</ele>
        <time>2021-03-26T16:43:46Z</time>
      </trkpt>
      <trkpt lat="46.05649" lon="-0.36239">
        <ele>84.4</ele>
        <time>2021-03-26T16:43:47Z</time>
      </trkpt>
      <trkpt lat="46.05646" lon="-0.36238">
        <ele>84.2</ele>
        <time>2021-03-26T16:43:48Z</time>
      </trkpt>
      <trkpt lat="46.05642" lon="-0.36236">
        <ele>84.2</ele>
        <time>2021-03-26T16:43:49Z</time>
      </trkpt>
      <trkpt lat="46.05637" lon="-0.36234">
        <ele>84</ele>
        <time>2021-03-26T16:43:50Z</time>
      </trkpt>
      <trkpt lat="46.05624" lon="-0.36222">
        <ele>83.8</ele>
        <time>2021-03-26T16:43:54Z</time>
      </trkpt>
      <trkpt lat="46.05622" lon="-0.3622">
        <ele>83.8</ele>
        <time>2021-03-26T16:43:55Z</time>
      </trkpt>
      <trkpt lat="46.05619" lon="-0.36218">
        <ele>83.8</ele>
        <time>2021-03-26T16:43:56Z</time>
      </trkpt>
      <trkpt lat="46.05618" lon="-0.36215">
        <ele>83.8</ele>
        <time>2021-03-26T16:43:57Z</time>
      </trkpt>
      <trkpt lat="46.05617" lon="-0.36212">
        <ele>83.8</ele>
        <time>2021-03-26T16:43:58Z</time>
      </trkpt>
      <trkpt lat="46.05617" lon="-0.36212">
        <ele>83.8</ele>
        <time>2021-03-26T16:43:59Z</time>
      </trkpt>
      <trkpt lat="46.05617" lon="-0.36212">
        <ele>83.8</ele>
        <time>2021-03-26T16:44:00Z</time>
      </trkpt>
      <trkpt lat="46.05616" lon="-0.36202">
        <ele>84.2</ele>
        <time>2021-03-26T16:44:08Z</time>
      </trkpt>
      <trkpt lat="46.05614" lon="-0.36193">
        <ele>84.2</ele>
        <time>2021-03-26T16:44:10Z</time>
      </trkpt>
      <trkpt lat="46.05614" lon="-0.36186">
        <ele>84.2</ele>
        <time>2021-03-26T16:44:12Z</time>
      </trkpt>
      <trkpt lat="46.05614" lon="-0.36183">
        <ele>84.4</ele>
        <time>2021-03-26T16:44:13Z</time>
      </trkpt>
      <trkpt lat="46.05613" lon="-0.3618">
        <ele>84.4</ele>
        <time>2021-03-26T16:44:14Z</time>
      </trkpt>
      <trkpt lat="46.05613" lon="-0.36176">
        <ele>84.4</ele>
        <time>2021-03-26T16:44:15Z</time>
      </trkpt>
      <trkpt lat="46.05612" lon="-0.36173">
        <ele>84.4</ele>
        <time>2021-03-26T16:44:16Z</time>
      </trkpt>
      <trkpt lat="46.05611" lon="-0.36171">
        <ele>84.4</ele>
        <time>2021-03-26T16:44:17Z</time>
      </trkpt>
      <trkpt lat="46.05611" lon="-0.3617">
        <ele>84.4</ele>
        <time>2021-03-26T16:44:18Z</time>
      </trkpt>
      <trkpt lat="46.05611" lon="-0.3617">
        <ele>84.4</ele>
        <time>2021-03-26T16:44:19Z</time>
      </trkpt>
      <trkpt lat="46.05608" lon="-0.36173">
        <ele>84.2</ele>
        <time>2021-03-26T16:44:39Z</time>
      </trkpt>
      <trkpt lat="46.05608" lon="-0.36179">
        <ele>84.2</ele>
        <time>2021-03-26T16:44:41Z</time>
      </trkpt>
      <trkpt lat="46.05607" lon="-0.36182">
        <ele>84.2</ele>
        <time>2021-03-26T16:44:42Z</time>
      </trkpt>
      <trkpt lat="46.05607" lon="-0.36186">
        <ele>84.2</ele>
        <time>2021-03-26T16:44:43Z</time>
      </trkpt>
      <trkpt lat="46.05608" lon="-0.3619">
        <ele>84.2</ele>
        <time>2021-03-26T16:44:44Z</time>
      </trkpt>
      <trkpt lat="46.05609" lon="-0.36195">
        <ele>84.2</ele>
        <time>2021-03-26T16:44:46Z</time>
      </trkpt>
      <trkpt lat="46.0561" lon="-0.362">
        <ele>84.2</ele>
        <time>2021-03-26T16:44:48Z</time>
      </trkpt>
      <trkpt lat="46.0561" lon="-0.36205">
        <ele>84.2</ele>
        <time>2021-03-26T16:44:50Z</time>
      </trkpt>
      <trkpt lat="46.05609" lon="-0.36207">
        <ele>84.2</ele>
        <time>2021-03-26T16:44:51Z</time>
      </trkpt>
      <trkpt lat="46.05608" lon="-0.36208">
        <ele>84.2</ele>
        <time>2021-03-26T16:44:52Z</time>
      </trkpt>
      <trkpt lat="46.05606" lon="-0.36208">
        <ele>84.2</ele>
        <time>2021-03-26T16:44:53Z</time>
      </trkpt>
      <trkpt lat="46.056" lon="-0.36204">
        <ele>84.2</ele>
        <time>2021-03-26T16:44:56Z</time>
      </trkpt>
      <trkpt lat="46.05582" lon="-0.36195">
        <ele>83.8</ele>
        <time>2021-03-26T16:45:01Z</time>
      </trkpt>
      <trkpt lat="46.05579" lon="-0.36193">
        <ele>83.8</ele>
        <time>2021-03-26T16:45:02Z</time>
      </trkpt>
      <trkpt lat="46.05575" lon="-0.36191">
        <ele>83.8</ele>
        <time>2021-03-26T16:45:03Z</time>
      </trkpt>
      <trkpt lat="46.05564" lon="-0.36186">
        <ele>83</ele>
        <time>2021-03-26T16:45:06Z</time>
      </trkpt>
      <trkpt lat="46.05539" lon="-0.36179">
        <ele>82.2</ele>
        <time>2021-03-26T16:45:13Z</time>
      </trkpt>
      <trkpt lat="46.05536" lon="-0.36178">
        <ele>82.2</ele>
        <time>2021-03-26T16:45:14Z</time>
      </trkpt>
      <trkpt lat="46.05532" lon="-0.36177">
        <ele>82.2</ele>
        <time>2021-03-26T16:45:15Z</time>
      </trkpt>
      <trkpt lat="46.0552" lon="-0.36172">
        <ele>82</ele>
        <time>2021-03-26T16:45:18Z</time>
      </trkpt>
      <trkpt lat="46.05513" lon="-0.3617">
        <ele>82.2</ele>
        <time>2021-03-26T16:45:20Z</time>
      </trkpt>
      <trkpt lat="46.05511" lon="-0.36169">
        <ele>82.2</ele>
        <time>2021-03-26T16:45:21Z</time>
      </trkpt>
      <trkpt lat="46.05509" lon="-0.36167">
        <ele>82.2</ele>
        <time>2021-03-26T16:45:22Z</time>
      </trkpt>
      <trkpt lat="46.05507" lon="-0.36165">
        <ele>82.2</ele>
        <time>2021-03-26T16:45:23Z</time>
      </trkpt>
      <trkpt lat="46.05504" lon="-0.36164">
        <ele>82.2</ele>
        <time>2021-03-26T16:45:24Z</time>
      </trkpt>
      <trkpt lat="46.055" lon="-0.36163">
        <ele>82.2</ele>
        <time>2021-03-26T16:45:25Z</time>
      </trkpt>
      <trkpt lat="46.05497" lon="-0.36162">
        <ele>82.2</ele>
        <time>2021-03-26T16:45:26Z</time>
      </trkpt>
      <trkpt lat="46.05493" lon="-0.36162">
        <ele>82.2</ele>
        <time>2021-03-26T16:45:27Z</time>
      </trkpt>
      <trkpt lat="46.0549" lon="-0.36162">
        <ele>82.2</ele>
        <time>2021-03-26T16:45:28Z</time>
      </trkpt>
      <trkpt lat="46.05486" lon="-0.36163">
        <ele>82.2</ele>
        <time>2021-03-26T16:45:29Z</time>
      </trkpt>
      <trkpt lat="46.05467" lon="-0.36165">
        <ele>82.2</ele>
        <time>2021-03-26T16:45:34Z</time>
      </trkpt>
      <trkpt lat="46.05438" lon="-0.36165">
        <ele>82.4</ele>
        <time>2021-03-26T16:45:40Z</time>
      </trkpt>
      <trkpt lat="46.05434" lon="-0.36166">
        <ele>82.4</ele>
        <time>2021-03-26T16:45:41Z</time>
      </trkpt>
      <trkpt lat="46.05429" lon="-0.36166">
        <ele>82.6</ele>
        <time>2021-03-26T16:45:42Z</time>
      </trkpt>
      <trkpt lat="46.05425" lon="-0.36166">
        <ele>82.6</ele>
        <time>2021-03-26T16:45:43Z</time>
      </trkpt>
      <trkpt lat="46.05421" lon="-0.36163">
        <ele>82.6</ele>
        <time>2021-03-26T16:45:45Z</time>
      </trkpt>
      <trkpt lat="46.05421" lon="-0.3616">
        <ele>82.6</ele>
        <time>2021-03-26T16:45:46Z</time>
      </trkpt>
      <trkpt lat="46.05421" lon="-0.36157">
        <ele>82.8</ele>
        <time>2021-03-26T16:45:47Z</time>
      </trkpt>
      <trkpt lat="46.05423" lon="-0.36155">
        <ele>82.8</ele>
        <time>2021-03-26T16:45:48Z</time>
      </trkpt>
      <trkpt lat="46.05426" lon="-0.36152">
        <ele>83</ele>
        <time>2021-03-26T16:45:49Z</time>
      </trkpt>
      <trkpt lat="46.05434" lon="-0.36145">
        <ele>83.4</ele>
        <time>2021-03-26T16:45:51Z</time>
      </trkpt>
      <trkpt lat="46.05438" lon="-0.36141">
        <ele>83.4</ele>
        <time>2021-03-26T16:45:52Z</time>
      </trkpt>
      <trkpt lat="46.05443" lon="-0.36137">
        <ele>83.6</ele>
        <time>2021-03-26T16:45:53Z</time>
      </trkpt>
      <trkpt lat="46.05463" lon="-0.36122">
        <ele>83.6</ele>
        <time>2021-03-26T16:45:57Z</time>
      </trkpt>
      <trkpt lat="46.05498" lon="-0.36102">
        <ele>83.6</ele>
        <time>2021-03-26T16:46:02Z</time>
      </trkpt>
      <trkpt lat="46.05519" lon="-0.36093">
        <ele>83.2</ele>
        <time>2021-03-26T16:46:05Z</time>
      </trkpt>
      <trkpt lat="46.05526" lon="-0.36091">
        <ele>83</ele>
        <time>2021-03-26T16:46:06Z</time>
      </trkpt>
      <trkpt lat="46.05534" lon="-0.3609">
        <ele>82.8</ele>
        <time>2021-03-26T16:46:07Z</time>
      </trkpt>
      <trkpt lat="46.05564" lon="-0.36083">
        <ele>82.4</ele>
        <time>2021-03-26T16:46:11Z</time>
      </trkpt>
      <trkpt lat="46.05571" lon="-0.3608">
        <ele>82.2</ele>
        <time>2021-03-26T16:46:12Z</time>
      </trkpt>
      <trkpt lat="46.05578" lon="-0.36077">
        <ele>82.2</ele>
        <time>2021-03-26T16:46:13Z</time>
      </trkpt>
      <trkpt lat="46.05598" lon="-0.36073">
        <ele>82.2</ele>
        <time>2021-03-26T16:46:16Z</time>
      </trkpt>
      <trkpt lat="46.05612" lon="-0.36069">
        <ele>82</ele>
        <time>2021-03-26T16:46:18Z</time>
      </trkpt>
      <trkpt lat="46.05619" lon="-0.36069">
        <ele>82</ele>
        <time>2021-03-26T16:46:19Z</time>
      </trkpt>
      <trkpt lat="46.05626" lon="-0.36069">
        <ele>82.2</ele>
        <time>2021-03-26T16:46:20Z</time>
      </trkpt>
      <trkpt lat="46.05649" lon="-0.36073">
        <ele>82.4</ele>
        <time>2021-03-26T16:46:23Z</time>
      </trkpt>
      <trkpt lat="46.05669" lon="-0.3608">
        <ele>82.6</ele>
        <time>2021-03-26T16:46:26Z</time>
      </trkpt>
      <trkpt lat="46.0568" lon="-0.36085">
        <ele>82.8</ele>
        <time>2021-03-26T16:46:28Z</time>
      </trkpt>
      <trkpt lat="46.05685" lon="-0.36087">
        <ele>82.8</ele>
        <time>2021-03-26T16:46:29Z</time>
      </trkpt>
      <trkpt lat="46.05691" lon="-0.36088">
        <ele>82.8</ele>
        <time>2021-03-26T16:46:30Z</time>
      </trkpt>
      <trkpt lat="46.05697" lon="-0.3609">
        <ele>82.8</ele>
        <time>2021-03-26T16:46:31Z</time>
      </trkpt>
      <trkpt lat="46.05703" lon="-0.36091">
        <ele>82.8</ele>
        <time>2021-03-26T16:46:32Z</time>
      </trkpt>
      <trkpt lat="46.05722" lon="-0.36094">
        <ele>83.2</ele>
        <time>2021-03-26T16:46:35Z</time>
      </trkpt>
      <trkpt lat="46.0574" lon="-0.36094">
        <ele>83.6</ele>
        <time>2021-03-26T16:46:38Z</time>
      </trkpt>
      <trkpt lat="46.05745" lon="-0.36094">
        <ele>83.6</ele>
        <time>2021-03-26T16:46:39Z</time>
      </trkpt>
      <trkpt lat="46.05751" lon="-0.36092">
        <ele>83.8</ele>
        <time>2021-03-26T16:46:40Z</time>
      </trkpt>
      <trkpt lat="46.05757" lon="-0.36089">
        <ele>83.8</ele>
        <time>2021-03-26T16:46:41Z</time>
      </trkpt>
      <trkpt lat="46.05763" lon="-0.36084">
        <ele>83.8</ele>
        <time>2021-03-26T16:46:42Z</time>
      </trkpt>
      <trkpt lat="46.05768" lon="-0.3608">
        <ele>83.8</ele>
        <time>2021-03-26T16:46:43Z</time>
      </trkpt>
      <trkpt lat="46.0577" lon="-0.36078">
        <ele>84</ele>
        <time>2021-03-26T16:46:44Z</time>
      </trkpt>
      <trkpt lat="46.05771" lon="-0.36078">
        <ele>84</ele>
        <time>2021-03-26T16:46:45Z</time>
      </trkpt>
      <trkpt lat="46.05771" lon="-0.36078">
        <ele>84</ele>
        <time>2021-03-26T16:46:46Z</time>
      </trkpt>
      <trkpt lat="46.05777" lon="-0.36072">
        <ele>84.4</ele>
        <time>2021-03-26T16:46:54Z</time>
      </trkpt>
      <trkpt lat="46.05785" lon="-0.36066">
        <ele>84.4</ele>
        <time>2021-03-26T16:46:56Z</time>
      </trkpt>
      <trkpt lat="46.05797" lon="-0.36052">
        <ele>84.4</ele>
        <time>2021-03-26T16:46:59Z</time>
      </trkpt>
      <trkpt lat="46.05801" lon="-0.36045">
        <ele>84.4</ele>
        <time>2021-03-26T16:47:00Z</time>
      </trkpt>
      <trkpt lat="46.05825" lon="-0.36017">
        <ele>84.4</ele>
        <time>2021-03-26T16:47:05Z</time>
      </trkpt>
      <trkpt lat="46.0583" lon="-0.36011">
        <ele>84.4</ele>
        <time>2021-03-26T16:47:06Z</time>
      </trkpt>
      <trkpt lat="46.05857" lon="-0.35988">
        <ele>84</ele>
        <time>2021-03-26T16:47:10Z</time>
      </trkpt>
      <trkpt lat="46.05868" lon="-0.35978">
        <ele>83.6</ele>
        <time>2021-03-26T16:47:12Z</time>
      </trkpt>
      <trkpt lat="46.05871" lon="-0.35973">
        <ele>83.4</ele>
        <time>2021-03-26T16:47:13Z</time>
      </trkpt>
      <trkpt lat="46.05876" lon="-0.35968">
        <ele>83.2</ele>
        <time>2021-03-26T16:47:14Z</time>
      </trkpt>
      <trkpt lat="46.0588" lon="-0.35963">
        <ele>83.2</ele>
        <time>2021-03-26T16:47:15Z</time>
      </trkpt>
      <trkpt lat="46.05885" lon="-0.35957">
        <ele>83.2</ele>
        <time>2021-03-26T16:47:16Z</time>
      </trkpt>
      <trkpt lat="46.05894" lon="-0.35945">
        <ele>82.8</ele>
        <time>2021-03-26T16:47:18Z</time>
      </trkpt>
      <trkpt lat="46.059" lon="-0.35939">
        <ele>82.8</ele>
        <time>2021-03-26T16:47:19Z</time>
      </trkpt>
      <trkpt lat="46.05912" lon="-0.35929">
        <ele>82.4</ele>
        <time>2021-03-26T16:47:21Z</time>
      </trkpt>
      <trkpt lat="46.05925" lon="-0.3592">
        <ele>82.2</ele>
        <time>2021-03-26T16:47:23Z</time>
      </trkpt>
      <trkpt lat="46.05944" lon="-0.35902">
        <ele>81.6</ele>
        <time>2021-03-26T16:47:26Z</time>
      </trkpt>
      <trkpt lat="46.0595" lon="-0.35895">
        <ele>81.4</ele>
        <time>2021-03-26T16:47:27Z</time>
      </trkpt>
      <trkpt lat="46.05956" lon="-0.35889">
        <ele>81</ele>
        <time>2021-03-26T16:47:28Z</time>
      </trkpt>
      <trkpt lat="46.05967" lon="-0.35878">
        <ele>80.4</ele>
        <time>2021-03-26T16:47:30Z</time>
      </trkpt>
      <trkpt lat="46.05972" lon="-0.35873">
        <ele>80.4</ele>
        <time>2021-03-26T16:47:31Z</time>
      </trkpt>
      <trkpt lat="46.05976" lon="-0.3587">
        <ele>80.2</ele>
        <time>2021-03-26T16:47:32Z</time>
      </trkpt>
      <trkpt lat="46.05979" lon="-0.35867">
        <ele>80.2</ele>
        <time>2021-03-26T16:47:33Z</time>
      </trkpt>
      <trkpt lat="46.05982" lon="-0.35864">
        <ele>80</ele>
        <time>2021-03-26T16:47:34Z</time>
      </trkpt>
      <trkpt lat="46.05984" lon="-0.35861">
        <ele>79.8</ele>
        <time>2021-03-26T16:47:35Z</time>
      </trkpt>
      <trkpt lat="46.05985" lon="-0.35856">
        <ele>79.8</ele>
        <time>2021-03-26T16:47:36Z</time>
      </trkpt>
      <trkpt lat="46.05986" lon="-0.35853">
        <ele>79.8</ele>
        <time>2021-03-26T16:47:37Z</time>
      </trkpt>
      <trkpt lat="46.05986" lon="-0.35852">
        <ele>79.6</ele>
        <time>2021-03-26T16:47:38Z</time>
      </trkpt>
      <trkpt lat="46.05986" lon="-0.35852">
        <ele>79.6</ele>
        <time>2021-03-26T16:47:39Z</time>
      </trkpt>
      <trkpt lat="46.05986" lon="-0.35852">
        <ele>79.4</ele>
        <time>2021-03-26T16:47:40Z</time>
      </trkpt>
      <trkpt lat="46.05987" lon="-0.35851">
        <ele>79.4</ele>
        <time>2021-03-26T16:47:41Z</time>
      </trkpt>
      <trkpt lat="46.05988" lon="-0.35851">
        <ele>79.4</ele>
        <time>2021-03-26T16:47:42Z</time>
      </trkpt>
      <trkpt lat="46.05994" lon="-0.35855">
        <ele>79.4</ele>
        <time>2021-03-26T16:47:45Z</time>
      </trkpt>
      <trkpt lat="46.06005" lon="-0.35858">
        <ele>79.2</ele>
        <time>2021-03-26T16:47:48Z</time>
      </trkpt>
      <trkpt lat="46.06008" lon="-0.35856">
        <ele>79.2</ele>
        <time>2021-03-26T16:47:49Z</time>
      </trkpt>
      <trkpt lat="46.0601" lon="-0.35855">
        <ele>79</ele>
        <time>2021-03-26T16:47:50Z</time>
      </trkpt>
      <trkpt lat="46.06013" lon="-0.35854">
        <ele>79</ele>
        <time>2021-03-26T16:47:51Z</time>
      </trkpt>
      <trkpt lat="46.06015" lon="-0.35852">
        <ele>79</ele>
        <time>2021-03-26T16:47:52Z</time>
      </trkpt>
      <trkpt lat="46.06032" lon="-0.3584">
        <ele>78.4</ele>
        <time>2021-03-26T16:47:57Z</time>
      </trkpt>
      <trkpt lat="46.06035" lon="-0.35838">
        <ele>78.4</ele>
        <time>2021-03-26T16:47:58Z</time>
      </trkpt>
      <trkpt lat="46.06036" lon="-0.35836">
        <ele>78.4</ele>
        <time>2021-03-26T16:47:59Z</time>
      </trkpt>
      <trkpt lat="46.06036" lon="-0.35835">
        <ele>78.2</ele>
        <time>2021-03-26T16:48:00Z</time>
      </trkpt>
      <trkpt lat="46.06036" lon="-0.35835">
        <ele>78.2</ele>
        <time>2021-03-26T16:48:01Z</time>
      </trkpt>
      <trkpt lat="46.06035" lon="-0.35834">
        <ele>78.2</ele>
        <time>2021-03-26T16:48:02Z</time>
      </trkpt>
      <trkpt lat="46.06035" lon="-0.35832">
        <ele>78</ele>
        <time>2021-03-26T16:48:03Z</time>
      </trkpt>
      <trkpt lat="46.06035" lon="-0.3583">
        <ele>78</ele>
        <time>2021-03-26T16:48:04Z</time>
      </trkpt>
      <trkpt lat="46.06033" lon="-0.35825">
        <ele>78</ele>
        <time>2021-03-26T16:48:06Z</time>
      </trkpt>
      <trkpt lat="46.06032" lon="-0.35823">
        <ele>78</ele>
        <time>2021-03-26T16:48:07Z</time>
      </trkpt>
      <trkpt lat="46.06031" lon="-0.35819">
        <ele>78</ele>
        <time>2021-03-26T16:48:08Z</time>
      </trkpt>
      <trkpt lat="46.06028" lon="-0.35815">
        <ele>78</ele>
        <time>2021-03-26T16:48:09Z</time>
      </trkpt>
      <trkpt lat="46.0602" lon="-0.35803">
        <ele>77.8</ele>
        <time>2021-03-26T16:48:12Z</time>
      </trkpt>
      <trkpt lat="46.06017" lon="-0.358">
        <ele>77.8</ele>
        <time>2021-03-26T16:48:13Z</time>
      </trkpt>
      <trkpt lat="46.06009" lon="-0.35792">
        <ele>77.4</ele>
        <time>2021-03-26T16:48:16Z</time>
      </trkpt>
      <trkpt lat="46.06008" lon="-0.35789">
        <ele>77.2</ele>
        <time>2021-03-26T16:48:17Z</time>
      </trkpt>
      <trkpt lat="46.06008" lon="-0.35785">
        <ele>77.2</ele>
        <time>2021-03-26T16:48:18Z</time>
      </trkpt>
      <trkpt lat="46.06007" lon="-0.35783">
        <ele>77.2</ele>
        <time>2021-03-26T16:48:19Z</time>
      </trkpt>
      <trkpt lat="46.06006" lon="-0.35781">
        <ele>77.2</ele>
        <time>2021-03-26T16:48:20Z</time>
      </trkpt>
      <trkpt lat="46.06005" lon="-0.35779">
        <ele>77.2</ele>
        <time>2021-03-26T16:48:21Z</time>
      </trkpt>
      <trkpt lat="46.06002" lon="-0.35776">
        <ele>77.2</ele>
        <time>2021-03-26T16:48:22Z</time>
      </trkpt>
      <trkpt lat="46.06" lon="-0.35774">
        <ele>77.2</ele>
        <time>2021-03-26T16:48:23Z</time>
      </trkpt>
      <trkpt lat="46.05998" lon="-0.35774">
        <ele>77.2</ele>
        <time>2021-03-26T16:48:25Z</time>
      </trkpt>
      <trkpt lat="46.05996" lon="-0.35774">
        <ele>77.2</ele>
        <time>2021-03-26T16:48:26Z</time>
      </trkpt>
      <trkpt lat="46.05994" lon="-0.35772">
        <ele>77.2</ele>
        <time>2021-03-26T16:48:27Z</time>
      </trkpt>
      <trkpt lat="46.05977" lon="-0.3575">
        <ele>77.2</ele>
        <time>2021-03-26T16:48:31Z</time>
      </trkpt>
      <trkpt lat="46.05971" lon="-0.35744">
        <ele>77.2</ele>
        <time>2021-03-26T16:48:32Z</time>
      </trkpt>
      <trkpt lat="46.05962" lon="-0.35733">
        <ele>77.2</ele>
        <time>2021-03-26T16:48:34Z</time>
      </trkpt>
      <trkpt lat="46.05952" lon="-0.35725">
        <ele>77</ele>
        <time>2021-03-26T16:48:36Z</time>
      </trkpt>
      <trkpt lat="46.0595" lon="-0.35723">
        <ele>76.8</ele>
        <time>2021-03-26T16:48:37Z</time>
      </trkpt>
      <trkpt lat="46.05948" lon="-0.3572">
        <ele>76.8</ele>
        <time>2021-03-26T16:48:38Z</time>
      </trkpt>
      <trkpt lat="46.05945" lon="-0.35717">
        <ele>76.6</ele>
        <time>2021-03-26T16:48:39Z</time>
      </trkpt>
      <trkpt lat="46.05942" lon="-0.35713">
        <ele>76.4</ele>
        <time>2021-03-26T16:48:40Z</time>
      </trkpt>
      <trkpt lat="46.0594" lon="-0.35708">
        <ele>76.4</ele>
        <time>2021-03-26T16:48:41Z</time>
      </trkpt>
      <trkpt lat="46.05935" lon="-0.35703">
        <ele>76.2</ele>
        <time>2021-03-26T16:48:42Z</time>
      </trkpt>
      <trkpt lat="46.0593" lon="-0.35698">
        <ele>76</ele>
        <time>2021-03-26T16:48:43Z</time>
      </trkpt>
      <trkpt lat="46.05919" lon="-0.35687">
        <ele>75.8</ele>
        <time>2021-03-26T16:48:45Z</time>
      </trkpt>
      <trkpt lat="46.0591" lon="-0.35678">
        <ele>75.6</ele>
        <time>2021-03-26T16:48:47Z</time>
      </trkpt>
      <trkpt lat="46.05907" lon="-0.35673">
        <ele>75.6</ele>
        <time>2021-03-26T16:48:48Z</time>
      </trkpt>
      <trkpt lat="46.05905" lon="-0.35667">
        <ele>75.6</ele>
        <time>2021-03-26T16:48:49Z</time>
      </trkpt>
      <trkpt lat="46.05902" lon="-0.35663">
        <ele>75.6</ele>
        <time>2021-03-26T16:48:50Z</time>
      </trkpt>
      <trkpt lat="46.059" lon="-0.35658">
        <ele>75.6</ele>
        <time>2021-03-26T16:48:51Z</time>
      </trkpt>
      <trkpt lat="46.05897" lon="-0.35653">
        <ele>75.6</ele>
        <time>2021-03-26T16:48:52Z</time>
      </trkpt>
      <trkpt lat="46.05895" lon="-0.35649">
        <ele>75.6</ele>
        <time>2021-03-26T16:48:53Z</time>
      </trkpt>
      <trkpt lat="46.05895" lon="-0.35643">
        <ele>75.6</ele>
        <time>2021-03-26T16:48:54Z</time>
      </trkpt>
      <trkpt lat="46.05896" lon="-0.35637">
        <ele>75.6</ele>
        <time>2021-03-26T16:48:55Z</time>
      </trkpt>
      <trkpt lat="46.05898" lon="-0.35623">
        <ele>75.6</ele>
        <time>2021-03-26T16:48:57Z</time>
      </trkpt>
      <trkpt lat="46.05899" lon="-0.35615">
        <ele>75.6</ele>
        <time>2021-03-26T16:48:58Z</time>
      </trkpt>
      <trkpt lat="46.059" lon="-0.35605">
        <ele>75.4</ele>
        <time>2021-03-26T16:48:59Z</time>
      </trkpt>
      <trkpt lat="46.05902" lon="-0.35573">
        <ele>75.4</ele>
        <time>2021-03-26T16:49:02Z</time>
      </trkpt>
      <trkpt lat="46.05907" lon="-0.35542">
        <ele>75.4</ele>
        <time>2021-03-26T16:49:05Z</time>
      </trkpt>
      <trkpt lat="46.05914" lon="-0.35531">
        <ele>75.2</ele>
        <time>2021-03-26T16:49:07Z</time>
      </trkpt>
      <trkpt lat="46.05919" lon="-0.35528">
        <ele>74.8</ele>
        <time>2021-03-26T16:49:08Z</time>
      </trkpt>
      <trkpt lat="46.05924" lon="-0.35527">
        <ele>74.6</ele>
        <time>2021-03-26T16:49:09Z</time>
      </trkpt>
      <trkpt lat="46.05931" lon="-0.35528">
        <ele>74.4</ele>
        <time>2021-03-26T16:49:10Z</time>
      </trkpt>
      <trkpt lat="46.05942" lon="-0.35531">
        <ele>73.6</ele>
        <time>2021-03-26T16:49:12Z</time>
      </trkpt>
      <trkpt lat="46.05947" lon="-0.35532">
        <ele>73.4</ele>
        <time>2021-03-26T16:49:13Z</time>
      </trkpt>
      <trkpt lat="46.05953" lon="-0.35533">
        <ele>73.2</ele>
        <time>2021-03-26T16:49:14Z</time>
      </trkpt>
      <trkpt lat="46.0596" lon="-0.35533">
        <ele>73</ele>
        <time>2021-03-26T16:49:15Z</time>
      </trkpt>
      <trkpt lat="46.05967" lon="-0.35532">
        <ele>73</ele>
        <time>2021-03-26T16:49:16Z</time>
      </trkpt>
      <trkpt lat="46.05974" lon="-0.35529">
        <ele>72.8</ele>
        <time>2021-03-26T16:49:17Z</time>
      </trkpt>
      <trkpt lat="46.0598" lon="-0.35526">
        <ele>72.4</ele>
        <time>2021-03-26T16:49:18Z</time>
      </trkpt>
      <trkpt lat="46.05992" lon="-0.35518">
        <ele>71.8</ele>
        <time>2021-03-26T16:49:20Z</time>
      </trkpt>
      <trkpt lat="46.05998" lon="-0.35514">
        <ele>71.4</ele>
        <time>2021-03-26T16:49:21Z</time>
      </trkpt>
      <trkpt lat="46.06022" lon="-0.35498">
        <ele>70.4</ele>
        <time>2021-03-26T16:49:25Z</time>
      </trkpt>
      <trkpt lat="46.06039" lon="-0.35488">
        <ele>69.4</ele>
        <time>2021-03-26T16:49:28Z</time>
      </trkpt>
      <trkpt lat="46.06045" lon="-0.35485">
        <ele>69.2</ele>
        <time>2021-03-26T16:49:29Z</time>
      </trkpt>
      <trkpt lat="46.06052" lon="-0.35482">
        <ele>69</ele>
        <time>2021-03-26T16:49:30Z</time>
      </trkpt>
      <trkpt lat="46.06076" lon="-0.35469">
        <ele>68</ele>
        <time>2021-03-26T16:49:34Z</time>
      </trkpt>
      <trkpt lat="46.06089" lon="-0.35463">
        <ele>67.6</ele>
        <time>2021-03-26T16:49:36Z</time>
      </trkpt>
      <trkpt lat="46.06108" lon="-0.35453">
        <ele>66.8</ele>
        <time>2021-03-26T16:49:39Z</time>
      </trkpt>
      <trkpt lat="46.06129" lon="-0.35442">
        <ele>66.4</ele>
        <time>2021-03-26T16:49:42Z</time>
      </trkpt>
      <trkpt lat="46.06143" lon="-0.35435">
        <ele>66</ele>
        <time>2021-03-26T16:49:44Z</time>
      </trkpt>
      <trkpt lat="46.06156" lon="-0.35428">
        <ele>65.6</ele>
        <time>2021-03-26T16:49:46Z</time>
      </trkpt>
      <trkpt lat="46.06168" lon="-0.3542">
        <ele>65</ele>
        <time>2021-03-26T16:49:48Z</time>
      </trkpt>
      <trkpt lat="46.0618" lon="-0.35413">
        <ele>64.6</ele>
        <time>2021-03-26T16:49:50Z</time>
      </trkpt>
      <trkpt lat="46.06193" lon="-0.35407">
        <ele>64</ele>
        <time>2021-03-26T16:49:52Z</time>
      </trkpt>
      <trkpt lat="46.062" lon="-0.35404">
        <ele>63.8</ele>
        <time>2021-03-26T16:49:53Z</time>
      </trkpt>
      <trkpt lat="46.06214" lon="-0.354">
        <ele>63.8</ele>
        <time>2021-03-26T16:49:55Z</time>
      </trkpt>
      <trkpt lat="46.06242" lon="-0.35389">
        <ele>63.6</ele>
        <time>2021-03-26T16:49:59Z</time>
      </trkpt>
      <trkpt lat="46.06255" lon="-0.35384">
        <ele>63.2</ele>
        <time>2021-03-26T16:50:01Z</time>
      </trkpt>
      <trkpt lat="46.06273" lon="-0.35375">
        <ele>62.6</ele>
        <time>2021-03-26T16:50:04Z</time>
      </trkpt>
      <trkpt lat="46.06278" lon="-0.35371">
        <ele>62.4</ele>
        <time>2021-03-26T16:50:05Z</time>
      </trkpt>
      <trkpt lat="46.06282" lon="-0.35369">
        <ele>62.4</ele>
        <time>2021-03-26T16:50:06Z</time>
      </trkpt>
      <trkpt lat="46.06286" lon="-0.35366">
        <ele>62.2</ele>
        <time>2021-03-26T16:50:07Z</time>
      </trkpt>
      <trkpt lat="46.06289" lon="-0.35363">
        <ele>62</ele>
        <time>2021-03-26T16:50:08Z</time>
      </trkpt>
      <trkpt lat="46.06291" lon="-0.35361">
        <ele>62</ele>
        <time>2021-03-26T16:50:09Z</time>
      </trkpt>
      <trkpt lat="46.06293" lon="-0.35359">
        <ele>62</ele>
        <time>2021-03-26T16:50:10Z</time>
      </trkpt>
      <trkpt lat="46.06293" lon="-0.35357">
        <ele>62</ele>
        <time>2021-03-26T16:50:11Z</time>
      </trkpt>
      <trkpt lat="46.06293" lon="-0.35354">
        <ele>62</ele>
        <time>2021-03-26T16:50:12Z</time>
      </trkpt>
      <trkpt lat="46.06293" lon="-0.35352">
        <ele>62</ele>
        <time>2021-03-26T16:50:13Z</time>
      </trkpt>
      <trkpt lat="46.06293" lon="-0.35348">
        <ele>61.8</ele>
        <time>2021-03-26T16:50:14Z</time>
      </trkpt>
      <trkpt lat="46.06292" lon="-0.35344">
        <ele>61.8</ele>
        <time>2021-03-26T16:50:15Z</time>
      </trkpt>
      <trkpt lat="46.06288" lon="-0.35337">
        <ele>61.6</ele>
        <time>2021-03-26T16:50:17Z</time>
      </trkpt>
      <trkpt lat="46.06287" lon="-0.35334">
        <ele>61.6</ele>
        <time>2021-03-26T16:50:18Z</time>
      </trkpt>
      <trkpt lat="46.06286" lon="-0.35331">
        <ele>61.6</ele>
        <time>2021-03-26T16:50:20Z</time>
      </trkpt>
      <trkpt lat="46.06286" lon="-0.35331">
        <ele>61.8</ele>
        <time>2021-03-26T16:50:21Z</time>
      </trkpt>
      <trkpt lat="46.06286" lon="-0.35331">
        <ele>61.8</ele>
        <time>2021-03-26T16:50:22Z</time>
      </trkpt>
      <trkpt lat="46.06285" lon="-0.35323">
        <ele>62.4</ele>
        <time>2021-03-26T16:50:37Z</time>
      </trkpt>
      <trkpt lat="46.06283" lon="-0.35317">
        <ele>62.4</ele>
        <time>2021-03-26T16:50:38Z</time>
      </trkpt>
      <trkpt lat="46.06272" lon="-0.3528">
        <ele>62.4</ele>
        <time>2021-03-26T16:50:43Z</time>
      </trkpt>
      <trkpt lat="46.06257" lon="-0.35222">
        <ele>62.6</ele>
        <time>2021-03-26T16:50:49Z</time>
      </trkpt>
      <trkpt lat="46.06252" lon="-0.35202">
        <ele>62.6</ele>
        <time>2021-03-26T16:50:51Z</time>
      </trkpt>
      <trkpt lat="46.06233" lon="-0.3513">
        <ele>62.6</ele>
        <time>2021-03-26T16:50:58Z</time>
      </trkpt>
      <trkpt lat="46.06227" lon="-0.35109">
        <ele>62.6</ele>
        <time>2021-03-26T16:51:00Z</time>
      </trkpt>
      <trkpt lat="46.06219" lon="-0.3509">
        <ele>62.6</ele>
        <time>2021-03-26T16:51:02Z</time>
      </trkpt>
      <trkpt lat="46.06213" lon="-0.35082">
        <ele>62.6</ele>
        <time>2021-03-26T16:51:03Z</time>
      </trkpt>
      <trkpt lat="46.06177" lon="-0.35041">
        <ele>62.4</ele>
        <time>2021-03-26T16:51:09Z</time>
      </trkpt>
      <trkpt lat="46.06158" lon="-0.35021">
        <ele>62</ele>
        <time>2021-03-26T16:51:12Z</time>
      </trkpt>
      <trkpt lat="46.06116" lon="-0.34973">
        <ele>61.8</ele>
        <time>2021-03-26T16:51:19Z</time>
      </trkpt>
      <trkpt lat="46.06082" lon="-0.34911">
        <ele>62.4</ele>
        <time>2021-03-26T16:51:26Z</time>
      </trkpt>
      <trkpt lat="46.06065" lon="-0.34851">
        <ele>63</ele>
        <time>2021-03-26T16:51:32Z</time>
      </trkpt>
      <trkpt lat="46.06063" lon="-0.34842">
        <ele>63</ele>
        <time>2021-03-26T16:51:33Z</time>
      </trkpt>
      <trkpt lat="46.06061" lon="-0.34834">
        <ele>63</ele>
        <time>2021-03-26T16:51:34Z</time>
      </trkpt>
      <trkpt lat="46.0606" lon="-0.34827">
        <ele>63.2</ele>
        <time>2021-03-26T16:51:35Z</time>
      </trkpt>
      <trkpt lat="46.06059" lon="-0.34821">
        <ele>63.2</ele>
        <time>2021-03-26T16:51:36Z</time>
      </trkpt>
      <trkpt lat="46.06059" lon="-0.34816">
        <ele>63.2</ele>
        <time>2021-03-26T16:51:37Z</time>
      </trkpt>
      <trkpt lat="46.06058" lon="-0.34814">
        <ele>63.4</ele>
        <time>2021-03-26T16:51:38Z</time>
      </trkpt>
      <trkpt lat="46.06058" lon="-0.34813">
        <ele>63.6</ele>
        <time>2021-03-26T16:51:39Z</time>
      </trkpt>
      <trkpt lat="46.06058" lon="-0.34813">
        <ele>63.6</ele>
        <time>2021-03-26T16:51:40Z</time>
      </trkpt>
      <trkpt lat="46.06058" lon="-0.34813">
        <ele>64.8</ele>
        <time>2021-03-26T16:51:41Z</time>
      </trkpt>
      <trkpt lat="46.06058" lon="-0.34804">
        <ele>67.4</ele>
        <time>2021-03-26T16:52:56Z</time>
      </trkpt>
      <trkpt lat="46.06056" lon="-0.34798">
        <ele>67.4</ele>
        <time>2021-03-26T16:52:57Z</time>
      </trkpt>
      <trkpt lat="46.06048" lon="-0.34766">
        <ele>67.4</ele>
        <time>2021-03-26T16:53:01Z</time>
      </trkpt>
      <trkpt lat="46.06034" lon="-0.34718">
        <ele>67.2</ele>
        <time>2021-03-26T16:53:06Z</time>
      </trkpt>
      <trkpt lat="46.06025" lon="-0.34689">
        <ele>67</ele>
        <time>2021-03-26T16:53:09Z</time>
      </trkpt>
      <trkpt lat="46.06017" lon="-0.3466">
        <ele>67</ele>
        <time>2021-03-26T16:53:12Z</time>
      </trkpt>
      <trkpt lat="46.0601" lon="-0.34633">
        <ele>67</ele>
        <time>2021-03-26T16:53:15Z</time>
      </trkpt>
      <trkpt lat="46.06007" lon="-0.34625">
        <ele>67</ele>
        <time>2021-03-26T16:53:16Z</time>
      </trkpt>
      <trkpt lat="46.06005" lon="-0.34616">
        <ele>67</ele>
        <time>2021-03-26T16:53:17Z</time>
      </trkpt>
      <trkpt lat="46.06003" lon="-0.34607">
        <ele>67.2</ele>
        <time>2021-03-26T16:53:18Z</time>
      </trkpt>
      <trkpt lat="46.06" lon="-0.34599">
        <ele>67.4</ele>
        <time>2021-03-26T16:53:19Z</time>
      </trkpt>
      <trkpt lat="46.05998" lon="-0.34591">
        <ele>67.4</ele>
        <time>2021-03-26T16:53:20Z</time>
      </trkpt>
      <trkpt lat="46.05995" lon="-0.34582">
        <ele>67.6</ele>
        <time>2021-03-26T16:53:21Z</time>
      </trkpt>
      <trkpt lat="46.05993" lon="-0.34574">
        <ele>67.8</ele>
        <time>2021-03-26T16:53:22Z</time>
      </trkpt>
      <trkpt lat="46.05991" lon="-0.34566">
        <ele>68</ele>
        <time>2021-03-26T16:53:23Z</time>
      </trkpt>
      <trkpt lat="46.05988" lon="-0.34558">
        <ele>68</ele>
        <time>2021-03-26T16:53:24Z</time>
      </trkpt>
      <trkpt lat="46.05986" lon="-0.34549">
        <ele>68.2</ele>
        <time>2021-03-26T16:53:25Z</time>
      </trkpt>
      <trkpt lat="46.05983" lon="-0.34541">
        <ele>68.4</ele>
        <time>2021-03-26T16:53:26Z</time>
      </trkpt>
      <trkpt lat="46.05979" lon="-0.34524">
        <ele>68.4</ele>
        <time>2021-03-26T16:53:28Z</time>
      </trkpt>
      <trkpt lat="46.05976" lon="-0.34516">
        <ele>68.6</ele>
        <time>2021-03-26T16:53:29Z</time>
      </trkpt>
      <trkpt lat="46.05974" lon="-0.34508">
        <ele>68.6</ele>
        <time>2021-03-26T16:53:30Z</time>
      </trkpt>
      <trkpt lat="46.05971" lon="-0.34501">
        <ele>68.6</ele>
        <time>2021-03-26T16:53:31Z</time>
      </trkpt>
      <trkpt lat="46.05969" lon="-0.34493">
        <ele>68.6</ele>
        <time>2021-03-26T16:53:32Z</time>
      </trkpt>
      <trkpt lat="46.05966" lon="-0.34486">
        <ele>68.6</ele>
        <time>2021-03-26T16:53:33Z</time>
      </trkpt>
      <trkpt lat="46.05962" lon="-0.34473">
        <ele>68.8</ele>
        <time>2021-03-26T16:53:35Z</time>
      </trkpt>
      <trkpt lat="46.05959" lon="-0.34467">
        <ele>68.8</ele>
        <time>2021-03-26T16:53:36Z</time>
      </trkpt>
      <trkpt lat="46.05957" lon="-0.34462">
        <ele>68.8</ele>
        <time>2021-03-26T16:53:37Z</time>
      </trkpt>
      <trkpt lat="46.05954" lon="-0.34456">
        <ele>68.8</ele>
        <time>2021-03-26T16:53:38Z</time>
      </trkpt>
      <trkpt lat="46.05951" lon="-0.34451">
        <ele>69</ele>
        <time>2021-03-26T16:53:39Z</time>
      </trkpt>
      <trkpt lat="46.05949" lon="-0.34446">
        <ele>69</ele>
        <time>2021-03-26T16:53:40Z</time>
      </trkpt>
      <trkpt lat="46.05947" lon="-0.34442">
        <ele>69.2</ele>
        <time>2021-03-26T16:53:41Z</time>
      </trkpt>
      <trkpt lat="46.05945" lon="-0.34439">
        <ele>69.2</ele>
        <time>2021-03-26T16:53:42Z</time>
      </trkpt>
      <trkpt lat="46.05943" lon="-0.34437">
        <ele>69.4</ele>
        <time>2021-03-26T16:53:43Z</time>
      </trkpt>
      <trkpt lat="46.05942" lon="-0.34435">
        <ele>69.4</ele>
        <time>2021-03-26T16:53:44Z</time>
      </trkpt>
      <trkpt lat="46.05942" lon="-0.34434">
        <ele>69.6</ele>
        <time>2021-03-26T16:53:45Z</time>
      </trkpt>
      <trkpt lat="46.05942" lon="-0.34434">
        <ele>69.8</ele>
        <time>2021-03-26T16:53:46Z</time>
      </trkpt>
      <trkpt lat="46.05942" lon="-0.34434">
        <ele>69.8</ele>
        <time>2021-03-26T16:53:47Z</time>
      </trkpt>
      <trkpt lat="46.05935" lon="-0.34431">
        <ele>70.8</ele>
        <time>2021-03-26T16:53:56Z</time>
      </trkpt>
      <trkpt lat="46.0593" lon="-0.3443">
        <ele>70.8</ele>
        <time>2021-03-26T16:53:57Z</time>
      </trkpt>
      <trkpt lat="46.05909" lon="-0.34426">
        <ele>70.8</ele>
        <time>2021-03-26T16:54:01Z</time>
      </trkpt>
      <trkpt lat="46.05893" lon="-0.34423">
        <ele>70.8</ele>
        <time>2021-03-26T16:54:04Z</time>
      </trkpt>
      <trkpt lat="46.05888" lon="-0.34422">
        <ele>71</ele>
        <time>2021-03-26T16:54:05Z</time>
      </trkpt>
      <trkpt lat="46.05883" lon="-0.34422">
        <ele>71</ele>
        <time>2021-03-26T16:54:06Z</time>
      </trkpt>
      <trkpt lat="46.05878" lon="-0.34421">
        <ele>71</ele>
        <time>2021-03-26T16:54:07Z</time>
      </trkpt>
      <trkpt lat="46.05873" lon="-0.3442">
        <ele>70.6</ele>
        <time>2021-03-26T16:54:08Z</time>
      </trkpt>
      <trkpt lat="46.05868" lon="-0.34419">
        <ele>70.6</ele>
        <time>2021-03-26T16:54:09Z</time>
      </trkpt>
      <trkpt lat="46.0586" lon="-0.34411">
        <ele>70.4</ele>
        <time>2021-03-26T16:54:11Z</time>
      </trkpt>
      <trkpt lat="46.05857" lon="-0.34394">
        <ele>70.4</ele>
        <time>2021-03-26T16:54:13Z</time>
      </trkpt>
      <trkpt lat="46.05856" lon="-0.34385">
        <ele>70.4</ele>
        <time>2021-03-26T16:54:14Z</time>
      </trkpt>
      <trkpt lat="46.05853" lon="-0.34376">
        <ele>70.4</ele>
        <time>2021-03-26T16:54:15Z</time>
      </trkpt>
      <trkpt lat="46.05849" lon="-0.34368">
        <ele>70.4</ele>
        <time>2021-03-26T16:54:16Z</time>
      </trkpt>
      <trkpt lat="46.05844" lon="-0.3436">
        <ele>70.4</ele>
        <time>2021-03-26T16:54:17Z</time>
      </trkpt>
      <trkpt lat="46.05838" lon="-0.34354">
        <ele>70.4</ele>
        <time>2021-03-26T16:54:18Z</time>
      </trkpt>
      <trkpt lat="46.05832" lon="-0.34348">
        <ele>70.6</ele>
        <time>2021-03-26T16:54:19Z</time>
      </trkpt>
      <trkpt lat="46.05826" lon="-0.34342">
        <ele>70.6</ele>
        <time>2021-03-26T16:54:20Z</time>
      </trkpt>
      <trkpt lat="46.05821" lon="-0.34337">
        <ele>70.8</ele>
        <time>2021-03-26T16:54:21Z</time>
      </trkpt>
      <trkpt lat="46.05816" lon="-0.34332">
        <ele>70.8</ele>
        <time>2021-03-26T16:54:22Z</time>
      </trkpt>
      <trkpt lat="46.05811" lon="-0.34327">
        <ele>70.8</ele>
        <time>2021-03-26T16:54:23Z</time>
      </trkpt>
      <trkpt lat="46.05807" lon="-0.34322">
        <ele>70.8</ele>
        <time>2021-03-26T16:54:24Z</time>
      </trkpt>
      <trkpt lat="46.05802" lon="-0.34318">
        <ele>70.8</ele>
        <time>2021-03-26T16:54:25Z</time>
      </trkpt>
      <trkpt lat="46.05797" lon="-0.34315">
        <ele>70.8</ele>
        <time>2021-03-26T16:54:26Z</time>
      </trkpt>
      <trkpt lat="46.05793" lon="-0.34314">
        <ele>70.8</ele>
        <time>2021-03-26T16:54:27Z</time>
      </trkpt>
      <trkpt lat="46.05788" lon="-0.34313">
        <ele>71</ele>
        <time>2021-03-26T16:54:28Z</time>
      </trkpt>
      <trkpt lat="46.05784" lon="-0.34312">
        <ele>71</ele>
        <time>2021-03-26T16:54:29Z</time>
      </trkpt>
      <trkpt lat="46.05781" lon="-0.34308">
        <ele>71</ele>
        <time>2021-03-26T16:54:30Z</time>
      </trkpt>
      <trkpt lat="46.05778" lon="-0.34302">
        <ele>71</ele>
        <time>2021-03-26T16:54:31Z</time>
      </trkpt>
      <trkpt lat="46.05777" lon="-0.34294">
        <ele>71</ele>
        <time>2021-03-26T16:54:32Z</time>
      </trkpt>
      <trkpt lat="46.05777" lon="-0.34274">
        <ele>71</ele>
        <time>2021-03-26T16:54:34Z</time>
      </trkpt>
      <trkpt lat="46.05777" lon="-0.34207">
        <ele>71</ele>
        <time>2021-03-26T16:54:40Z</time>
      </trkpt>
      <trkpt lat="46.05777" lon="-0.34186">
        <ele>71</ele>
        <time>2021-03-26T16:54:42Z</time>
      </trkpt>
      <trkpt lat="46.05776" lon="-0.34175">
        <ele>71</ele>
        <time>2021-03-26T16:54:43Z</time>
      </trkpt>
      <trkpt lat="46.05776" lon="-0.34165">
        <ele>71.2</ele>
        <time>2021-03-26T16:54:44Z</time>
      </trkpt>
      <trkpt lat="46.05776" lon="-0.34154">
        <ele>71.2</ele>
        <time>2021-03-26T16:54:45Z</time>
      </trkpt>
      <trkpt lat="46.05775" lon="-0.34074">
        <ele>71</ele>
        <time>2021-03-26T16:54:52Z</time>
      </trkpt>
      <trkpt lat="46.05775" lon="-0.34063">
        <ele>71</ele>
        <time>2021-03-26T16:54:53Z</time>
      </trkpt>
      <trkpt lat="46.05776" lon="-0.33998">
        <ele>71.6</ele>
        <time>2021-03-26T16:54:59Z</time>
      </trkpt>
      <trkpt lat="46.05776" lon="-0.33988">
        <ele>71.6</ele>
        <time>2021-03-26T16:55:00Z</time>
      </trkpt>
      <trkpt lat="46.05776" lon="-0.3398">
        <ele>71.6</ele>
        <time>2021-03-26T16:55:01Z</time>
      </trkpt>
      <trkpt lat="46.05776" lon="-0.33973">
        <ele>71.8</ele>
        <time>2021-03-26T16:55:02Z</time>
      </trkpt>
      <trkpt lat="46.05776" lon="-0.33969">
        <ele>71.8</ele>
        <time>2021-03-26T16:55:03Z</time>
      </trkpt>
      <trkpt lat="46.05776" lon="-0.33966">
        <ele>72</ele>
        <time>2021-03-26T16:55:04Z</time>
      </trkpt>
      <trkpt lat="46.05776" lon="-0.33965">
        <ele>72.2</ele>
        <time>2021-03-26T16:55:05Z</time>
      </trkpt>
      <trkpt lat="46.05776" lon="-0.33965">
        <ele>72.4</ele>
        <time>2021-03-26T16:55:06Z</time>
      </trkpt>
      <trkpt lat="46.05776" lon="-0.33965">
        <ele>72.6</ele>
        <time>2021-03-26T16:55:07Z</time>
      </trkpt>
      <trkpt lat="46.05779" lon="-0.3396">
        <ele>75.4</ele>
        <time>2021-03-26T16:57:00Z</time>
      </trkpt>
      <trkpt lat="46.05783" lon="-0.33959">
        <ele>75.4</ele>
        <time>2021-03-26T16:57:01Z</time>
      </trkpt>
      <trkpt lat="46.05801" lon="-0.33959">
        <ele>75.4</ele>
        <time>2021-03-26T16:57:04Z</time>
      </trkpt>
      <trkpt lat="46.05807" lon="-0.33958">
        <ele>75.2</ele>
        <time>2021-03-26T16:57:05Z</time>
      </trkpt>
      <trkpt lat="46.0584" lon="-0.3396">
        <ele>75</ele>
        <time>2021-03-26T16:57:10Z</time>
      </trkpt>
      <trkpt lat="46.05853" lon="-0.33962">
        <ele>74.2</ele>
        <time>2021-03-26T16:57:12Z</time>
      </trkpt>
      <trkpt lat="46.05866" lon="-0.33964">
        <ele>73.2</ele>
        <time>2021-03-26T16:57:14Z</time>
      </trkpt>
      <trkpt lat="46.05873" lon="-0.33965">
        <ele>72.6</ele>
        <time>2021-03-26T16:57:15Z</time>
      </trkpt>
      <trkpt lat="46.0588" lon="-0.33965">
        <ele>72</ele>
        <time>2021-03-26T16:57:16Z</time>
      </trkpt>
      <trkpt lat="46.05888" lon="-0.33966">
        <ele>71.4</ele>
        <time>2021-03-26T16:57:17Z</time>
      </trkpt>
      <trkpt lat="46.05919" lon="-0.33969">
        <ele>70.2</ele>
        <time>2021-03-26T16:57:21Z</time>
      </trkpt>
      <trkpt lat="46.05935" lon="-0.33972">
        <ele>69.8</ele>
        <time>2021-03-26T16:57:23Z</time>
      </trkpt>
      <trkpt lat="46.05966" lon="-0.33981">
        <ele>68.8</ele>
        <time>2021-03-26T16:57:27Z</time>
      </trkpt>
      <trkpt lat="46.05981" lon="-0.33985">
        <ele>67.6</ele>
        <time>2021-03-26T16:57:29Z</time>
      </trkpt>
      <trkpt lat="46.05995" lon="-0.33989">
        <ele>67</ele>
        <time>2021-03-26T16:57:31Z</time>
      </trkpt>
      <trkpt lat="46.0601" lon="-0.33991">
        <ele>66.4</ele>
        <time>2021-03-26T16:57:33Z</time>
      </trkpt>
      <trkpt lat="46.06017" lon="-0.33991">
        <ele>66.2</ele>
        <time>2021-03-26T16:57:34Z</time>
      </trkpt>
      <trkpt lat="46.06024" lon="-0.33988">
        <ele>66</ele>
        <time>2021-03-26T16:57:35Z</time>
      </trkpt>
      <trkpt lat="46.0603" lon="-0.33985">
        <ele>65.8</ele>
        <time>2021-03-26T16:57:36Z</time>
      </trkpt>
      <trkpt lat="46.06037" lon="-0.3398">
        <ele>65.8</ele>
        <time>2021-03-26T16:57:37Z</time>
      </trkpt>
      <trkpt lat="46.06043" lon="-0.33975">
        <ele>65.8</ele>
        <time>2021-03-26T16:57:38Z</time>
      </trkpt>
      <trkpt lat="46.06049" lon="-0.33972">
        <ele>65.8</ele>
        <time>2021-03-26T16:57:39Z</time>
      </trkpt>
      <trkpt lat="46.06055" lon="-0.33969">
        <ele>65.8</ele>
        <time>2021-03-26T16:57:40Z</time>
      </trkpt>
      <trkpt lat="46.06068" lon="-0.33965">
        <ele>65.8</ele>
        <time>2021-03-26T16:57:42Z</time>
      </trkpt>
      <trkpt lat="46.06075" lon="-0.33963">
        <ele>65.8</ele>
        <time>2021-03-26T16:57:43Z</time>
      </trkpt>
      <trkpt lat="46.06082" lon="-0.33962">
        <ele>65.8</ele>
        <time>2021-03-26T16:57:44Z</time>
      </trkpt>
      <trkpt lat="46.06088" lon="-0.33961">
        <ele>65.8</ele>
        <time>2021-03-26T16:57:45Z</time>
      </trkpt>
      <trkpt lat="46.06095" lon="-0.3396">
        <ele>65.8</ele>
        <time>2021-03-26T16:57:46Z</time>
      </trkpt>
      <trkpt lat="46.06106" lon="-0.33958">
        <ele>65.8</ele>
        <time>2021-03-26T16:57:48Z</time>
      </trkpt>
      <trkpt lat="46.06112" lon="-0.33958">
        <ele>66.2</ele>
        <time>2021-03-26T16:57:49Z</time>
      </trkpt>
      <trkpt lat="46.06117" lon="-0.33957">
        <ele>66.4</ele>
        <time>2021-03-26T16:57:50Z</time>
      </trkpt>
      <trkpt lat="46.06122" lon="-0.33957">
        <ele>66.6</ele>
        <time>2021-03-26T16:57:51Z</time>
      </trkpt>
      <trkpt lat="46.06127" lon="-0.33958">
        <ele>66.8</ele>
        <time>2021-03-26T16:57:52Z</time>
      </trkpt>
      <trkpt lat="46.06132" lon="-0.33959">
        <ele>67</ele>
        <time>2021-03-26T16:57:53Z</time>
      </trkpt>
      <trkpt lat="46.06138" lon="-0.33961">
        <ele>67.4</ele>
        <time>2021-03-26T16:57:54Z</time>
      </trkpt>
      <trkpt lat="46.06144" lon="-0.33961">
        <ele>67.8</ele>
        <time>2021-03-26T16:57:55Z</time>
      </trkpt>
      <trkpt lat="46.0615" lon="-0.33961">
        <ele>68</ele>
        <time>2021-03-26T16:57:56Z</time>
      </trkpt>
      <trkpt lat="46.0617" lon="-0.33955">
        <ele>69</ele>
        <time>2021-03-26T16:57:59Z</time>
      </trkpt>
      <trkpt lat="46.06198" lon="-0.33943">
        <ele>69.6</ele>
        <time>2021-03-26T16:58:03Z</time>
      </trkpt>
      <trkpt lat="46.06212" lon="-0.33938">
        <ele>69.8</ele>
        <time>2021-03-26T16:58:05Z</time>
      </trkpt>
      <trkpt lat="46.06219" lon="-0.33935">
        <ele>70</ele>
        <time>2021-03-26T16:58:06Z</time>
      </trkpt>
      <trkpt lat="46.06226" lon="-0.33933">
        <ele>70.2</ele>
        <time>2021-03-26T16:58:07Z</time>
      </trkpt>
      <trkpt lat="46.06233" lon="-0.33932">
        <ele>70.6</ele>
        <time>2021-03-26T16:58:08Z</time>
      </trkpt>
      <trkpt lat="46.06241" lon="-0.3393">
        <ele>70.8</ele>
        <time>2021-03-26T16:58:09Z</time>
      </trkpt>
      <trkpt lat="46.06248" lon="-0.33928">
        <ele>71</ele>
        <time>2021-03-26T16:58:10Z</time>
      </trkpt>
      <trkpt lat="46.06255" lon="-0.33926">
        <ele>71</ele>
        <time>2021-03-26T16:58:11Z</time>
      </trkpt>
      <trkpt lat="46.06262" lon="-0.33924">
        <ele>71.2</ele>
        <time>2021-03-26T16:58:12Z</time>
      </trkpt>
      <trkpt lat="46.0627" lon="-0.33923">
        <ele>71.2</ele>
        <time>2021-03-26T16:58:13Z</time>
      </trkpt>
      <trkpt lat="46.06277" lon="-0.3392">
        <ele>71.2</ele>
        <time>2021-03-26T16:58:14Z</time>
      </trkpt>
      <trkpt lat="46.06284" lon="-0.33918">
        <ele>71.4</ele>
        <time>2021-03-26T16:58:15Z</time>
      </trkpt>
      <trkpt lat="46.06292" lon="-0.33917">
        <ele>71.6</ele>
        <time>2021-03-26T16:58:16Z</time>
      </trkpt>
      <trkpt lat="46.06299" lon="-0.33915">
        <ele>71.6</ele>
        <time>2021-03-26T16:58:17Z</time>
      </trkpt>
      <trkpt lat="46.06306" lon="-0.33913">
        <ele>71.6</ele>
        <time>2021-03-26T16:58:18Z</time>
      </trkpt>
      <trkpt lat="46.06313" lon="-0.33911">
        <ele>71.6</ele>
        <time>2021-03-26T16:58:19Z</time>
      </trkpt>
      <trkpt lat="46.0632" lon="-0.3391">
        <ele>71.8</ele>
        <time>2021-03-26T16:58:20Z</time>
      </trkpt>
      <trkpt lat="46.06328" lon="-0.33908">
        <ele>71.8</ele>
        <time>2021-03-26T16:58:21Z</time>
      </trkpt>
      <trkpt lat="46.06335" lon="-0.33907">
        <ele>71.8</ele>
        <time>2021-03-26T16:58:22Z</time>
      </trkpt>
      <trkpt lat="46.06342" lon="-0.33905">
        <ele>71.8</ele>
        <time>2021-03-26T16:58:23Z</time>
      </trkpt>
      <trkpt lat="46.06349" lon="-0.33903">
        <ele>71.8</ele>
        <time>2021-03-26T16:58:24Z</time>
      </trkpt>
      <trkpt lat="46.06356" lon="-0.33901">
        <ele>71.6</ele>
        <time>2021-03-26T16:58:25Z</time>
      </trkpt>
      <trkpt lat="46.06363" lon="-0.33899">
        <ele>71.4</ele>
        <time>2021-03-26T16:58:26Z</time>
      </trkpt>
      <trkpt lat="46.0637" lon="-0.33898">
        <ele>71.6</ele>
        <time>2021-03-26T16:58:27Z</time>
      </trkpt>
      <trkpt lat="46.06377" lon="-0.33896">
        <ele>71.4</ele>
        <time>2021-03-26T16:58:28Z</time>
      </trkpt>
      <trkpt lat="46.06384" lon="-0.33894">
        <ele>71.6</ele>
        <time>2021-03-26T16:58:29Z</time>
      </trkpt>
      <trkpt lat="46.06391" lon="-0.33892">
        <ele>71.6</ele>
        <time>2021-03-26T16:58:30Z</time>
      </trkpt>
      <trkpt lat="46.06412" lon="-0.33884">
        <ele>71.4</ele>
        <time>2021-03-26T16:58:33Z</time>
      </trkpt>
      <trkpt lat="46.06419" lon="-0.33882">
        <ele>71.2</ele>
        <time>2021-03-26T16:58:34Z</time>
      </trkpt>
      <trkpt lat="46.06453" lon="-0.33879">
        <ele>71</ele>
        <time>2021-03-26T16:58:39Z</time>
      </trkpt>
      <trkpt lat="46.06473" lon="-0.33881">
        <ele>70.8</ele>
        <time>2021-03-26T16:58:42Z</time>
      </trkpt>
      <trkpt lat="46.0648" lon="-0.33882">
        <ele>70.8</ele>
        <time>2021-03-26T16:58:43Z</time>
      </trkpt>
      <trkpt lat="46.06487" lon="-0.33883">
        <ele>70.6</ele>
        <time>2021-03-26T16:58:44Z</time>
      </trkpt>
      <trkpt lat="46.06493" lon="-0.33884">
        <ele>70.4</ele>
        <time>2021-03-26T16:58:45Z</time>
      </trkpt>
      <trkpt lat="46.06498" lon="-0.33884">
        <ele>70</ele>
        <time>2021-03-26T16:58:46Z</time>
      </trkpt>
      <trkpt lat="46.06503" lon="-0.33884">
        <ele>69.6</ele>
        <time>2021-03-26T16:58:47Z</time>
      </trkpt>
      <trkpt lat="46.06506" lon="-0.33884">
        <ele>69.6</ele>
        <time>2021-03-26T16:58:48Z</time>
      </trkpt>
      <trkpt lat="46.06509" lon="-0.33884">
        <ele>69.6</ele>
        <time>2021-03-26T16:58:49Z</time>
      </trkpt>
      <trkpt lat="46.06512" lon="-0.33882">
        <ele>69.4</ele>
        <time>2021-03-26T16:58:50Z</time>
      </trkpt>
      <trkpt lat="46.06516" lon="-0.33881">
        <ele>69.4</ele>
        <time>2021-03-26T16:58:51Z</time>
      </trkpt>
      <trkpt lat="46.06534" lon="-0.33877">
        <ele>69.2</ele>
        <time>2021-03-26T16:58:54Z</time>
      </trkpt>
      <trkpt lat="46.06571" lon="-0.33869">
        <ele>68.8</ele>
        <time>2021-03-26T16:58:59Z</time>
      </trkpt>
      <trkpt lat="46.06595" lon="-0.33863">
        <ele>67.8</ele>
        <time>2021-03-26T16:59:02Z</time>
      </trkpt>
      <trkpt lat="46.06611" lon="-0.3386">
        <ele>67.2</ele>
        <time>2021-03-26T16:59:04Z</time>
      </trkpt>
      <trkpt lat="46.0662" lon="-0.33858">
        <ele>66.6</ele>
        <time>2021-03-26T16:59:05Z</time>
      </trkpt>
      <trkpt lat="46.06629" lon="-0.33856">
        <ele>66.2</ele>
        <time>2021-03-26T16:59:06Z</time>
      </trkpt>
      <trkpt lat="46.06674" lon="-0.33845">
        <ele>65.6</ele>
        <time>2021-03-26T16:59:11Z</time>
      </trkpt>
      <trkpt lat="46.06684" lon="-0.33843">
        <ele>65</ele>
        <time>2021-03-26T16:59:12Z</time>
      </trkpt>
      <trkpt lat="46.06704" lon="-0.33841">
        <ele>64.2</ele>
        <time>2021-03-26T16:59:14Z</time>
      </trkpt>
      <trkpt lat="46.06714" lon="-0.33842">
        <ele>63</ele>
        <time>2021-03-26T16:59:15Z</time>
      </trkpt>
      <trkpt lat="46.06724" lon="-0.33843">
        <ele>62.2</ele>
        <time>2021-03-26T16:59:16Z</time>
      </trkpt>
      <trkpt lat="46.06733" lon="-0.33844">
        <ele>62</ele>
        <time>2021-03-26T16:59:17Z</time>
      </trkpt>
      <trkpt lat="46.0677" lon="-0.33844">
        <ele>60.8</ele>
        <time>2021-03-26T16:59:21Z</time>
      </trkpt>
      <trkpt lat="46.06779" lon="-0.33842">
        <ele>59.4</ele>
        <time>2021-03-26T16:59:22Z</time>
      </trkpt>
      <trkpt lat="46.06787" lon="-0.33841">
        <ele>58</ele>
        <time>2021-03-26T16:59:23Z</time>
      </trkpt>
      <trkpt lat="46.06795" lon="-0.33839">
        <ele>56.8</ele>
        <time>2021-03-26T16:59:24Z</time>
      </trkpt>
      <trkpt lat="46.06804" lon="-0.33838">
        <ele>56</ele>
        <time>2021-03-26T16:59:25Z</time>
      </trkpt>
      <trkpt lat="46.06812" lon="-0.33836">
        <ele>55.4</ele>
        <time>2021-03-26T16:59:26Z</time>
      </trkpt>
      <trkpt lat="46.06827" lon="-0.33832">
        <ele>54.6</ele>
        <time>2021-03-26T16:59:28Z</time>
      </trkpt>
      <trkpt lat="46.06833" lon="-0.33831">
        <ele>54.4</ele>
        <time>2021-03-26T16:59:29Z</time>
      </trkpt>
      <trkpt lat="46.06839" lon="-0.3383">
        <ele>54.4</ele>
        <time>2021-03-26T16:59:30Z</time>
      </trkpt>
      <trkpt lat="46.06844" lon="-0.33829">
        <ele>54.4</ele>
        <time>2021-03-26T16:59:31Z</time>
      </trkpt>
      <trkpt lat="46.0685" lon="-0.33829">
        <ele>54.4</ele>
        <time>2021-03-26T16:59:32Z</time>
      </trkpt>
      <trkpt lat="46.06855" lon="-0.33828">
        <ele>54.4</ele>
        <time>2021-03-26T16:59:33Z</time>
      </trkpt>
      <trkpt lat="46.06861" lon="-0.33827">
        <ele>54.4</ele>
        <time>2021-03-26T16:59:34Z</time>
      </trkpt>
      <trkpt lat="46.06871" lon="-0.33825">
        <ele>54.6</ele>
        <time>2021-03-26T16:59:36Z</time>
      </trkpt>
      <trkpt lat="46.06896" lon="-0.33822">
        <ele>55.8</ele>
        <time>2021-03-26T16:59:40Z</time>
      </trkpt>
      <trkpt lat="46.06909" lon="-0.33821">
        <ele>57.6</ele>
        <time>2021-03-26T16:59:42Z</time>
      </trkpt>
      <trkpt lat="46.06923" lon="-0.33819">
        <ele>58.8</ele>
        <time>2021-03-26T16:59:44Z</time>
      </trkpt>
      <trkpt lat="46.06937" lon="-0.33815">
        <ele>60</ele>
        <time>2021-03-26T16:59:46Z</time>
      </trkpt>
      <trkpt lat="46.06952" lon="-0.33812">
        <ele>60.8</ele>
        <time>2021-03-26T16:59:48Z</time>
      </trkpt>
      <trkpt lat="46.06959" lon="-0.33811">
        <ele>61.2</ele>
        <time>2021-03-26T16:59:49Z</time>
      </trkpt>
      <trkpt lat="46.06982" lon="-0.33806">
        <ele>62</ele>
        <time>2021-03-26T16:59:52Z</time>
      </trkpt>
      <trkpt lat="46.0699" lon="-0.33805">
        <ele>62.2</ele>
        <time>2021-03-26T16:59:53Z</time>
      </trkpt>
      <trkpt lat="46.06998" lon="-0.33803">
        <ele>62.6</ele>
        <time>2021-03-26T16:59:54Z</time>
      </trkpt>
      <trkpt lat="46.07005" lon="-0.33802">
        <ele>63</ele>
        <time>2021-03-26T16:59:55Z</time>
      </trkpt>
      <trkpt lat="46.07011" lon="-0.33801">
        <ele>63.2</ele>
        <time>2021-03-26T16:59:56Z</time>
      </trkpt>
      <trkpt lat="46.07017" lon="-0.338">
        <ele>63.8</ele>
        <time>2021-03-26T16:59:57Z</time>
      </trkpt>
      <trkpt lat="46.07022" lon="-0.33799">
        <ele>64.4</ele>
        <time>2021-03-26T16:59:58Z</time>
      </trkpt>
      <trkpt lat="46.07027" lon="-0.33797">
        <ele>64.8</ele>
        <time>2021-03-26T16:59:59Z</time>
      </trkpt>
      <trkpt lat="46.07031" lon="-0.33794">
        <ele>65.2</ele>
        <time>2021-03-26T17:00:00Z</time>
      </trkpt>
      <trkpt lat="46.07035" lon="-0.3379">
        <ele>65.4</ele>
        <time>2021-03-26T17:00:01Z</time>
      </trkpt>
      <trkpt lat="46.0704" lon="-0.33787">
        <ele>66</ele>
        <time>2021-03-26T17:00:02Z</time>
      </trkpt>
      <trkpt lat="46.07046" lon="-0.33784">
        <ele>66.4</ele>
        <time>2021-03-26T17:00:03Z</time>
      </trkpt>
      <trkpt lat="46.07052" lon="-0.33781">
        <ele>66.4</ele>
        <time>2021-03-26T17:00:04Z</time>
      </trkpt>
      <trkpt lat="46.07059" lon="-0.33779">
        <ele>66.8</ele>
        <time>2021-03-26T17:00:05Z</time>
      </trkpt>
      <trkpt lat="46.07065" lon="-0.33776">
        <ele>67</ele>
        <time>2021-03-26T17:00:06Z</time>
      </trkpt>
      <trkpt lat="46.07071" lon="-0.33773">
        <ele>67.2</ele>
        <time>2021-03-26T17:00:07Z</time>
      </trkpt>
      <trkpt lat="46.07078" lon="-0.3377">
        <ele>67.2</ele>
        <time>2021-03-26T17:00:08Z</time>
      </trkpt>
      <trkpt lat="46.07085" lon="-0.33767">
        <ele>67.6</ele>
        <time>2021-03-26T17:00:09Z</time>
      </trkpt>
      <trkpt lat="46.07091" lon="-0.33765">
        <ele>67.8</ele>
        <time>2021-03-26T17:00:10Z</time>
      </trkpt>
      <trkpt lat="46.07097" lon="-0.33763">
        <ele>67.8</ele>
        <time>2021-03-26T17:00:11Z</time>
      </trkpt>
      <trkpt lat="46.07103" lon="-0.33761">
        <ele>68</ele>
        <time>2021-03-26T17:00:12Z</time>
      </trkpt>
      <trkpt lat="46.07108" lon="-0.3376">
        <ele>68</ele>
        <time>2021-03-26T17:00:13Z</time>
      </trkpt>
      <trkpt lat="46.07109" lon="-0.3376">
        <ele>68</ele>
        <time>2021-03-26T17:00:14Z</time>
      </trkpt>
      <trkpt lat="46.07109" lon="-0.3376">
        <ele>68</ele>
        <time>2021-03-26T17:00:15Z</time>
      </trkpt>
      <trkpt lat="46.07109" lon="-0.3376">
        <ele>68</ele>
        <time>2021-03-26T17:00:16Z</time>
      </trkpt>
      <trkpt lat="46.07111" lon="-0.33759">
        <ele>68.8</ele>
        <time>2021-03-26T17:00:44Z</time>
      </trkpt>
      <trkpt lat="46.0712" lon="-0.33758">
        <ele>68.6</ele>
        <time>2021-03-26T17:00:47Z</time>
      </trkpt>
      <trkpt lat="46.07133" lon="-0.33754">
        <ele>68.6</ele>
        <time>2021-03-26T17:00:50Z</time>
      </trkpt>
      <trkpt lat="46.07137" lon="-0.33753">
        <ele>68.6</ele>
        <time>2021-03-26T17:00:51Z</time>
      </trkpt>
      <trkpt lat="46.07152" lon="-0.33749">
        <ele>68</ele>
        <time>2021-03-26T17:00:54Z</time>
      </trkpt>
      <trkpt lat="46.07163" lon="-0.33746">
        <ele>67.8</ele>
        <time>2021-03-26T17:00:56Z</time>
      </trkpt>
      <trkpt lat="46.07181" lon="-0.33742">
        <ele>67.6</ele>
        <time>2021-03-26T17:00:59Z</time>
      </trkpt>
      <trkpt lat="46.07187" lon="-0.3374">
        <ele>67.6</ele>
        <time>2021-03-26T17:01:00Z</time>
      </trkpt>
      <trkpt lat="46.07192" lon="-0.33739">
        <ele>67.4</ele>
        <time>2021-03-26T17:01:01Z</time>
      </trkpt>
      <trkpt lat="46.07197" lon="-0.33738">
        <ele>67.4</ele>
        <time>2021-03-26T17:01:02Z</time>
      </trkpt>
      <trkpt lat="46.07202" lon="-0.33737">
        <ele>67.4</ele>
        <time>2021-03-26T17:01:03Z</time>
      </trkpt>
      <trkpt lat="46.07207" lon="-0.33736">
        <ele>67.2</ele>
        <time>2021-03-26T17:01:04Z</time>
      </trkpt>
      <trkpt lat="46.07211" lon="-0.33734">
        <ele>67</ele>
        <time>2021-03-26T17:01:05Z</time>
      </trkpt>
      <trkpt lat="46.07216" lon="-0.33732">
        <ele>66.6</ele>
        <time>2021-03-26T17:01:06Z</time>
      </trkpt>
      <trkpt lat="46.07222" lon="-0.3373">
        <ele>66.2</ele>
        <time>2021-03-26T17:01:07Z</time>
      </trkpt>
      <trkpt lat="46.07232" lon="-0.33727">
        <ele>66.2</ele>
        <time>2021-03-26T17:01:09Z</time>
      </trkpt>
      <trkpt lat="46.07238" lon="-0.33725">
        <ele>65.8</ele>
        <time>2021-03-26T17:01:10Z</time>
      </trkpt>
      <trkpt lat="46.07246" lon="-0.33723">
        <ele>65.4</ele>
        <time>2021-03-26T17:01:12Z</time>
      </trkpt>
      <trkpt lat="46.0725" lon="-0.33724">
        <ele>64.6</ele>
        <time>2021-03-26T17:01:13Z</time>
      </trkpt>
      <trkpt lat="46.07254" lon="-0.33724">
        <ele>64.6</ele>
        <time>2021-03-26T17:01:14Z</time>
      </trkpt>
      <trkpt lat="46.07258" lon="-0.33724">
        <ele>64</ele>
        <time>2021-03-26T17:01:15Z</time>
      </trkpt>
      <trkpt lat="46.07263" lon="-0.33725">
        <ele>63.6</ele>
        <time>2021-03-26T17:01:16Z</time>
      </trkpt>
      <trkpt lat="46.07271" lon="-0.33728">
        <ele>62.8</ele>
        <time>2021-03-26T17:01:18Z</time>
      </trkpt>
      <trkpt lat="46.07274" lon="-0.33729">
        <ele>62</ele>
        <time>2021-03-26T17:01:19Z</time>
      </trkpt>
      <trkpt lat="46.07277" lon="-0.3373">
        <ele>61.6</ele>
        <time>2021-03-26T17:01:20Z</time>
      </trkpt>
      <trkpt lat="46.07279" lon="-0.33731">
        <ele>61.2</ele>
        <time>2021-03-26T17:01:21Z</time>
      </trkpt>
      <trkpt lat="46.07281" lon="-0.33732">
        <ele>61</ele>
        <time>2021-03-26T17:01:22Z</time>
      </trkpt>
      <trkpt lat="46.07283" lon="-0.33733">
        <ele>60.6</ele>
        <time>2021-03-26T17:01:23Z</time>
      </trkpt>
      <trkpt lat="46.07285" lon="-0.33735">
        <ele>60.4</ele>
        <time>2021-03-26T17:01:24Z</time>
      </trkpt>
      <trkpt lat="46.07286" lon="-0.33737">
        <ele>60.4</ele>
        <time>2021-03-26T17:01:25Z</time>
      </trkpt>
      <trkpt lat="46.07288" lon="-0.33738">
        <ele>60.4</ele>
        <time>2021-03-26T17:01:26Z</time>
      </trkpt>
      <trkpt lat="46.07289" lon="-0.33739">
        <ele>60.4</ele>
        <time>2021-03-26T17:01:27Z</time>
      </trkpt>
      <trkpt lat="46.07289" lon="-0.33739">
        <ele>60.4</ele>
        <time>2021-03-26T17:01:28Z</time>
      </trkpt>
      <trkpt lat="46.0729" lon="-0.33739">
        <ele>60.4</ele>
        <time>2021-03-26T17:01:29Z</time>
      </trkpt>
      <trkpt lat="46.07296" lon="-0.33742">
        <ele>60.4</ele>
        <time>2021-03-26T17:01:32Z</time>
      </trkpt>
      <trkpt lat="46.07304" lon="-0.33747">
        <ele>60.4</ele>
        <time>2021-03-26T17:01:34Z</time>
      </trkpt>
      <trkpt lat="46.07308" lon="-0.33749">
        <ele>60.4</ele>
        <time>2021-03-26T17:01:35Z</time>
      </trkpt>
      <trkpt lat="46.07315" lon="-0.33753">
        <ele>60.8</ele>
        <time>2021-03-26T17:01:38Z</time>
      </trkpt>
      <trkpt lat="46.07317" lon="-0.33753">
        <ele>60.8</ele>
        <time>2021-03-26T17:01:39Z</time>
      </trkpt>
      <trkpt lat="46.07319" lon="-0.33754">
        <ele>60.8</ele>
        <time>2021-03-26T17:01:40Z</time>
      </trkpt>
      <trkpt lat="46.07322" lon="-0.33754">
        <ele>60.8</ele>
        <time>2021-03-26T17:01:41Z</time>
      </trkpt>
      <trkpt lat="46.07332" lon="-0.33759">
        <ele>61</ele>
        <time>2021-03-26T17:01:43Z</time>
      </trkpt>
      <trkpt lat="46.07339" lon="-0.3376">
        <ele>61</ele>
        <time>2021-03-26T17:01:45Z</time>
      </trkpt>
      <trkpt lat="46.07342" lon="-0.3376">
        <ele>60.8</ele>
        <time>2021-03-26T17:01:46Z</time>
      </trkpt>
      <trkpt lat="46.07346" lon="-0.33761">
        <ele>60.8</ele>
        <time>2021-03-26T17:01:47Z</time>
      </trkpt>
      <trkpt lat="46.07349" lon="-0.33763">
        <ele>60.6</ele>
        <time>2021-03-26T17:01:48Z</time>
      </trkpt>
      <trkpt lat="46.07366" lon="-0.33773">
        <ele>60.4</ele>
        <time>2021-03-26T17:01:53Z</time>
      </trkpt>
      <trkpt lat="46.07369" lon="-0.33773">
        <ele>60.4</ele>
        <time>2021-03-26T17:01:54Z</time>
      </trkpt>
      <trkpt lat="46.07373" lon="-0.33772">
        <ele>60.4</ele>
        <time>2021-03-26T17:01:55Z</time>
      </trkpt>
      <trkpt lat="46.07379" lon="-0.3377">
        <ele>60.4</ele>
        <time>2021-03-26T17:01:56Z</time>
      </trkpt>
      <trkpt lat="46.07384" lon="-0.33767">
        <ele>60.4</ele>
        <time>2021-03-26T17:01:57Z</time>
      </trkpt>
      <trkpt lat="46.07389" lon="-0.33763">
        <ele>60.4</ele>
        <time>2021-03-26T17:01:58Z</time>
      </trkpt>
      <trkpt lat="46.07394" lon="-0.33759">
        <ele>60.4</ele>
        <time>2021-03-26T17:01:59Z</time>
      </trkpt>
      <trkpt lat="46.07416" lon="-0.3374">
        <ele>60.2</ele>
        <time>2021-03-26T17:02:04Z</time>
      </trkpt>
      <trkpt lat="46.07426" lon="-0.33732">
        <ele>60.4</ele>
        <time>2021-03-26T17:02:06Z</time>
      </trkpt>
      <trkpt lat="46.07435" lon="-0.33725">
        <ele>60.4</ele>
        <time>2021-03-26T17:02:08Z</time>
      </trkpt>
      <trkpt lat="46.07439" lon="-0.3372">
        <ele>60.4</ele>
        <time>2021-03-26T17:02:09Z</time>
      </trkpt>
      <trkpt lat="46.07451" lon="-0.3371">
        <ele>60.6</ele>
        <time>2021-03-26T17:02:12Z</time>
      </trkpt>
      <trkpt lat="46.07452" lon="-0.33709">
        <ele>60.6</ele>
        <time>2021-03-26T17:02:13Z</time>
      </trkpt>
      <trkpt lat="46.07452" lon="-0.33709">
        <ele>60.8</ele>
        <time>2021-03-26T17:02:14Z</time>
      </trkpt>
      <trkpt lat="46.07465" lon="-0.33724">
        <ele>63</ele>
        <time>2021-03-26T17:02:49Z</time>
      </trkpt>
      <trkpt lat="46.07467" lon="-0.3373">
        <ele>63.2</ele>
        <time>2021-03-26T17:02:51Z</time>
      </trkpt>
      <trkpt lat="46.07468" lon="-0.33732">
        <ele>63.4</ele>
        <time>2021-03-26T17:02:52Z</time>
      </trkpt>
      <trkpt lat="46.07468" lon="-0.33735">
        <ele>63.4</ele>
        <time>2021-03-26T17:02:53Z</time>
      </trkpt>
      <trkpt lat="46.0747" lon="-0.33738">
        <ele>63.6</ele>
        <time>2021-03-26T17:02:54Z</time>
      </trkpt>
      <trkpt lat="46.07473" lon="-0.3374">
        <ele>63.6</ele>
        <time>2021-03-26T17:02:55Z</time>
      </trkpt>
      <trkpt lat="46.07476" lon="-0.33742">
        <ele>63.8</ele>
        <time>2021-03-26T17:02:56Z</time>
      </trkpt>
      <trkpt lat="46.07479" lon="-0.33744">
        <ele>64</ele>
        <time>2021-03-26T17:02:57Z</time>
      </trkpt>
      <trkpt lat="46.07482" lon="-0.33745">
        <ele>64</ele>
        <time>2021-03-26T17:02:58Z</time>
      </trkpt>
      <trkpt lat="46.07486" lon="-0.33744">
        <ele>64.2</ele>
        <time>2021-03-26T17:02:59Z</time>
      </trkpt>
      <trkpt lat="46.07489" lon="-0.33743">
        <ele>64.4</ele>
        <time>2021-03-26T17:03:00Z</time>
      </trkpt>
      <trkpt lat="46.07492" lon="-0.33741">
        <ele>64.4</ele>
        <time>2021-03-26T17:03:01Z</time>
      </trkpt>
      <trkpt lat="46.07496" lon="-0.3374">
        <ele>64.6</ele>
        <time>2021-03-26T17:03:02Z</time>
      </trkpt>
      <trkpt lat="46.07499" lon="-0.33738">
        <ele>64.6</ele>
        <time>2021-03-26T17:03:03Z</time>
      </trkpt>
      <trkpt lat="46.07507" lon="-0.33736">
        <ele>65.2</ele>
        <time>2021-03-26T17:03:05Z</time>
      </trkpt>
      <trkpt lat="46.07529" lon="-0.33737">
        <ele>66</ele>
        <time>2021-03-26T17:03:10Z</time>
      </trkpt>
      <trkpt lat="46.07532" lon="-0.33737">
        <ele>66</ele>
        <time>2021-03-26T17:03:11Z</time>
      </trkpt>
      <trkpt lat="46.07535" lon="-0.33739">
        <ele>66.2</ele>
        <time>2021-03-26T17:03:12Z</time>
      </trkpt>
      <trkpt lat="46.07539" lon="-0.33739">
        <ele>66.2</ele>
        <time>2021-03-26T17:03:13Z</time>
      </trkpt>
      <trkpt lat="46.07542" lon="-0.33739">
        <ele>66.4</ele>
        <time>2021-03-26T17:03:14Z</time>
      </trkpt>
      <trkpt lat="46.07545" lon="-0.33738">
        <ele>66.4</ele>
        <time>2021-03-26T17:03:15Z</time>
      </trkpt>
      <trkpt lat="46.07548" lon="-0.33737">
        <ele>66.6</ele>
        <time>2021-03-26T17:03:16Z</time>
      </trkpt>
      <trkpt lat="46.07551" lon="-0.33737">
        <ele>66.8</ele>
        <time>2021-03-26T17:03:17Z</time>
      </trkpt>
      <trkpt lat="46.07553" lon="-0.33738">
        <ele>67</ele>
        <time>2021-03-26T17:03:18Z</time>
      </trkpt>
      <trkpt lat="46.07554" lon="-0.3374">
        <ele>67.4</ele>
        <time>2021-03-26T17:03:19Z</time>
      </trkpt>
      <trkpt lat="46.07558" lon="-0.33746">
        <ele>67.8</ele>
        <time>2021-03-26T17:03:20Z</time>
      </trkpt>
      <trkpt lat="46.07563" lon="-0.33748">
        <ele>68.2</ele>
        <time>2021-03-26T17:03:21Z</time>
      </trkpt>
      <trkpt lat="46.07567" lon="-0.33753">
        <ele>68.4</ele>
        <time>2021-03-26T17:03:22Z</time>
      </trkpt>
      <trkpt lat="46.07571" lon="-0.33756">
        <ele>68.4</ele>
        <time>2021-03-26T17:03:23Z</time>
      </trkpt>
      <trkpt lat="46.07576" lon="-0.33757">
        <ele>68.8</ele>
        <time>2021-03-26T17:03:24Z</time>
      </trkpt>
      <trkpt lat="46.0758" lon="-0.33758">
        <ele>69</ele>
        <time>2021-03-26T17:03:25Z</time>
      </trkpt>
      <trkpt lat="46.07584" lon="-0.33758">
        <ele>69</ele>
        <time>2021-03-26T17:03:26Z</time>
      </trkpt>
      <trkpt lat="46.07586" lon="-0.33759">
        <ele>69.2</ele>
        <time>2021-03-26T17:03:27Z</time>
      </trkpt>
      <trkpt lat="46.07588" lon="-0.33758">
        <ele>69.2</ele>
        <time>2021-03-26T17:03:28Z</time>
      </trkpt>
      <trkpt lat="46.0759" lon="-0.33758">
        <ele>69.4</ele>
        <time>2021-03-26T17:03:29Z</time>
      </trkpt>
      <trkpt lat="46.07593" lon="-0.33759">
        <ele>69.6</ele>
        <time>2021-03-26T17:03:30Z</time>
      </trkpt>
      <trkpt lat="46.07595" lon="-0.33761">
        <ele>70.2</ele>
        <time>2021-03-26T17:03:31Z</time>
      </trkpt>
      <trkpt lat="46.07597" lon="-0.33763">
        <ele>70.6</ele>
        <time>2021-03-26T17:03:32Z</time>
      </trkpt>
      <trkpt lat="46.07599" lon="-0.33763">
        <ele>71.2</ele>
        <time>2021-03-26T17:03:33Z</time>
      </trkpt>
      <trkpt lat="46.07601" lon="-0.33765">
        <ele>71.8</ele>
        <time>2021-03-26T17:03:34Z</time>
      </trkpt>
      <trkpt lat="46.07604" lon="-0.33766">
        <ele>72.2</ele>
        <time>2021-03-26T17:03:35Z</time>
      </trkpt>
      <trkpt lat="46.07607" lon="-0.33767">
        <ele>72.4</ele>
        <time>2021-03-26T17:03:36Z</time>
      </trkpt>
      <trkpt lat="46.0761" lon="-0.33769">
        <ele>72.6</ele>
        <time>2021-03-26T17:03:37Z</time>
      </trkpt>
      <trkpt lat="46.07611" lon="-0.33772">
        <ele>72.6</ele>
        <time>2021-03-26T17:03:38Z</time>
      </trkpt>
      <trkpt lat="46.07613" lon="-0.33777">
        <ele>72.8</ele>
        <time>2021-03-26T17:03:39Z</time>
      </trkpt>
      <trkpt lat="46.07614" lon="-0.33781">
        <ele>73</ele>
        <time>2021-03-26T17:03:40Z</time>
      </trkpt>
      <trkpt lat="46.07615" lon="-0.33786">
        <ele>73.2</ele>
        <time>2021-03-26T17:03:41Z</time>
      </trkpt>
      <trkpt lat="46.07615" lon="-0.33792">
        <ele>73.2</ele>
        <time>2021-03-26T17:03:43Z</time>
      </trkpt>
      <trkpt lat="46.07618" lon="-0.33799">
        <ele>73.4</ele>
        <time>2021-03-26T17:03:44Z</time>
      </trkpt>
      <trkpt lat="46.07621" lon="-0.33803">
        <ele>73.4</ele>
        <time>2021-03-26T17:03:45Z</time>
      </trkpt>
      <trkpt lat="46.07624" lon="-0.33806">
        <ele>73.8</ele>
        <time>2021-03-26T17:03:46Z</time>
      </trkpt>
      <trkpt lat="46.07627" lon="-0.33807">
        <ele>73.8</ele>
        <time>2021-03-26T17:03:47Z</time>
      </trkpt>
      <trkpt lat="46.07631" lon="-0.33809">
        <ele>74</ele>
        <time>2021-03-26T17:03:48Z</time>
      </trkpt>
      <trkpt lat="46.07636" lon="-0.33808">
        <ele>74.2</ele>
        <time>2021-03-26T17:03:49Z</time>
      </trkpt>
      <trkpt lat="46.07639" lon="-0.33807">
        <ele>74.2</ele>
        <time>2021-03-26T17:03:50Z</time>
      </trkpt>
      <trkpt lat="46.07641" lon="-0.33806">
        <ele>74.4</ele>
        <time>2021-03-26T17:03:51Z</time>
      </trkpt>
      <trkpt lat="46.07642" lon="-0.33807">
        <ele>74.6</ele>
        <time>2021-03-26T17:03:52Z</time>
      </trkpt>
      <trkpt lat="46.07643" lon="-0.33808">
        <ele>74.6</ele>
        <time>2021-03-26T17:03:53Z</time>
      </trkpt>
      <trkpt lat="46.07646" lon="-0.33811">
        <ele>74.8</ele>
        <time>2021-03-26T17:03:54Z</time>
      </trkpt>
      <trkpt lat="46.07649" lon="-0.33812">
        <ele>75</ele>
        <time>2021-03-26T17:03:55Z</time>
      </trkpt>
      <trkpt lat="46.07652" lon="-0.33814">
        <ele>75.2</ele>
        <time>2021-03-26T17:03:56Z</time>
      </trkpt>
      <trkpt lat="46.07656" lon="-0.33814">
        <ele>75.6</ele>
        <time>2021-03-26T17:03:57Z</time>
      </trkpt>
      <trkpt lat="46.07659" lon="-0.33814">
        <ele>75.8</ele>
        <time>2021-03-26T17:03:58Z</time>
      </trkpt>
      <trkpt lat="46.07663" lon="-0.33814">
        <ele>75.8</ele>
        <time>2021-03-26T17:03:59Z</time>
      </trkpt>
      <trkpt lat="46.07666" lon="-0.33814">
        <ele>76.2</ele>
        <time>2021-03-26T17:04:00Z</time>
      </trkpt>
      <trkpt lat="46.07669" lon="-0.33814">
        <ele>76</ele>
        <time>2021-03-26T17:04:01Z</time>
      </trkpt>
      <trkpt lat="46.07671" lon="-0.33815">
        <ele>76.2</ele>
        <time>2021-03-26T17:04:02Z</time>
      </trkpt>
      <trkpt lat="46.07673" lon="-0.33817">
        <ele>76.2</ele>
        <time>2021-03-26T17:04:03Z</time>
      </trkpt>
      <trkpt lat="46.07677" lon="-0.33816">
        <ele>76.2</ele>
        <time>2021-03-26T17:04:04Z</time>
      </trkpt>
      <trkpt lat="46.07682" lon="-0.33813">
        <ele>76.4</ele>
        <time>2021-03-26T17:04:05Z</time>
      </trkpt>
      <trkpt lat="46.07686" lon="-0.33809">
        <ele>76.4</ele>
        <time>2021-03-26T17:04:06Z</time>
      </trkpt>
      <trkpt lat="46.0769" lon="-0.33806">
        <ele>76.4</ele>
        <time>2021-03-26T17:04:07Z</time>
      </trkpt>
      <trkpt lat="46.07693" lon="-0.33806">
        <ele>76.6</ele>
        <time>2021-03-26T17:04:08Z</time>
      </trkpt>
      <trkpt lat="46.07695" lon="-0.33808">
        <ele>76.6</ele>
        <time>2021-03-26T17:04:09Z</time>
      </trkpt>
      <trkpt lat="46.07698" lon="-0.33807">
        <ele>76.6</ele>
        <time>2021-03-26T17:04:10Z</time>
      </trkpt>
      <trkpt lat="46.07702" lon="-0.33806">
        <ele>76.6</ele>
        <time>2021-03-26T17:04:11Z</time>
      </trkpt>
      <trkpt lat="46.07705" lon="-0.33805">
        <ele>76.8</ele>
        <time>2021-03-26T17:04:12Z</time>
      </trkpt>
      <trkpt lat="46.07707" lon="-0.33805">
        <ele>77</ele>
        <time>2021-03-26T17:04:13Z</time>
      </trkpt>
      <trkpt lat="46.0771" lon="-0.33805">
        <ele>77</ele>
        <time>2021-03-26T17:04:14Z</time>
      </trkpt>
      <trkpt lat="46.07713" lon="-0.33803">
        <ele>77.4</ele>
        <time>2021-03-26T17:04:15Z</time>
      </trkpt>
      <trkpt lat="46.07715" lon="-0.338">
        <ele>77.6</ele>
        <time>2021-03-26T17:04:16Z</time>
      </trkpt>
      <trkpt lat="46.07717" lon="-0.33797">
        <ele>77.6</ele>
        <time>2021-03-26T17:04:17Z</time>
      </trkpt>
      <trkpt lat="46.07719" lon="-0.33796">
        <ele>77.8</ele>
        <time>2021-03-26T17:04:18Z</time>
      </trkpt>
      <trkpt lat="46.07722" lon="-0.33795">
        <ele>77.8</ele>
        <time>2021-03-26T17:04:19Z</time>
      </trkpt>
      <trkpt lat="46.07724" lon="-0.33796">
        <ele>78</ele>
        <time>2021-03-26T17:04:20Z</time>
      </trkpt>
      <trkpt lat="46.07726" lon="-0.33796">
        <ele>78</ele>
        <time>2021-03-26T17:04:21Z</time>
      </trkpt>
      <trkpt lat="46.07729" lon="-0.33796">
        <ele>78.2</ele>
        <time>2021-03-26T17:04:22Z</time>
      </trkpt>
      <trkpt lat="46.07733" lon="-0.33795">
        <ele>78.2</ele>
        <time>2021-03-26T17:04:23Z</time>
      </trkpt>
      <trkpt lat="46.07735" lon="-0.33796">
        <ele>78.2</ele>
        <time>2021-03-26T17:04:24Z</time>
      </trkpt>
      <trkpt lat="46.07737" lon="-0.33796">
        <ele>78.4</ele>
        <time>2021-03-26T17:04:25Z</time>
      </trkpt>
      <trkpt lat="46.07738" lon="-0.33796">
        <ele>78.4</ele>
        <time>2021-03-26T17:04:26Z</time>
      </trkpt>
      <trkpt lat="46.07738" lon="-0.33796">
        <ele>78.4</ele>
        <time>2021-03-26T17:04:27Z</time>
      </trkpt>
      <trkpt lat="46.07738" lon="-0.33796">
        <ele>78.4</ele>
        <time>2021-03-26T17:04:28Z</time>
      </trkpt>
      <trkpt lat="46.07738" lon="-0.33805">
        <ele>79.2</ele>
        <time>2021-03-26T17:05:00Z</time>
      </trkpt>
      <trkpt lat="46.07737" lon="-0.33812">
        <ele>79.2</ele>
        <time>2021-03-26T17:05:02Z</time>
      </trkpt>
      <trkpt lat="46.0774" lon="-0.33817">
        <ele>79.2</ele>
        <time>2021-03-26T17:05:04Z</time>
      </trkpt>
      <trkpt lat="46.07743" lon="-0.33819">
        <ele>79.2</ele>
        <time>2021-03-26T17:05:05Z</time>
      </trkpt>
      <trkpt lat="46.07749" lon="-0.33823">
        <ele>79.2</ele>
        <time>2021-03-26T17:05:07Z</time>
      </trkpt>
      <trkpt lat="46.07753" lon="-0.33824">
        <ele>79.2</ele>
        <time>2021-03-26T17:05:08Z</time>
      </trkpt>
      <trkpt lat="46.07756" lon="-0.33827">
        <ele>79.2</ele>
        <time>2021-03-26T17:05:09Z</time>
      </trkpt>
      <trkpt lat="46.07759" lon="-0.3383">
        <ele>79.2</ele>
        <time>2021-03-26T17:05:10Z</time>
      </trkpt>
      <trkpt lat="46.07771" lon="-0.33835">
        <ele>79.4</ele>
        <time>2021-03-26T17:05:14Z</time>
      </trkpt>
      <trkpt lat="46.07774" lon="-0.33837">
        <ele>79.4</ele>
        <time>2021-03-26T17:05:15Z</time>
      </trkpt>
      <trkpt lat="46.07792" lon="-0.3385">
        <ele>80</ele>
        <time>2021-03-26T17:05:20Z</time>
      </trkpt>
      <trkpt lat="46.07796" lon="-0.33853">
        <ele>80.2</ele>
        <time>2021-03-26T17:05:21Z</time>
      </trkpt>
      <trkpt lat="46.078" lon="-0.33856">
        <ele>80.2</ele>
        <time>2021-03-26T17:05:22Z</time>
      </trkpt>
      <trkpt lat="46.07804" lon="-0.33859">
        <ele>80.4</ele>
        <time>2021-03-26T17:05:23Z</time>
      </trkpt>
      <trkpt lat="46.07813" lon="-0.33865">
        <ele>80.6</ele>
        <time>2021-03-26T17:05:25Z</time>
      </trkpt>
      <trkpt lat="46.07818" lon="-0.33867">
        <ele>80.6</ele>
        <time>2021-03-26T17:05:26Z</time>
      </trkpt>
      <trkpt lat="46.07823" lon="-0.33868">
        <ele>80.6</ele>
        <time>2021-03-26T17:05:27Z</time>
      </trkpt>
      <trkpt lat="46.07835" lon="-0.33869">
        <ele>80.6</ele>
        <time>2021-03-26T17:05:29Z</time>
      </trkpt>
      <trkpt lat="46.07842" lon="-0.33869">
        <ele>80.6</ele>
        <time>2021-03-26T17:05:30Z</time>
      </trkpt>
      <trkpt lat="46.07871" lon="-0.3387">
        <ele>80.8</ele>
        <time>2021-03-26T17:05:35Z</time>
      </trkpt>
      <trkpt lat="46.07876" lon="-0.33871">
        <ele>81</ele>
        <time>2021-03-26T17:05:36Z</time>
      </trkpt>
      <trkpt lat="46.0788" lon="-0.33872">
        <ele>81.2</ele>
        <time>2021-03-26T17:05:37Z</time>
      </trkpt>
      <trkpt lat="46.07882" lon="-0.33873">
        <ele>81</ele>
        <time>2021-03-26T17:05:38Z</time>
      </trkpt>
      <trkpt lat="46.07884" lon="-0.33875">
        <ele>81.2</ele>
        <time>2021-03-26T17:05:39Z</time>
      </trkpt>
      <trkpt lat="46.07887" lon="-0.33876">
        <ele>81.2</ele>
        <time>2021-03-26T17:05:40Z</time>
      </trkpt>
      <trkpt lat="46.0789" lon="-0.33878">
        <ele>81.4</ele>
        <time>2021-03-26T17:05:41Z</time>
      </trkpt>
      <trkpt lat="46.07902" lon="-0.33879">
        <ele>82.2</ele>
        <time>2021-03-26T17:05:44Z</time>
      </trkpt>
      <trkpt lat="46.07907" lon="-0.33884">
        <ele>82.8</ele>
        <time>2021-03-26T17:05:46Z</time>
      </trkpt>
      <trkpt lat="46.07909" lon="-0.33888">
        <ele>82.8</ele>
        <time>2021-03-26T17:05:47Z</time>
      </trkpt>
      <trkpt lat="46.07911" lon="-0.33892">
        <ele>82.8</ele>
        <time>2021-03-26T17:05:48Z</time>
      </trkpt>
      <trkpt lat="46.07913" lon="-0.33896">
        <ele>83</ele>
        <time>2021-03-26T17:05:49Z</time>
      </trkpt>
      <trkpt lat="46.07915" lon="-0.33899">
        <ele>83</ele>
        <time>2021-03-26T17:05:50Z</time>
      </trkpt>
      <trkpt lat="46.07918" lon="-0.33901">
        <ele>83</ele>
        <time>2021-03-26T17:05:51Z</time>
      </trkpt>
      <trkpt lat="46.07921" lon="-0.33903">
        <ele>83</ele>
        <time>2021-03-26T17:05:52Z</time>
      </trkpt>
      <trkpt lat="46.07922" lon="-0.33907">
        <ele>83</ele>
        <time>2021-03-26T17:05:53Z</time>
      </trkpt>
      <trkpt lat="46.07923" lon="-0.33912">
        <ele>83</ele>
        <time>2021-03-26T17:05:54Z</time>
      </trkpt>
      <trkpt lat="46.07923" lon="-0.33913">
        <ele>83</ele>
        <time>2021-03-26T17:05:55Z</time>
      </trkpt>
      <trkpt lat="46.07923" lon="-0.33913">
        <ele>83.2</ele>
        <time>2021-03-26T17:05:56Z</time>
      </trkpt>
      <trkpt lat="46.07927" lon="-0.3392">
        <ele>83.4</ele>
        <time>2021-03-26T17:06:06Z</time>
      </trkpt>
      <trkpt lat="46.07929" lon="-0.33923">
        <ele>83.4</ele>
        <time>2021-03-26T17:06:07Z</time>
      </trkpt>
      <trkpt lat="46.07931" lon="-0.33923">
        <ele>83.6</ele>
        <time>2021-03-26T17:06:08Z</time>
      </trkpt>
      <trkpt lat="46.07934" lon="-0.33917">
        <ele>83.6</ele>
        <time>2021-03-26T17:06:10Z</time>
      </trkpt>
      <trkpt lat="46.07937" lon="-0.33909">
        <ele>83.6</ele>
        <time>2021-03-26T17:06:12Z</time>
      </trkpt>
      <trkpt lat="46.07941" lon="-0.33894">
        <ele>83.8</ele>
        <time>2021-03-26T17:06:16Z</time>
      </trkpt>
      <trkpt lat="46.07942" lon="-0.33884">
        <ele>83.8</ele>
        <time>2021-03-26T17:06:18Z</time>
      </trkpt>
      <trkpt lat="46.07943" lon="-0.33879">
        <ele>83.8</ele>
        <time>2021-03-26T17:06:19Z</time>
      </trkpt>
      <trkpt lat="46.07945" lon="-0.33874">
        <ele>84</ele>
        <time>2021-03-26T17:06:20Z</time>
      </trkpt>
      <trkpt lat="46.07952" lon="-0.33852">
        <ele>84</ele>
        <time>2021-03-26T17:06:24Z</time>
      </trkpt>
      <trkpt lat="46.07955" lon="-0.33843">
        <ele>84</ele>
        <time>2021-03-26T17:06:26Z</time>
      </trkpt>
      <trkpt lat="46.07957" lon="-0.33834">
        <ele>84</ele>
        <time>2021-03-26T17:06:28Z</time>
      </trkpt>
      <trkpt lat="46.07961" lon="-0.33806">
        <ele>84</ele>
        <time>2021-03-26T17:06:33Z</time>
      </trkpt>
      <trkpt lat="46.07963" lon="-0.338">
        <ele>84</ele>
        <time>2021-03-26T17:06:34Z</time>
      </trkpt>
      <trkpt lat="46.07963" lon="-0.33795">
        <ele>84</ele>
        <time>2021-03-26T17:06:35Z</time>
      </trkpt>
      <trkpt lat="46.07962" lon="-0.33784">
        <ele>84</ele>
        <time>2021-03-26T17:06:37Z</time>
      </trkpt>
      <trkpt lat="46.07966" lon="-0.33777">
        <ele>84.2</ele>
        <time>2021-03-26T17:06:39Z</time>
      </trkpt>
      <trkpt lat="46.07968" lon="-0.33772">
        <ele>84.2</ele>
        <time>2021-03-26T17:06:40Z</time>
      </trkpt>
      <trkpt lat="46.07969" lon="-0.33768">
        <ele>84.2</ele>
        <time>2021-03-26T17:06:41Z</time>
      </trkpt>
      <trkpt lat="46.07971" lon="-0.33763">
        <ele>84.2</ele>
        <time>2021-03-26T17:06:42Z</time>
      </trkpt>
      <trkpt lat="46.07972" lon="-0.33755">
        <ele>84.2</ele>
        <time>2021-03-26T17:06:44Z</time>
      </trkpt>
      <trkpt lat="46.07973" lon="-0.33752">
        <ele>84.2</ele>
        <time>2021-03-26T17:06:45Z</time>
      </trkpt>
      <trkpt lat="46.07974" lon="-0.33747">
        <ele>84.2</ele>
        <time>2021-03-26T17:06:46Z</time>
      </trkpt>
      <trkpt lat="46.07979" lon="-0.3372">
        <ele>84.2</ele>
        <time>2021-03-26T17:06:51Z</time>
      </trkpt>
      <trkpt lat="46.07978" lon="-0.33715">
        <ele>84.2</ele>
        <time>2021-03-26T17:06:52Z</time>
      </trkpt>
      <trkpt lat="46.07978" lon="-0.3371">
        <ele>84.2</ele>
        <time>2021-03-26T17:06:53Z</time>
      </trkpt>
      <trkpt lat="46.07983" lon="-0.33703">
        <ele>84.2</ele>
        <time>2021-03-26T17:06:55Z</time>
      </trkpt>
      <trkpt lat="46.07986" lon="-0.33701">
        <ele>84.2</ele>
        <time>2021-03-26T17:06:56Z</time>
      </trkpt>
      <trkpt lat="46.07997" lon="-0.33697">
        <ele>84.4</ele>
        <time>2021-03-26T17:06:59Z</time>
      </trkpt>
      <trkpt lat="46.08001" lon="-0.33696">
        <ele>84.4</ele>
        <time>2021-03-26T17:07:00Z</time>
      </trkpt>
      <trkpt lat="46.08005" lon="-0.33694">
        <ele>84.4</ele>
        <time>2021-03-26T17:07:01Z</time>
      </trkpt>
      <trkpt lat="46.08025" lon="-0.33696">
        <ele>84.2</ele>
        <time>2021-03-26T17:07:06Z</time>
      </trkpt>
      <trkpt lat="46.08028" lon="-0.33698">
        <ele>84.2</ele>
        <time>2021-03-26T17:07:07Z</time>
      </trkpt>
      <trkpt lat="46.08044" lon="-0.3371">
        <ele>84.4</ele>
        <time>2021-03-26T17:07:11Z</time>
      </trkpt>
      <trkpt lat="46.08053" lon="-0.33714">
        <ele>84.6</ele>
        <time>2021-03-26T17:07:13Z</time>
      </trkpt>
      <trkpt lat="46.08063" lon="-0.33713">
        <ele>84.8</ele>
        <time>2021-03-26T17:07:15Z</time>
      </trkpt>
      <trkpt lat="46.08067" lon="-0.33714">
        <ele>84.8</ele>
        <time>2021-03-26T17:07:16Z</time>
      </trkpt>
      <trkpt lat="46.0807" lon="-0.33717">
        <ele>85</ele>
        <time>2021-03-26T17:07:17Z</time>
      </trkpt>
      <trkpt lat="46.08073" lon="-0.33719">
        <ele>85</ele>
        <time>2021-03-26T17:07:18Z</time>
      </trkpt>
      <trkpt lat="46.08076" lon="-0.3372">
        <ele>85</ele>
        <time>2021-03-26T17:07:19Z</time>
      </trkpt>
      <trkpt lat="46.08078" lon="-0.33719">
        <ele>85.2</ele>
        <time>2021-03-26T17:07:20Z</time>
      </trkpt>
      <trkpt lat="46.08079" lon="-0.33719">
        <ele>85.2</ele>
        <time>2021-03-26T17:07:21Z</time>
      </trkpt>
      <trkpt lat="46.08079" lon="-0.33719">
        <ele>85.4</ele>
        <time>2021-03-26T17:07:22Z</time>
      </trkpt>
      <trkpt lat="46.08079" lon="-0.33719">
        <ele>85.4</ele>
        <time>2021-03-26T17:07:23Z</time>
      </trkpt>
      <trkpt lat="46.08084" lon="-0.33723">
        <ele>86.4</ele>
        <time>2021-03-26T17:07:36Z</time>
      </trkpt>
      <trkpt lat="46.08088" lon="-0.3373">
        <ele>86.4</ele>
        <time>2021-03-26T17:07:38Z</time>
      </trkpt>
      <trkpt lat="46.08097" lon="-0.33737">
        <ele>86.4</ele>
        <time>2021-03-26T17:07:41Z</time>
      </trkpt>
      <trkpt lat="46.08101" lon="-0.33737">
        <ele>86.4</ele>
        <time>2021-03-26T17:07:42Z</time>
      </trkpt>
      <trkpt lat="46.08105" lon="-0.33738">
        <ele>86.6</ele>
        <time>2021-03-26T17:07:43Z</time>
      </trkpt>
      <trkpt lat="46.08109" lon="-0.33739">
        <ele>86.4</ele>
        <time>2021-03-26T17:07:44Z</time>
      </trkpt>
      <trkpt lat="46.08118" lon="-0.33743">
        <ele>86.4</ele>
        <time>2021-03-26T17:07:46Z</time>
      </trkpt>
      <trkpt lat="46.08123" lon="-0.33745">
        <ele>86.4</ele>
        <time>2021-03-26T17:07:47Z</time>
      </trkpt>
      <trkpt lat="46.08135" lon="-0.33752">
        <ele>86.6</ele>
        <time>2021-03-26T17:07:50Z</time>
      </trkpt>
      <trkpt lat="46.08138" lon="-0.33753">
        <ele>86.4</ele>
        <time>2021-03-26T17:07:51Z</time>
      </trkpt>
      <trkpt lat="46.08141" lon="-0.33755">
        <ele>86.4</ele>
        <time>2021-03-26T17:07:52Z</time>
      </trkpt>
      <trkpt lat="46.08142" lon="-0.33755">
        <ele>86.4</ele>
        <time>2021-03-26T17:07:53Z</time>
      </trkpt>
      <trkpt lat="46.08143" lon="-0.33756">
        <ele>86.4</ele>
        <time>2021-03-26T17:07:54Z</time>
      </trkpt>
      <trkpt lat="46.08143" lon="-0.33756">
        <ele>86.4</ele>
        <time>2021-03-26T17:07:55Z</time>
      </trkpt>
      <trkpt lat="46.08143" lon="-0.33756">
        <ele>86.6</ele>
        <time>2021-03-26T17:07:56Z</time>
      </trkpt>
      <trkpt lat="46.08142" lon="-0.33763">
        <ele>87.2</ele>
        <time>2021-03-26T17:08:06Z</time>
      </trkpt>
      <trkpt lat="46.0814" lon="-0.33774">
        <ele>87.2</ele>
        <time>2021-03-26T17:08:08Z</time>
      </trkpt>
      <trkpt lat="46.08139" lon="-0.33781">
        <ele>87.2</ele>
        <time>2021-03-26T17:08:09Z</time>
      </trkpt>
      <trkpt lat="46.08132" lon="-0.33812">
        <ele>86.8</ele>
        <time>2021-03-26T17:08:13Z</time>
      </trkpt>
      <trkpt lat="46.08118" lon="-0.33863">
        <ele>85.4</ele>
        <time>2021-03-26T17:08:19Z</time>
      </trkpt>
      <trkpt lat="46.08116" lon="-0.33872">
        <ele>85</ele>
        <time>2021-03-26T17:08:20Z</time>
      </trkpt>
      <trkpt lat="46.08114" lon="-0.3388">
        <ele>84.8</ele>
        <time>2021-03-26T17:08:21Z</time>
      </trkpt>
      <trkpt lat="46.0811" lon="-0.33903">
        <ele>84.2</ele>
        <time>2021-03-26T17:08:24Z</time>
      </trkpt>
      <trkpt lat="46.08109" lon="-0.33909">
        <ele>84</ele>
        <time>2021-03-26T17:08:25Z</time>
      </trkpt>
      <trkpt lat="46.08109" lon="-0.33915">
        <ele>84</ele>
        <time>2021-03-26T17:08:26Z</time>
      </trkpt>
      <trkpt lat="46.0811" lon="-0.33919">
        <ele>84</ele>
        <time>2021-03-26T17:08:27Z</time>
      </trkpt>
      <trkpt lat="46.08111" lon="-0.33923">
        <ele>84</ele>
        <time>2021-03-26T17:08:28Z</time>
      </trkpt>
      <trkpt lat="46.08113" lon="-0.33926">
        <ele>84</ele>
        <time>2021-03-26T17:08:29Z</time>
      </trkpt>
      <trkpt lat="46.08115" lon="-0.33928">
        <ele>84</ele>
        <time>2021-03-26T17:08:30Z</time>
      </trkpt>
      <trkpt lat="46.08116" lon="-0.33929">
        <ele>84</ele>
        <time>2021-03-26T17:08:31Z</time>
      </trkpt>
      <trkpt lat="46.08116" lon="-0.3393">
        <ele>84</ele>
        <time>2021-03-26T17:08:32Z</time>
      </trkpt>
      <trkpt lat="46.08116" lon="-0.3393">
        <ele>84</ele>
        <time>2021-03-26T17:08:33Z</time>
      </trkpt>
      <trkpt lat="46.08126" lon="-0.33926">
        <ele>84.4</ele>
        <time>2021-03-26T17:08:42Z</time>
      </trkpt>
      <trkpt lat="46.08131" lon="-0.33923">
        <ele>84.4</ele>
        <time>2021-03-26T17:08:43Z</time>
      </trkpt>
      <trkpt lat="46.08161" lon="-0.3391">
        <ele>84.4</ele>
        <time>2021-03-26T17:08:48Z</time>
      </trkpt>
      <trkpt lat="46.08174" lon="-0.33904">
        <ele>84.4</ele>
        <time>2021-03-26T17:08:50Z</time>
      </trkpt>
      <trkpt lat="46.08188" lon="-0.339">
        <ele>84.2</ele>
        <time>2021-03-26T17:08:52Z</time>
      </trkpt>
      <trkpt lat="46.08194" lon="-0.33898">
        <ele>84</ele>
        <time>2021-03-26T17:08:53Z</time>
      </trkpt>
      <trkpt lat="46.08239" lon="-0.3388">
        <ele>83.8</ele>
        <time>2021-03-26T17:09:00Z</time>
      </trkpt>
      <trkpt lat="46.08246" lon="-0.33877">
        <ele>84</ele>
        <time>2021-03-26T17:09:01Z</time>
      </trkpt>
      <trkpt lat="46.08252" lon="-0.33875">
        <ele>84</ele>
        <time>2021-03-26T17:09:02Z</time>
      </trkpt>
      <trkpt lat="46.08282" lon="-0.33863">
        <ele>84.4</ele>
        <time>2021-03-26T17:09:07Z</time>
      </trkpt>
      <trkpt lat="46.08287" lon="-0.33861">
        <ele>84.6</ele>
        <time>2021-03-26T17:09:08Z</time>
      </trkpt>
      <trkpt lat="46.08294" lon="-0.33857">
        <ele>84.6</ele>
        <time>2021-03-26T17:09:09Z</time>
      </trkpt>
      <trkpt lat="46.08297" lon="-0.33855">
        <ele>84.8</ele>
        <time>2021-03-26T17:09:10Z</time>
      </trkpt>
      <trkpt lat="46.08303" lon="-0.33853">
        <ele>84.8</ele>
        <time>2021-03-26T17:09:11Z</time>
      </trkpt>
      <trkpt lat="46.08309" lon="-0.33851">
        <ele>84.8</ele>
        <time>2021-03-26T17:09:12Z</time>
      </trkpt>
      <trkpt lat="46.08315" lon="-0.33849">
        <ele>85</ele>
        <time>2021-03-26T17:09:13Z</time>
      </trkpt>
      <trkpt lat="46.08321" lon="-0.33846">
        <ele>85.2</ele>
        <time>2021-03-26T17:09:14Z</time>
      </trkpt>
      <trkpt lat="46.08334" lon="-0.33841">
        <ele>86</ele>
        <time>2021-03-26T17:09:16Z</time>
      </trkpt>
      <trkpt lat="46.08341" lon="-0.33838">
        <ele>86.2</ele>
        <time>2021-03-26T17:09:17Z</time>
      </trkpt>
      <trkpt lat="46.08354" lon="-0.33834">
        <ele>87</ele>
        <time>2021-03-26T17:09:19Z</time>
      </trkpt>
      <trkpt lat="46.08367" lon="-0.33829">
        <ele>87.4</ele>
        <time>2021-03-26T17:09:21Z</time>
      </trkpt>
      <trkpt lat="46.08373" lon="-0.33827">
        <ele>87.6</ele>
        <time>2021-03-26T17:09:22Z</time>
      </trkpt>
      <trkpt lat="46.08379" lon="-0.33825">
        <ele>87.8</ele>
        <time>2021-03-26T17:09:23Z</time>
      </trkpt>
      <trkpt lat="46.08384" lon="-0.33823">
        <ele>88.2</ele>
        <time>2021-03-26T17:09:24Z</time>
      </trkpt>
      <trkpt lat="46.0839" lon="-0.33821">
        <ele>88.4</ele>
        <time>2021-03-26T17:09:25Z</time>
      </trkpt>
      <trkpt lat="46.08395" lon="-0.33819">
        <ele>88.6</ele>
        <time>2021-03-26T17:09:26Z</time>
      </trkpt>
      <trkpt lat="46.084" lon="-0.33817">
        <ele>88.6</ele>
        <time>2021-03-26T17:09:27Z</time>
      </trkpt>
      <trkpt lat="46.08405" lon="-0.33814">
        <ele>88.6</ele>
        <time>2021-03-26T17:09:28Z</time>
      </trkpt>
      <trkpt lat="46.08409" lon="-0.33812">
        <ele>89</ele>
        <time>2021-03-26T17:09:29Z</time>
      </trkpt>
      <trkpt lat="46.08411" lon="-0.3381">
        <ele>89.2</ele>
        <time>2021-03-26T17:09:30Z</time>
      </trkpt>
      <trkpt lat="46.08413" lon="-0.33809">
        <ele>89.8</ele>
        <time>2021-03-26T17:09:31Z</time>
      </trkpt>
      <trkpt lat="46.08413" lon="-0.33808">
        <ele>90</ele>
        <time>2021-03-26T17:09:32Z</time>
      </trkpt>
      <trkpt lat="46.08413" lon="-0.33808">
        <ele>90.4</ele>
        <time>2021-03-26T17:09:33Z</time>
      </trkpt>
      <trkpt lat="46.08418" lon="-0.33809">
        <ele>92.2</ele>
        <time>2021-03-26T17:11:06Z</time>
      </trkpt>
      <trkpt lat="46.08426" lon="-0.33814">
        <ele>92.2</ele>
        <time>2021-03-26T17:11:08Z</time>
      </trkpt>
      <trkpt lat="46.0843" lon="-0.33817">
        <ele>92.2</ele>
        <time>2021-03-26T17:11:09Z</time>
      </trkpt>
      <trkpt lat="46.08435" lon="-0.33821">
        <ele>92.2</ele>
        <time>2021-03-26T17:11:10Z</time>
      </trkpt>
      <trkpt lat="46.08444" lon="-0.33829">
        <ele>92.2</ele>
        <time>2021-03-26T17:11:12Z</time>
      </trkpt>
      <trkpt lat="46.0845" lon="-0.33833">
        <ele>92</ele>
        <time>2021-03-26T17:11:13Z</time>
      </trkpt>
      <trkpt lat="46.08481" lon="-0.33856">
        <ele>91.4</ele>
        <time>2021-03-26T17:11:19Z</time>
      </trkpt>
      <trkpt lat="46.08516" lon="-0.33881">
        <ele>91.4</ele>
        <time>2021-03-26T17:11:25Z</time>
      </trkpt>
      <trkpt lat="46.08528" lon="-0.3389">
        <ele>91.4</ele>
        <time>2021-03-26T17:11:27Z</time>
      </trkpt>
      <trkpt lat="46.08534" lon="-0.33893">
        <ele>91.4</ele>
        <time>2021-03-26T17:11:28Z</time>
      </trkpt>
      <trkpt lat="46.08539" lon="-0.33897">
        <ele>91.6</ele>
        <time>2021-03-26T17:11:29Z</time>
      </trkpt>
      <trkpt lat="46.08543" lon="-0.33901">
        <ele>91.6</ele>
        <time>2021-03-26T17:11:30Z</time>
      </trkpt>
      <trkpt lat="46.08547" lon="-0.33905">
        <ele>91.6</ele>
        <time>2021-03-26T17:11:31Z</time>
      </trkpt>
      <trkpt lat="46.08551" lon="-0.33908">
        <ele>91.6</ele>
        <time>2021-03-26T17:11:32Z</time>
      </trkpt>
      <trkpt lat="46.08554" lon="-0.33912">
        <ele>91.8</ele>
        <time>2021-03-26T17:11:33Z</time>
      </trkpt>
      <trkpt lat="46.08557" lon="-0.33913">
        <ele>91.8</ele>
        <time>2021-03-26T17:11:34Z</time>
      </trkpt>
      <trkpt lat="46.0856" lon="-0.33912">
        <ele>91.8</ele>
        <time>2021-03-26T17:11:35Z</time>
      </trkpt>
      <trkpt lat="46.08562" lon="-0.33909">
        <ele>92.2</ele>
        <time>2021-03-26T17:11:36Z</time>
      </trkpt>
      <trkpt lat="46.08563" lon="-0.33905">
        <ele>92.6</ele>
        <time>2021-03-26T17:11:37Z</time>
      </trkpt>
      <trkpt lat="46.08564" lon="-0.339">
        <ele>93</ele>
        <time>2021-03-26T17:11:38Z</time>
      </trkpt>
      <trkpt lat="46.08564" lon="-0.33894">
        <ele>93.2</ele>
        <time>2021-03-26T17:11:39Z</time>
      </trkpt>
      <trkpt lat="46.08564" lon="-0.33889">
        <ele>93.6</ele>
        <time>2021-03-26T17:11:40Z</time>
      </trkpt>
      <trkpt lat="46.08565" lon="-0.33882">
        <ele>93.8</ele>
        <time>2021-03-26T17:11:41Z</time>
      </trkpt>
      <trkpt lat="46.08566" lon="-0.33867">
        <ele>94.2</ele>
        <time>2021-03-26T17:11:43Z</time>
      </trkpt>
      <trkpt lat="46.08566" lon="-0.33858">
        <ele>94.2</ele>
        <time>2021-03-26T17:11:44Z</time>
      </trkpt>
      <trkpt lat="46.08567" lon="-0.33831">
        <ele>94.2</ele>
        <time>2021-03-26T17:11:47Z</time>
      </trkpt>
      <trkpt lat="46.08568" lon="-0.3382">
        <ele>94.2</ele>
        <time>2021-03-26T17:11:48Z</time>
      </trkpt>
      <trkpt lat="46.08569" lon="-0.33814">
        <ele>94.2</ele>
        <time>2021-03-26T17:11:49Z</time>
      </trkpt>
      <trkpt lat="46.08569" lon="-0.33806">
        <ele>94.2</ele>
        <time>2021-03-26T17:11:50Z</time>
      </trkpt>
      <trkpt lat="46.0857" lon="-0.33799">
        <ele>94.2</ele>
        <time>2021-03-26T17:11:51Z</time>
      </trkpt>
      <trkpt lat="46.08571" lon="-0.33791">
        <ele>94.2</ele>
        <time>2021-03-26T17:11:52Z</time>
      </trkpt>
      <trkpt lat="46.08571" lon="-0.33782">
        <ele>94.2</ele>
        <time>2021-03-26T17:11:53Z</time>
      </trkpt>
      <trkpt lat="46.08572" lon="-0.33773">
        <ele>94</ele>
        <time>2021-03-26T17:11:54Z</time>
      </trkpt>
      <trkpt lat="46.08573" lon="-0.33764">
        <ele>94</ele>
        <time>2021-03-26T17:11:55Z</time>
      </trkpt>
      <trkpt lat="46.08573" lon="-0.33755">
        <ele>93.8</ele>
        <time>2021-03-26T17:11:56Z</time>
      </trkpt>
      <trkpt lat="46.08575" lon="-0.33737">
        <ele>93.6</ele>
        <time>2021-03-26T17:11:58Z</time>
      </trkpt>
      <trkpt lat="46.08577" lon="-0.3372">
        <ele>93.4</ele>
        <time>2021-03-26T17:12:00Z</time>
      </trkpt>
      <trkpt lat="46.08578" lon="-0.33711">
        <ele>93.4</ele>
        <time>2021-03-26T17:12:01Z</time>
      </trkpt>
      <trkpt lat="46.08578" lon="-0.33703">
        <ele>93.2</ele>
        <time>2021-03-26T17:12:02Z</time>
      </trkpt>
      <trkpt lat="46.08579" lon="-0.3368">
        <ele>93</ele>
        <time>2021-03-26T17:12:05Z</time>
      </trkpt>
      <trkpt lat="46.08579" lon="-0.33673">
        <ele>93</ele>
        <time>2021-03-26T17:12:06Z</time>
      </trkpt>
      <trkpt lat="46.0858" lon="-0.33665">
        <ele>93</ele>
        <time>2021-03-26T17:12:07Z</time>
      </trkpt>
      <trkpt lat="46.08579" lon="-0.33657">
        <ele>92.8</ele>
        <time>2021-03-26T17:12:08Z</time>
      </trkpt>
      <trkpt lat="46.08579" lon="-0.3365">
        <ele>92.8</ele>
        <time>2021-03-26T17:12:09Z</time>
      </trkpt>
      <trkpt lat="46.0858" lon="-0.33635">
        <ele>92.6</ele>
        <time>2021-03-26T17:12:11Z</time>
      </trkpt>
      <trkpt lat="46.08581" lon="-0.33621">
        <ele>92.6</ele>
        <time>2021-03-26T17:12:13Z</time>
      </trkpt>
      <trkpt lat="46.0858" lon="-0.33614">
        <ele>92.6</ele>
        <time>2021-03-26T17:12:14Z</time>
      </trkpt>
      <trkpt lat="46.0858" lon="-0.33607">
        <ele>92.4</ele>
        <time>2021-03-26T17:12:15Z</time>
      </trkpt>
      <trkpt lat="46.08581" lon="-0.33598">
        <ele>92.4</ele>
        <time>2021-03-26T17:12:16Z</time>
      </trkpt>
      <trkpt lat="46.08584" lon="-0.33562">
        <ele>92.2</ele>
        <time>2021-03-26T17:12:20Z</time>
      </trkpt>
      <trkpt lat="46.08584" lon="-0.33552">
        <ele>92.2</ele>
        <time>2021-03-26T17:12:21Z</time>
      </trkpt>
      <trkpt lat="46.08585" lon="-0.33542">
        <ele>92</ele>
        <time>2021-03-26T17:12:22Z</time>
      </trkpt>
      <trkpt lat="46.08588" lon="-0.33514">
        <ele>91.6</ele>
        <time>2021-03-26T17:12:25Z</time>
      </trkpt>
      <trkpt lat="46.08589" lon="-0.33478">
        <ele>91.2</ele>
        <time>2021-03-26T17:12:29Z</time>
      </trkpt>
      <trkpt lat="46.0859" lon="-0.3347">
        <ele>91.2</ele>
        <time>2021-03-26T17:12:30Z</time>
      </trkpt>
      <trkpt lat="46.08591" lon="-0.33462">
        <ele>91</ele>
        <time>2021-03-26T17:12:31Z</time>
      </trkpt>
      <trkpt lat="46.08592" lon="-0.33454">
        <ele>90.8</ele>
        <time>2021-03-26T17:12:32Z</time>
      </trkpt>
      <trkpt lat="46.08592" lon="-0.33444">
        <ele>90.8</ele>
        <time>2021-03-26T17:12:33Z</time>
      </trkpt>
      <trkpt lat="46.08593" lon="-0.33427">
        <ele>90.6</ele>
        <time>2021-03-26T17:12:35Z</time>
      </trkpt>
      <trkpt lat="46.08594" lon="-0.33418">
        <ele>90.4</ele>
        <time>2021-03-26T17:12:36Z</time>
      </trkpt>
      <trkpt lat="46.08594" lon="-0.33409">
        <ele>90.4</ele>
        <time>2021-03-26T17:12:37Z</time>
      </trkpt>
      <trkpt lat="46.08596" lon="-0.33372">
        <ele>89.8</ele>
        <time>2021-03-26T17:12:41Z</time>
      </trkpt>
      <trkpt lat="46.08596" lon="-0.33364">
        <ele>89.6</ele>
        <time>2021-03-26T17:12:42Z</time>
      </trkpt>
      <trkpt lat="46.08599" lon="-0.33339">
        <ele>89.2</ele>
        <time>2021-03-26T17:12:45Z</time>
      </trkpt>
      <trkpt lat="46.08599" lon="-0.33331">
        <ele>89.2</ele>
        <time>2021-03-26T17:12:46Z</time>
      </trkpt>
      <trkpt lat="46.086" lon="-0.33315">
        <ele>89</ele>
        <time>2021-03-26T17:12:48Z</time>
      </trkpt>
      <trkpt lat="46.08601" lon="-0.33307">
        <ele>88.8</ele>
        <time>2021-03-26T17:12:49Z</time>
      </trkpt>
      <trkpt lat="46.08602" lon="-0.33299">
        <ele>88.6</ele>
        <time>2021-03-26T17:12:50Z</time>
      </trkpt>
      <trkpt lat="46.08602" lon="-0.3329">
        <ele>88.4</ele>
        <time>2021-03-26T17:12:51Z</time>
      </trkpt>
      <trkpt lat="46.08604" lon="-0.33265">
        <ele>87.6</ele>
        <time>2021-03-26T17:12:54Z</time>
      </trkpt>
      <trkpt lat="46.08604" lon="-0.33257">
        <ele>87.4</ele>
        <time>2021-03-26T17:12:55Z</time>
      </trkpt>
      <trkpt lat="46.08605" lon="-0.33249">
        <ele>87.2</ele>
        <time>2021-03-26T17:12:56Z</time>
      </trkpt>
      <trkpt lat="46.08606" lon="-0.33226">
        <ele>86.8</ele>
        <time>2021-03-26T17:12:59Z</time>
      </trkpt>
      <trkpt lat="46.08606" lon="-0.33211">
        <ele>86.4</ele>
        <time>2021-03-26T17:13:01Z</time>
      </trkpt>
      <trkpt lat="46.08607" lon="-0.33204">
        <ele>86.4</ele>
        <time>2021-03-26T17:13:02Z</time>
      </trkpt>
      <trkpt lat="46.08607" lon="-0.33198">
        <ele>86.2</ele>
        <time>2021-03-26T17:13:03Z</time>
      </trkpt>
      <trkpt lat="46.08607" lon="-0.33191">
        <ele>86.2</ele>
        <time>2021-03-26T17:13:04Z</time>
      </trkpt>
      <trkpt lat="46.08607" lon="-0.33184">
        <ele>86</ele>
        <time>2021-03-26T17:13:05Z</time>
      </trkpt>
      <trkpt lat="46.08606" lon="-0.3316">
        <ele>85.8</ele>
        <time>2021-03-26T17:13:08Z</time>
      </trkpt>
      <trkpt lat="46.08606" lon="-0.33152">
        <ele>85.8</ele>
        <time>2021-03-26T17:13:09Z</time>
      </trkpt>
      <trkpt lat="46.08607" lon="-0.33145">
        <ele>85.6</ele>
        <time>2021-03-26T17:13:10Z</time>
      </trkpt>
      <trkpt lat="46.08607" lon="-0.3314">
        <ele>85.6</ele>
        <time>2021-03-26T17:13:11Z</time>
      </trkpt>
      <trkpt lat="46.08608" lon="-0.33137">
        <ele>85.6</ele>
        <time>2021-03-26T17:13:12Z</time>
      </trkpt>
      <trkpt lat="46.08609" lon="-0.33134">
        <ele>85.4</ele>
        <time>2021-03-26T17:13:13Z</time>
      </trkpt>
      <trkpt lat="46.0861" lon="-0.33133">
        <ele>85.4</ele>
        <time>2021-03-26T17:13:14Z</time>
      </trkpt>
      <trkpt lat="46.0861" lon="-0.33133">
        <ele>85.4</ele>
        <time>2021-03-26T17:13:15Z</time>
      </trkpt>
      <trkpt lat="46.08612" lon="-0.33132">
        <ele>85</ele>
        <time>2021-03-26T17:13:17Z</time>
      </trkpt>
      <trkpt lat="46.08613" lon="-0.33132">
        <ele>84.8</ele>
        <time>2021-03-26T17:13:18Z</time>
      </trkpt>
      <trkpt lat="46.08615" lon="-0.33131">
        <ele>84.8</ele>
        <time>2021-03-26T17:13:19Z</time>
      </trkpt>
      <trkpt lat="46.08621" lon="-0.3313">
        <ele>84.8</ele>
        <time>2021-03-26T17:13:21Z</time>
      </trkpt>
      <trkpt lat="46.08631" lon="-0.33127">
        <ele>84.6</ele>
        <time>2021-03-26T17:13:23Z</time>
      </trkpt>
      <trkpt lat="46.08635" lon="-0.33126">
        <ele>84.6</ele>
        <time>2021-03-26T17:13:24Z</time>
      </trkpt>
      <trkpt lat="46.0864" lon="-0.33126">
        <ele>84.6</ele>
        <time>2021-03-26T17:13:25Z</time>
      </trkpt>
      <trkpt lat="46.08652" lon="-0.33126">
        <ele>84.4</ele>
        <time>2021-03-26T17:13:28Z</time>
      </trkpt>
      <trkpt lat="46.08655" lon="-0.33126">
        <ele>84.4</ele>
        <time>2021-03-26T17:13:29Z</time>
      </trkpt>
      <trkpt lat="46.08659" lon="-0.33126">
        <ele>83.8</ele>
        <time>2021-03-26T17:13:30Z</time>
      </trkpt>
      <trkpt lat="46.08668" lon="-0.33126">
        <ele>83.2</ele>
        <time>2021-03-26T17:13:32Z</time>
      </trkpt>
      <trkpt lat="46.08673" lon="-0.33128">
        <ele>83</ele>
        <time>2021-03-26T17:13:33Z</time>
      </trkpt>
      <trkpt lat="46.08677" lon="-0.3313">
        <ele>82.6</ele>
        <time>2021-03-26T17:13:34Z</time>
      </trkpt>
      <trkpt lat="46.08681" lon="-0.33132">
        <ele>82.2</ele>
        <time>2021-03-26T17:13:35Z</time>
      </trkpt>
      <trkpt lat="46.08685" lon="-0.33133">
        <ele>82</ele>
        <time>2021-03-26T17:13:36Z</time>
      </trkpt>
      <trkpt lat="46.0869" lon="-0.33134">
        <ele>81.6</ele>
        <time>2021-03-26T17:13:37Z</time>
      </trkpt>
      <trkpt lat="46.08694" lon="-0.33134">
        <ele>81.4</ele>
        <time>2021-03-26T17:13:38Z</time>
      </trkpt>
      <trkpt lat="46.08702" lon="-0.33133">
        <ele>80.4</ele>
        <time>2021-03-26T17:13:40Z</time>
      </trkpt>
      <trkpt lat="46.08712" lon="-0.3313">
        <ele>80</ele>
        <time>2021-03-26T17:13:42Z</time>
      </trkpt>
      <trkpt lat="46.08717" lon="-0.3313">
        <ele>79.8</ele>
        <time>2021-03-26T17:13:43Z</time>
      </trkpt>
      <trkpt lat="46.08723" lon="-0.3313">
        <ele>79.6</ele>
        <time>2021-03-26T17:13:44Z</time>
      </trkpt>
      <trkpt lat="46.08728" lon="-0.33131">
        <ele>79.2</ele>
        <time>2021-03-26T17:13:45Z</time>
      </trkpt>
      <trkpt lat="46.08737" lon="-0.33135">
        <ele>78.8</ele>
        <time>2021-03-26T17:13:47Z</time>
      </trkpt>
      <trkpt lat="46.08741" lon="-0.33137">
        <ele>78.4</ele>
        <time>2021-03-26T17:13:48Z</time>
      </trkpt>
      <trkpt lat="46.08745" lon="-0.33138">
        <ele>78.2</ele>
        <time>2021-03-26T17:13:49Z</time>
      </trkpt>
      <trkpt lat="46.0875" lon="-0.33138">
        <ele>78</ele>
        <time>2021-03-26T17:13:50Z</time>
      </trkpt>
      <trkpt lat="46.08758" lon="-0.33139">
        <ele>76.8</ele>
        <time>2021-03-26T17:13:52Z</time>
      </trkpt>
      <trkpt lat="46.08762" lon="-0.3314">
        <ele>76.4</ele>
        <time>2021-03-26T17:13:53Z</time>
      </trkpt>
      <trkpt lat="46.08766" lon="-0.33139">
        <ele>76.2</ele>
        <time>2021-03-26T17:13:54Z</time>
      </trkpt>
      <trkpt lat="46.0877" lon="-0.33138">
        <ele>76</ele>
        <time>2021-03-26T17:13:55Z</time>
      </trkpt>
      <trkpt lat="46.08775" lon="-0.33136">
        <ele>75.8</ele>
        <time>2021-03-26T17:13:56Z</time>
      </trkpt>
      <trkpt lat="46.08779" lon="-0.33134">
        <ele>75.4</ele>
        <time>2021-03-26T17:13:57Z</time>
      </trkpt>
      <trkpt lat="46.08783" lon="-0.33132">
        <ele>74.4</ele>
        <time>2021-03-26T17:13:59Z</time>
      </trkpt>
      <trkpt lat="46.08783" lon="-0.33132">
        <ele>74</ele>
        <time>2021-03-26T17:14:00Z</time>
      </trkpt>
      <trkpt lat="46.08776" lon="-0.33134">
        <ele>73</ele>
        <time>2021-03-26T17:14:12Z</time>
      </trkpt>
      <trkpt lat="46.08775" lon="-0.3313">
        <ele>73</ele>
        <time>2021-03-26T17:14:14Z</time>
      </trkpt>
      <trkpt lat="46.08776" lon="-0.33123">
        <ele>73</ele>
        <time>2021-03-26T17:14:16Z</time>
      </trkpt>
      <trkpt lat="46.08778" lon="-0.33116">
        <ele>73</ele>
        <time>2021-03-26T17:14:18Z</time>
      </trkpt>
      <trkpt lat="46.0878" lon="-0.33115">
        <ele>73</ele>
        <time>2021-03-26T17:14:19Z</time>
      </trkpt>
      <trkpt lat="46.08781" lon="-0.33114">
        <ele>72.8</ele>
        <time>2021-03-26T17:14:20Z</time>
      </trkpt>
      <trkpt lat="46.08782" lon="-0.33113">
        <ele>72.8</ele>
        <time>2021-03-26T17:14:21Z</time>
      </trkpt>
      <trkpt lat="46.08784" lon="-0.33111">
        <ele>72.8</ele>
        <time>2021-03-26T17:14:22Z</time>
      </trkpt>
      <trkpt lat="46.08785" lon="-0.3311">
        <ele>72.6</ele>
        <time>2021-03-26T17:14:23Z</time>
      </trkpt>
      <trkpt lat="46.08787" lon="-0.3311">
        <ele>72.6</ele>
        <time>2021-03-26T17:14:24Z</time>
      </trkpt>
      <trkpt lat="46.08789" lon="-0.33111">
        <ele>72.6</ele>
        <time>2021-03-26T17:14:25Z</time>
      </trkpt>
      <trkpt lat="46.08794" lon="-0.33115">
        <ele>72.4</ele>
        <time>2021-03-26T17:14:27Z</time>
      </trkpt>
      <trkpt lat="46.08797" lon="-0.33116">
        <ele>72.4</ele>
        <time>2021-03-26T17:14:28Z</time>
      </trkpt>
      <trkpt lat="46.088" lon="-0.33117">
        <ele>72.4</ele>
        <time>2021-03-26T17:14:29Z</time>
      </trkpt>
      <trkpt lat="46.08808" lon="-0.33115">
        <ele>72.2</ele>
        <time>2021-03-26T17:14:31Z</time>
      </trkpt>
      <trkpt lat="46.08812" lon="-0.33113">
        <ele>72</ele>
        <time>2021-03-26T17:14:32Z</time>
      </trkpt>
      <trkpt lat="46.08817" lon="-0.33112">
        <ele>71.6</ele>
        <time>2021-03-26T17:14:33Z</time>
      </trkpt>
      <trkpt lat="46.08835" lon="-0.33107">
        <ele>70.8</ele>
        <time>2021-03-26T17:14:37Z</time>
      </trkpt>
      <trkpt lat="46.0884" lon="-0.33106">
        <ele>70.4</ele>
        <time>2021-03-26T17:14:38Z</time>
      </trkpt>
      <trkpt lat="46.08851" lon="-0.33102">
        <ele>69.8</ele>
        <time>2021-03-26T17:14:40Z</time>
      </trkpt>
      <trkpt lat="46.08868" lon="-0.33101">
        <ele>69.2</ele>
        <time>2021-03-26T17:14:43Z</time>
      </trkpt>
      <trkpt lat="46.08892" lon="-0.331">
        <ele>68</ele>
        <time>2021-03-26T17:14:47Z</time>
      </trkpt>
      <trkpt lat="46.08898" lon="-0.33099">
        <ele>67.8</ele>
        <time>2021-03-26T17:14:48Z</time>
      </trkpt>
      <trkpt lat="46.08912" lon="-0.33099">
        <ele>67.2</ele>
        <time>2021-03-26T17:14:50Z</time>
      </trkpt>
      <trkpt lat="46.08919" lon="-0.33098">
        <ele>66.6</ele>
        <time>2021-03-26T17:14:51Z</time>
      </trkpt>
      <trkpt lat="46.08933" lon="-0.33097">
        <ele>65.4</ele>
        <time>2021-03-26T17:14:53Z</time>
      </trkpt>
      <trkpt lat="46.08946" lon="-0.33095">
        <ele>64.6</ele>
        <time>2021-03-26T17:14:55Z</time>
      </trkpt>
      <trkpt lat="46.08953" lon="-0.33095">
        <ele>64.4</ele>
        <time>2021-03-26T17:14:56Z</time>
      </trkpt>
      <trkpt lat="46.08959" lon="-0.33094">
        <ele>64</ele>
        <time>2021-03-26T17:14:57Z</time>
      </trkpt>
      <trkpt lat="46.08973" lon="-0.33094">
        <ele>63.2</ele>
        <time>2021-03-26T17:14:59Z</time>
      </trkpt>
      <trkpt lat="46.0898" lon="-0.33093">
        <ele>63</ele>
        <time>2021-03-26T17:15:00Z</time>
      </trkpt>
      <trkpt lat="46.09004" lon="-0.33091">
        <ele>62.6</ele>
        <time>2021-03-26T17:15:04Z</time>
      </trkpt>
      <trkpt lat="46.09009" lon="-0.33091">
        <ele>62.4</ele>
        <time>2021-03-26T17:15:05Z</time>
      </trkpt>
      <trkpt lat="46.09013" lon="-0.3309">
        <ele>62.2</ele>
        <time>2021-03-26T17:15:06Z</time>
      </trkpt>
      <trkpt lat="46.09016" lon="-0.33089">
        <ele>62.2</ele>
        <time>2021-03-26T17:15:07Z</time>
      </trkpt>
      <trkpt lat="46.09019" lon="-0.33089">
        <ele>62.2</ele>
        <time>2021-03-26T17:15:08Z</time>
      </trkpt>
      <trkpt lat="46.09022" lon="-0.33089">
        <ele>62.2</ele>
        <time>2021-03-26T17:15:09Z</time>
      </trkpt>
      <trkpt lat="46.09026" lon="-0.3309">
        <ele>62.2</ele>
        <time>2021-03-26T17:15:10Z</time>
      </trkpt>
      <trkpt lat="46.0904" lon="-0.3309">
        <ele>62.2</ele>
        <time>2021-03-26T17:15:13Z</time>
      </trkpt>
      <trkpt lat="46.09068" lon="-0.33088">
        <ele>62.2</ele>
        <time>2021-03-26T17:15:18Z</time>
      </trkpt>
      <trkpt lat="46.09073" lon="-0.33087">
        <ele>62.2</ele>
        <time>2021-03-26T17:15:19Z</time>
      </trkpt>
      <trkpt lat="46.09076" lon="-0.33085">
        <ele>62.2</ele>
        <time>2021-03-26T17:15:20Z</time>
      </trkpt>
      <trkpt lat="46.09078" lon="-0.33082">
        <ele>62.2</ele>
        <time>2021-03-26T17:15:21Z</time>
      </trkpt>
      <trkpt lat="46.09079" lon="-0.3308">
        <ele>62</ele>
        <time>2021-03-26T17:15:22Z</time>
      </trkpt>
      <trkpt lat="46.09079" lon="-0.33079">
        <ele>61.8</ele>
        <time>2021-03-26T17:15:23Z</time>
      </trkpt>
      <trkpt lat="46.09079" lon="-0.33079">
        <ele>61.6</ele>
        <time>2021-03-26T17:15:24Z</time>
      </trkpt>
      <trkpt lat="46.09079" lon="-0.33079">
        <ele>61.6</ele>
        <time>2021-03-26T17:15:25Z</time>
      </trkpt>
      <trkpt lat="46.09079" lon="-0.33079">
        <ele>61.6</ele>
        <time>2021-03-26T17:15:26Z</time>
      </trkpt>
      <trkpt lat="46.09084" lon="-0.33077">
        <ele>61.4</ele>
        <time>2021-03-26T17:15:41Z</time>
      </trkpt>
      <trkpt lat="46.09084" lon="-0.33075">
        <ele>61.4</ele>
        <time>2021-03-26T17:15:42Z</time>
      </trkpt>
      <trkpt lat="46.09084" lon="-0.33073">
        <ele>61.4</ele>
        <time>2021-03-26T17:15:43Z</time>
      </trkpt>
      <trkpt lat="46.09085" lon="-0.33064">
        <ele>61.4</ele>
        <time>2021-03-26T17:15:45Z</time>
      </trkpt>
      <trkpt lat="46.09084" lon="-0.33059">
        <ele>61.4</ele>
        <time>2021-03-26T17:15:46Z</time>
      </trkpt>
      <trkpt lat="46.09083" lon="-0.33052">
        <ele>61.2</ele>
        <time>2021-03-26T17:15:47Z</time>
      </trkpt>
      <trkpt lat="46.09079" lon="-0.33013">
        <ele>60.8</ele>
        <time>2021-03-26T17:15:52Z</time>
      </trkpt>
      <trkpt lat="46.0908" lon="-0.33006">
        <ele>60.2</ele>
        <time>2021-03-26T17:15:53Z</time>
      </trkpt>
      <trkpt lat="46.09081" lon="-0.32999">
        <ele>60</ele>
        <time>2021-03-26T17:15:54Z</time>
      </trkpt>
      <trkpt lat="46.09082" lon="-0.32992">
        <ele>60</ele>
        <time>2021-03-26T17:15:55Z</time>
      </trkpt>
      <trkpt lat="46.09083" lon="-0.32985">
        <ele>59.6</ele>
        <time>2021-03-26T17:15:56Z</time>
      </trkpt>
      <trkpt lat="46.09085" lon="-0.32973">
        <ele>59.2</ele>
        <time>2021-03-26T17:15:58Z</time>
      </trkpt>
      <trkpt lat="46.09086" lon="-0.32967">
        <ele>58.8</ele>
        <time>2021-03-26T17:15:59Z</time>
      </trkpt>
      <trkpt lat="46.09087" lon="-0.3296">
        <ele>58.6</ele>
        <time>2021-03-26T17:16:00Z</time>
      </trkpt>
      <trkpt lat="46.09088" lon="-0.32954">
        <ele>58.2</ele>
        <time>2021-03-26T17:16:01Z</time>
      </trkpt>
      <trkpt lat="46.09089" lon="-0.32947">
        <ele>58</ele>
        <time>2021-03-26T17:16:02Z</time>
      </trkpt>
      <trkpt lat="46.09095" lon="-0.32915">
        <ele>57.8</ele>
        <time>2021-03-26T17:16:06Z</time>
      </trkpt>
      <trkpt lat="46.091" lon="-0.32893">
        <ele>57.8</ele>
        <time>2021-03-26T17:16:09Z</time>
      </trkpt>
      <trkpt lat="46.09101" lon="-0.32886">
        <ele>57.8</ele>
        <time>2021-03-26T17:16:10Z</time>
      </trkpt>
      <trkpt lat="46.09102" lon="-0.32878">
        <ele>57.8</ele>
        <time>2021-03-26T17:16:11Z</time>
      </trkpt>
      <trkpt lat="46.09103" lon="-0.3287">
        <ele>57.8</ele>
        <time>2021-03-26T17:16:12Z</time>
      </trkpt>
      <trkpt lat="46.09111" lon="-0.32832">
        <ele>57.8</ele>
        <time>2021-03-26T17:16:17Z</time>
      </trkpt>
      <trkpt lat="46.09112" lon="-0.32825">
        <ele>57.8</ele>
        <time>2021-03-26T17:16:18Z</time>
      </trkpt>
      <trkpt lat="46.09113" lon="-0.32818">
        <ele>57.8</ele>
        <time>2021-03-26T17:16:19Z</time>
      </trkpt>
      <trkpt lat="46.09114" lon="-0.32811">
        <ele>57.8</ele>
        <time>2021-03-26T17:16:20Z</time>
      </trkpt>
      <trkpt lat="46.09118" lon="-0.32789">
        <ele>58</ele>
        <time>2021-03-26T17:16:23Z</time>
      </trkpt>
      <trkpt lat="46.09119" lon="-0.32781">
        <ele>58.2</ele>
        <time>2021-03-26T17:16:24Z</time>
      </trkpt>
      <trkpt lat="46.0912" lon="-0.32773">
        <ele>58.2</ele>
        <time>2021-03-26T17:16:25Z</time>
      </trkpt>
      <trkpt lat="46.09124" lon="-0.32751">
        <ele>58.4</ele>
        <time>2021-03-26T17:16:28Z</time>
      </trkpt>
      <trkpt lat="46.09128" lon="-0.32737">
        <ele>58.6</ele>
        <time>2021-03-26T17:16:30Z</time>
      </trkpt>
      <trkpt lat="46.09131" lon="-0.32732">
        <ele>58.6</ele>
        <time>2021-03-26T17:16:31Z</time>
      </trkpt>
      <trkpt lat="46.09134" lon="-0.32728">
        <ele>58.6</ele>
        <time>2021-03-26T17:16:32Z</time>
      </trkpt>
      <trkpt lat="46.09137" lon="-0.32725">
        <ele>58.6</ele>
        <time>2021-03-26T17:16:33Z</time>
      </trkpt>
      <trkpt lat="46.09139" lon="-0.32723">
        <ele>58.6</ele>
        <time>2021-03-26T17:16:34Z</time>
      </trkpt>
      <trkpt lat="46.0914" lon="-0.32722">
        <ele>58.8</ele>
        <time>2021-03-26T17:16:35Z</time>
      </trkpt>
      <trkpt lat="46.0914" lon="-0.32722">
        <ele>58.8</ele>
        <time>2021-03-26T17:16:36Z</time>
      </trkpt>
      <trkpt lat="46.0914" lon="-0.32722">
        <ele>58.8</ele>
        <time>2021-03-26T17:16:37Z</time>
      </trkpt>
      <trkpt lat="46.0914" lon="-0.32722">
        <ele>58.8</ele>
        <time>2021-03-26T17:16:38Z</time>
      </trkpt>
      <trkpt lat="46.09144" lon="-0.32717">
        <ele>58.6</ele>
        <time>2021-03-26T17:17:39Z</time>
      </trkpt>
      <trkpt lat="46.09147" lon="-0.32714">
        <ele>58.6</ele>
        <time>2021-03-26T17:17:40Z</time>
      </trkpt>
      <trkpt lat="46.0915" lon="-0.3271">
        <ele>58.6</ele>
        <time>2021-03-26T17:17:41Z</time>
      </trkpt>
      <trkpt lat="46.09153" lon="-0.32705">
        <ele>58.6</ele>
        <time>2021-03-26T17:17:42Z</time>
      </trkpt>
      <trkpt lat="46.09158" lon="-0.327">
        <ele>58.6</ele>
        <time>2021-03-26T17:17:43Z</time>
      </trkpt>
      <trkpt lat="46.09182" lon="-0.32672">
        <ele>58.4</ele>
        <time>2021-03-26T17:17:48Z</time>
      </trkpt>
      <trkpt lat="46.092" lon="-0.32652">
        <ele>57.4</ele>
        <time>2021-03-26T17:17:51Z</time>
      </trkpt>
      <trkpt lat="46.09218" lon="-0.32632">
        <ele>57</ele>
        <time>2021-03-26T17:17:54Z</time>
      </trkpt>
      <trkpt lat="46.09224" lon="-0.32625">
        <ele>56.8</ele>
        <time>2021-03-26T17:17:55Z</time>
      </trkpt>
      <trkpt lat="46.0923" lon="-0.32618">
        <ele>56.8</ele>
        <time>2021-03-26T17:17:56Z</time>
      </trkpt>
      <trkpt lat="46.09237" lon="-0.32612">
        <ele>56.4</ele>
        <time>2021-03-26T17:17:57Z</time>
      </trkpt>
      <trkpt lat="46.09244" lon="-0.32606">
        <ele>56.2</ele>
        <time>2021-03-26T17:17:58Z</time>
      </trkpt>
      <trkpt lat="46.0926" lon="-0.32599">
        <ele>55.6</ele>
        <time>2021-03-26T17:18:00Z</time>
      </trkpt>
      <trkpt lat="46.09286" lon="-0.32596">
        <ele>55</ele>
        <time>2021-03-26T17:18:03Z</time>
      </trkpt>
      <trkpt lat="46.09294" lon="-0.32596">
        <ele>54.6</ele>
        <time>2021-03-26T17:18:04Z</time>
      </trkpt>
      <trkpt lat="46.09302" lon="-0.32596">
        <ele>54.2</ele>
        <time>2021-03-26T17:18:05Z</time>
      </trkpt>
      <trkpt lat="46.09311" lon="-0.32596">
        <ele>53.8</ele>
        <time>2021-03-26T17:18:06Z</time>
      </trkpt>
      <trkpt lat="46.09319" lon="-0.32596">
        <ele>52.8</ele>
        <time>2021-03-26T17:18:07Z</time>
      </trkpt>
      <trkpt lat="46.09335" lon="-0.32595">
        <ele>51.8</ele>
        <time>2021-03-26T17:18:09Z</time>
      </trkpt>
      <trkpt lat="46.09351" lon="-0.32595">
        <ele>51.6</ele>
        <time>2021-03-26T17:18:11Z</time>
      </trkpt>
      <trkpt lat="46.09367" lon="-0.32594">
        <ele>50.6</ele>
        <time>2021-03-26T17:18:13Z</time>
      </trkpt>
      <trkpt lat="46.09374" lon="-0.32593">
        <ele>50.2</ele>
        <time>2021-03-26T17:18:14Z</time>
      </trkpt>
      <trkpt lat="46.09382" lon="-0.3259">
        <ele>50</ele>
        <time>2021-03-26T17:18:15Z</time>
      </trkpt>
      <trkpt lat="46.09389" lon="-0.32586">
        <ele>50</ele>
        <time>2021-03-26T17:18:16Z</time>
      </trkpt>
      <trkpt lat="46.09396" lon="-0.3258">
        <ele>49.8</ele>
        <time>2021-03-26T17:18:17Z</time>
      </trkpt>
      <trkpt lat="46.09403" lon="-0.32575">
        <ele>49.8</ele>
        <time>2021-03-26T17:18:18Z</time>
      </trkpt>
      <trkpt lat="46.0941" lon="-0.32571">
        <ele>49.8</ele>
        <time>2021-03-26T17:18:19Z</time>
      </trkpt>
      <trkpt lat="46.09417" lon="-0.32567">
        <ele>49.8</ele>
        <time>2021-03-26T17:18:20Z</time>
      </trkpt>
      <trkpt lat="46.09424" lon="-0.32563">
        <ele>49.8</ele>
        <time>2021-03-26T17:18:21Z</time>
      </trkpt>
      <trkpt lat="46.09431" lon="-0.32561">
        <ele>49.8</ele>
        <time>2021-03-26T17:18:22Z</time>
      </trkpt>
      <trkpt lat="46.09439" lon="-0.32559">
        <ele>49.8</ele>
        <time>2021-03-26T17:18:23Z</time>
      </trkpt>
      <trkpt lat="46.09461" lon="-0.32554">
        <ele>49.6</ele>
        <time>2021-03-26T17:18:26Z</time>
      </trkpt>
      <trkpt lat="46.09468" lon="-0.32552">
        <ele>49.6</ele>
        <time>2021-03-26T17:18:27Z</time>
      </trkpt>
      <trkpt lat="46.09515" lon="-0.32545">
        <ele>49.2</ele>
        <time>2021-03-26T17:18:33Z</time>
      </trkpt>
      <trkpt lat="46.09554" lon="-0.32544">
        <ele>48.2</ele>
        <time>2021-03-26T17:18:38Z</time>
      </trkpt>
      <trkpt lat="46.09577" lon="-0.32543">
        <ele>47.4</ele>
        <time>2021-03-26T17:18:41Z</time>
      </trkpt>
      <trkpt lat="46.09584" lon="-0.32543">
        <ele>47</ele>
        <time>2021-03-26T17:18:42Z</time>
      </trkpt>
      <trkpt lat="46.09591" lon="-0.32543">
        <ele>46.8</ele>
        <time>2021-03-26T17:18:43Z</time>
      </trkpt>
      <trkpt lat="46.09598" lon="-0.32542">
        <ele>46.6</ele>
        <time>2021-03-26T17:18:44Z</time>
      </trkpt>
      <trkpt lat="46.09621" lon="-0.32541">
        <ele>46</ele>
        <time>2021-03-26T17:18:47Z</time>
      </trkpt>
      <trkpt lat="46.09636" lon="-0.3254">
        <ele>45.8</ele>
        <time>2021-03-26T17:18:49Z</time>
      </trkpt>
      <trkpt lat="46.09643" lon="-0.3254">
        <ele>45.8</ele>
        <time>2021-03-26T17:18:50Z</time>
      </trkpt>
      <trkpt lat="46.0965" lon="-0.32539">
        <ele>45.6</ele>
        <time>2021-03-26T17:18:51Z</time>
      </trkpt>
      <trkpt lat="46.09688" lon="-0.32539">
        <ele>45.4</ele>
        <time>2021-03-26T17:18:56Z</time>
      </trkpt>
      <trkpt lat="46.09715" lon="-0.32536">
        <ele>45.2</ele>
        <time>2021-03-26T17:19:00Z</time>
      </trkpt>
      <trkpt lat="46.09722" lon="-0.32535">
        <ele>45</ele>
        <time>2021-03-26T17:19:01Z</time>
      </trkpt>
      <trkpt lat="46.09728" lon="-0.32534">
        <ele>45</ele>
        <time>2021-03-26T17:19:02Z</time>
      </trkpt>
      <trkpt lat="46.09735" lon="-0.32534">
        <ele>45</ele>
        <time>2021-03-26T17:19:03Z</time>
      </trkpt>
      <trkpt lat="46.09742" lon="-0.32533">
        <ele>45</ele>
        <time>2021-03-26T17:19:04Z</time>
      </trkpt>
      <trkpt lat="46.09792" lon="-0.32526">
        <ele>45</ele>
        <time>2021-03-26T17:19:11Z</time>
      </trkpt>
      <trkpt lat="46.09852" lon="-0.32516">
        <ele>45</ele>
        <time>2021-03-26T17:19:19Z</time>
      </trkpt>
      <trkpt lat="46.09859" lon="-0.32515">
        <ele>45.2</ele>
        <time>2021-03-26T17:19:20Z</time>
      </trkpt>
      <trkpt lat="46.09911" lon="-0.32514">
        <ele>45.4</ele>
        <time>2021-03-26T17:19:27Z</time>
      </trkpt>
      <trkpt lat="46.09965" lon="-0.32525">
        <ele>45.8</ele>
        <time>2021-03-26T17:19:34Z</time>
      </trkpt>
      <trkpt lat="46.09972" lon="-0.32527">
        <ele>46</ele>
        <time>2021-03-26T17:19:35Z</time>
      </trkpt>
      <trkpt lat="46.10018" lon="-0.32537">
        <ele>45.8</ele>
        <time>2021-03-26T17:19:41Z</time>
      </trkpt>
      <trkpt lat="46.10025" lon="-0.32538">
        <ele>45.8</ele>
        <time>2021-03-26T17:19:42Z</time>
      </trkpt>
      <trkpt lat="46.10031" lon="-0.3254">
        <ele>45.8</ele>
        <time>2021-03-26T17:19:43Z</time>
      </trkpt>
      <trkpt lat="46.10038" lon="-0.32541">
        <ele>45.6</ele>
        <time>2021-03-26T17:19:44Z</time>
      </trkpt>
      <trkpt lat="46.10052" lon="-0.32544">
        <ele>45.2</ele>
        <time>2021-03-26T17:19:46Z</time>
      </trkpt>
      <trkpt lat="46.10059" lon="-0.32545">
        <ele>45</ele>
        <time>2021-03-26T17:19:47Z</time>
      </trkpt>
      <trkpt lat="46.10066" lon="-0.32546">
        <ele>44.8</ele>
        <time>2021-03-26T17:19:48Z</time>
      </trkpt>
      <trkpt lat="46.10073" lon="-0.32548">
        <ele>44.8</ele>
        <time>2021-03-26T17:19:49Z</time>
      </trkpt>
      <trkpt lat="46.10079" lon="-0.32549">
        <ele>44.8</ele>
        <time>2021-03-26T17:19:50Z</time>
      </trkpt>
      <trkpt lat="46.10085" lon="-0.3255">
        <ele>44.6</ele>
        <time>2021-03-26T17:19:51Z</time>
      </trkpt>
      <trkpt lat="46.10091" lon="-0.32551">
        <ele>44.6</ele>
        <time>2021-03-26T17:19:52Z</time>
      </trkpt>
      <trkpt lat="46.10096" lon="-0.32552">
        <ele>44.6</ele>
        <time>2021-03-26T17:19:53Z</time>
      </trkpt>
      <trkpt lat="46.10101" lon="-0.32553">
        <ele>44.6</ele>
        <time>2021-03-26T17:19:54Z</time>
      </trkpt>
      <trkpt lat="46.10104" lon="-0.32554">
        <ele>44.6</ele>
        <time>2021-03-26T17:19:55Z</time>
      </trkpt>
      <trkpt lat="46.10107" lon="-0.32557">
        <ele>44.4</ele>
        <time>2021-03-26T17:19:56Z</time>
      </trkpt>
      <trkpt lat="46.10109" lon="-0.32562">
        <ele>44.4</ele>
        <time>2021-03-26T17:19:57Z</time>
      </trkpt>
      <trkpt lat="46.10109" lon="-0.32569">
        <ele>44.4</ele>
        <time>2021-03-26T17:19:58Z</time>
      </trkpt>
      <trkpt lat="46.10109" lon="-0.32593">
        <ele>44.4</ele>
        <time>2021-03-26T17:20:01Z</time>
      </trkpt>
      <trkpt lat="46.10108" lon="-0.32601">
        <ele>44.2</ele>
        <time>2021-03-26T17:20:02Z</time>
      </trkpt>
      <trkpt lat="46.10107" lon="-0.32611">
        <ele>44.2</ele>
        <time>2021-03-26T17:20:03Z</time>
      </trkpt>
      <trkpt lat="46.10103" lon="-0.32642">
        <ele>44</ele>
        <time>2021-03-26T17:20:06Z</time>
      </trkpt>
      <trkpt lat="46.10102" lon="-0.32653">
        <ele>43.6</ele>
        <time>2021-03-26T17:20:07Z</time>
      </trkpt>
      <trkpt lat="46.10096" lon="-0.32709">
        <ele>42.6</ele>
        <time>2021-03-26T17:20:12Z</time>
      </trkpt>
      <trkpt lat="46.10095" lon="-0.3272">
        <ele>42.4</ele>
        <time>2021-03-26T17:20:13Z</time>
      </trkpt>
      <trkpt lat="46.10094" lon="-0.32731">
        <ele>42.2</ele>
        <time>2021-03-26T17:20:14Z</time>
      </trkpt>
      <trkpt lat="46.10093" lon="-0.32741">
        <ele>42</ele>
        <time>2021-03-26T17:20:15Z</time>
      </trkpt>
      <trkpt lat="46.10091" lon="-0.32803">
        <ele>41.6</ele>
        <time>2021-03-26T17:20:21Z</time>
      </trkpt>
      <trkpt lat="46.10092" lon="-0.32865">
        <ele>41.6</ele>
        <time>2021-03-26T17:20:27Z</time>
      </trkpt>
      <trkpt lat="46.10091" lon="-0.32954">
        <ele>42.4</ele>
        <time>2021-03-26T17:20:35Z</time>
      </trkpt>
      <trkpt lat="46.10083" lon="-0.33031">
        <ele>43</ele>
        <time>2021-03-26T17:20:42Z</time>
      </trkpt>
      <trkpt lat="46.1008" lon="-0.33056">
        <ele>43.2</ele>
        <time>2021-03-26T17:20:44Z</time>
      </trkpt>
      <trkpt lat="46.10077" lon="-0.33075">
        <ele>43.2</ele>
        <time>2021-03-26T17:20:46Z</time>
      </trkpt>
      <trkpt lat="46.10068" lon="-0.3312">
        <ele>43.4</ele>
        <time>2021-03-26T17:20:50Z</time>
      </trkpt>
      <trkpt lat="46.10049" lon="-0.33188">
        <ele>43.4</ele>
        <time>2021-03-26T17:20:56Z</time>
      </trkpt>
      <trkpt lat="46.10027" lon="-0.33253">
        <ele>43.2</ele>
        <time>2021-03-26T17:21:02Z</time>
      </trkpt>
      <trkpt lat="46.10024" lon="-0.33263">
        <ele>43</ele>
        <time>2021-03-26T17:21:03Z</time>
      </trkpt>
      <trkpt lat="46.1002" lon="-0.33273">
        <ele>42.6</ele>
        <time>2021-03-26T17:21:04Z</time>
      </trkpt>
      <trkpt lat="46.10012" lon="-0.33306">
        <ele>41.8</ele>
        <time>2021-03-26T17:21:07Z</time>
      </trkpt>
      <trkpt lat="46.1001" lon="-0.33317">
        <ele>41.8</ele>
        <time>2021-03-26T17:21:08Z</time>
      </trkpt>
      <trkpt lat="46.1001" lon="-0.33329">
        <ele>41.6</ele>
        <time>2021-03-26T17:21:09Z</time>
      </trkpt>
      <trkpt lat="46.10011" lon="-0.33341">
        <ele>41.6</ele>
        <time>2021-03-26T17:21:10Z</time>
      </trkpt>
      <trkpt lat="46.10013" lon="-0.33352">
        <ele>41.6</ele>
        <time>2021-03-26T17:21:11Z</time>
      </trkpt>
      <trkpt lat="46.10015" lon="-0.33364">
        <ele>41.4</ele>
        <time>2021-03-26T17:21:12Z</time>
      </trkpt>
      <trkpt lat="46.10024" lon="-0.33431">
        <ele>41.2</ele>
        <time>2021-03-26T17:21:18Z</time>
      </trkpt>
      <trkpt lat="46.10024" lon="-0.33453">
        <ele>41.2</ele>
        <time>2021-03-26T17:21:20Z</time>
      </trkpt>
      <trkpt lat="46.10022" lon="-0.335">
        <ele>41.2</ele>
        <time>2021-03-26T17:21:24Z</time>
      </trkpt>
      <trkpt lat="46.10017" lon="-0.33577">
        <ele>40.6</ele>
        <time>2021-03-26T17:21:31Z</time>
      </trkpt>
      <trkpt lat="46.10015" lon="-0.33589">
        <ele>40.4</ele>
        <time>2021-03-26T17:21:32Z</time>
      </trkpt>
      <trkpt lat="46.10009" lon="-0.33673">
        <ele>40</ele>
        <time>2021-03-26T17:21:39Z</time>
      </trkpt>
      <trkpt lat="46.1001" lon="-0.3372">
        <ele>39.8</ele>
        <time>2021-03-26T17:21:43Z</time>
      </trkpt>
      <trkpt lat="46.10011" lon="-0.33742">
        <ele>40</ele>
        <time>2021-03-26T17:21:45Z</time>
      </trkpt>
      <trkpt lat="46.10011" lon="-0.33754">
        <ele>40</ele>
        <time>2021-03-26T17:21:46Z</time>
      </trkpt>
      <trkpt lat="46.10011" lon="-0.33765">
        <ele>40</ele>
        <time>2021-03-26T17:21:47Z</time>
      </trkpt>
      <trkpt lat="46.10011" lon="-0.33777">
        <ele>40</ele>
        <time>2021-03-26T17:21:48Z</time>
      </trkpt>
      <trkpt lat="46.10012" lon="-0.33811">
        <ele>39.8</ele>
        <time>2021-03-26T17:21:51Z</time>
      </trkpt>
      <trkpt lat="46.10012" lon="-0.3388">
        <ele>39.6</ele>
        <time>2021-03-26T17:21:57Z</time>
      </trkpt>
      <trkpt lat="46.10007" lon="-0.33962">
        <ele>39.6</ele>
        <time>2021-03-26T17:22:04Z</time>
      </trkpt>
      <trkpt lat="46.10006" lon="-0.33974">
        <ele>39.6</ele>
        <time>2021-03-26T17:22:05Z</time>
      </trkpt>
      <trkpt lat="46.10005" lon="-0.33996">
        <ele>39.4</ele>
        <time>2021-03-26T17:22:07Z</time>
      </trkpt>
      <trkpt lat="46.10003" lon="-0.34017">
        <ele>39.4</ele>
        <time>2021-03-26T17:22:09Z</time>
      </trkpt>
      <trkpt lat="46.10002" lon="-0.34027">
        <ele>39.4</ele>
        <time>2021-03-26T17:22:10Z</time>
      </trkpt>
      <trkpt lat="46.10001" lon="-0.34037">
        <ele>39.4</ele>
        <time>2021-03-26T17:22:11Z</time>
      </trkpt>
      <trkpt lat="46.1" lon="-0.34047">
        <ele>39.2</ele>
        <time>2021-03-26T17:22:12Z</time>
      </trkpt>
      <trkpt lat="46.09994" lon="-0.34098">
        <ele>38.6</ele>
        <time>2021-03-26T17:22:17Z</time>
      </trkpt>
      <trkpt lat="46.09993" lon="-0.34108">
        <ele>38.4</ele>
        <time>2021-03-26T17:22:18Z</time>
      </trkpt>
      <trkpt lat="46.09991" lon="-0.34118">
        <ele>38.4</ele>
        <time>2021-03-26T17:22:19Z</time>
      </trkpt>
      <trkpt lat="46.0999" lon="-0.34126">
        <ele>38.2</ele>
        <time>2021-03-26T17:22:20Z</time>
      </trkpt>
      <trkpt lat="46.09989" lon="-0.34134">
        <ele>38.2</ele>
        <time>2021-03-26T17:22:21Z</time>
      </trkpt>
      <trkpt lat="46.09988" lon="-0.34141">
        <ele>38.2</ele>
        <time>2021-03-26T17:22:22Z</time>
      </trkpt>
      <trkpt lat="46.09987" lon="-0.34148">
        <ele>38.2</ele>
        <time>2021-03-26T17:22:23Z</time>
      </trkpt>
      <trkpt lat="46.09987" lon="-0.34154">
        <ele>38.2</ele>
        <time>2021-03-26T17:22:24Z</time>
      </trkpt>
      <trkpt lat="46.09986" lon="-0.34161">
        <ele>38.2</ele>
        <time>2021-03-26T17:22:25Z</time>
      </trkpt>
      <trkpt lat="46.09985" lon="-0.34167">
        <ele>38.2</ele>
        <time>2021-03-26T17:22:26Z</time>
      </trkpt>
      <trkpt lat="46.09983" lon="-0.34174">
        <ele>38.2</ele>
        <time>2021-03-26T17:22:27Z</time>
      </trkpt>
      <trkpt lat="46.0998" lon="-0.3419">
        <ele>38.2</ele>
        <time>2021-03-26T17:22:29Z</time>
      </trkpt>
      <trkpt lat="46.0998" lon="-0.34197">
        <ele>38</ele>
        <time>2021-03-26T17:22:30Z</time>
      </trkpt>
      <trkpt lat="46.09981" lon="-0.34203">
        <ele>38</ele>
        <time>2021-03-26T17:22:31Z</time>
      </trkpt>
      <trkpt lat="46.09983" lon="-0.34208">
        <ele>38</ele>
        <time>2021-03-26T17:22:32Z</time>
      </trkpt>
      <trkpt lat="46.09985" lon="-0.34211">
        <ele>38</ele>
        <time>2021-03-26T17:22:33Z</time>
      </trkpt>
      <trkpt lat="46.09986" lon="-0.34213">
        <ele>38</ele>
        <time>2021-03-26T17:22:34Z</time>
      </trkpt>
      <trkpt lat="46.09986" lon="-0.34213">
        <ele>38</ele>
        <time>2021-03-26T17:22:35Z</time>
      </trkpt>
      <trkpt lat="46.09986" lon="-0.34213">
        <ele>38</ele>
        <time>2021-03-26T17:22:36Z</time>
      </trkpt>
    </trkseg>
  </trk>
</gpx>